| time (UTC) | temp C | wind direction | speed KPH | gust KPH | rain 1hr cm | rain 24hr cm | rain mn cm | humidity % | barometer mb |
| 20260903041404 | 27 | 248 | 1.6 | 4.8 | 0.00 | 0.00 | 0.00 | 1 | 1013.7 |
| 20260903041304 | 27 | 248 | 1.6 | 4.8 | 0.00 | 0.00 | 0.00 | 1 | 1013.7 |
| 20260903041204 | 27 | 248 | 3.2 | 8.0 | 0.00 | 0.00 | 0.00 | 1 | 1013.7 |
| 20260903041104 | 27 | 248 | 3.2 | 8.0 | 0.00 | 0.00 | 0.00 | 1 | 1013.7 |
| 20260903041025 | 27 | 248 | 3.2 | 8.0 | 0.00 | 0.00 | 0.00 | 1 | 1013.6 |
| 20260903040925 | 27 | 248 | 3.2 | 8.0 | 0.00 | 0.00 | 0.00 | 1 | 1013.6 |
| 20260903040804 | 27 | 248 | 3.2 | 8.0 | 0.00 | 0.00 | 0.00 | 1 | 1013.7 |
| 20260903040704 | 27 | 248 | 3.2 | 8.0 | 0.00 | 0.00 | 0.00 | 1 | 1013.6 |
| 20260903040604 | 27 | 248 | 3.2 | 8.0 | 0.00 | 0.00 | 0.00 | 1 | 1013.6 |
| 20260903040504 | 27 | 248 | 3.2 | 8.0 | 0.00 | 0.00 | 0.00 | 1 | 1013.5 |
| 20260903040404 | 27 | 248 | 3.2 | 8.0 | 0.00 | 0.00 | 0.00 | 1 | 1013.6 |
| 20260903040304 | 27 | 248 | 3.2 | 8.0 | 0.00 | 0.00 | 0.00 | 1 | 1013.6 |
| 20260903040204 | 27 | 248 | 3.2 | 8.0 | 0.00 | 0.00 | 0.00 | 1 | 1013.6 |
| 20260903040104 | 27 | 248 | 3.2 | 6.4 | 0.00 | 0.00 | 0.00 | 1 | 1013.6 |
| 20260903040004 | 27 | 248 | 3.2 | 8.0 | 0.00 | 0.00 | 0.00 | 1 | 1013.5 |
| 20260903035904 | 27 | 247 | 3.2 | 8.0 | 0.00 | 0.00 | 0.00 | 1 | 1013.6 |
| 20260903035825 | 27 | 246 | 3.2 | 11.3 | 0.00 | 0.00 | 0.00 | 1 | 1013.6 |
| 20260903035725 | 27 | 247 | 3.2 | 11.3 | 0.00 | 0.00 | 0.00 | 1 | 1013.6 |
| 20260903035604 | 27 | 248 | 3.2 | 11.3 | 0.00 | 0.00 | 0.00 | 1 | 1013.6 |
| 20260903035504 | 27 | 249 | 4.8 | 11.3 | 0.00 | 0.00 | 0.00 | 1 | 1013.6 |
| 20260903035404 | 27 | 251 | 4.8 | 11.3 | 0.00 | 0.00 | 0.00 | 1 | 1013.5 |
| 20260903035306 | 27 | 252 | 4.8 | 11.3 | 0.00 | 0.00 | 0.00 | 1 | 1013.6 |
| 20260903035204 | 27 | 253 | 4.8 | 11.3 | 0.00 | 0.00 | 0.00 | 1 | 1013.6 |
| 20260903035125 | 27 | 254 | 4.8 | 11.3 | 0.00 | 0.00 | 0.00 | 1 | 1013.6 |
| 20260903035004 | 27 | 255 | 4.8 | 11.3 | 0.00 | 0.00 | 0.00 | 1 | 1013.6 |
| 20260903034904 | 27 | 255 | 4.8 | 11.3 | 0.00 | 0.00 | 0.00 | 1 | 1013.6 |
| 20260903034804 | 27 | 257 | 4.8 | 9.7 | 0.00 | 0.00 | 0.00 | 1 | 1013.6 |
| 20260903034725 | 27 | 256 | 4.8 | 9.7 | 0.00 | 0.00 | 0.00 | 1 | 1013.6 |
| 20260903034625 | 27 | 256 | 4.8 | 9.7 | 0.00 | 0.00 | 0.00 | 1 | 1013.6 |
| 20260903034504 | 27 | 255 | 4.8 | 9.7 | 0.00 | 0.00 | 0.00 | 1 | 1013.6 |
| 20260903034404 | 27 | 254 | 4.8 | 9.7 | 0.00 | 0.00 | 0.00 | 1 | 1013.7 |
| 20260903034304 | 27 | 256 | 3.2 | 9.7 | 0.00 | 0.00 | 0.00 | 1 | 1013.7 |
| 20260903034225 | 27 | 258 | 3.2 | 9.7 | 0.00 | 0.00 | 0.00 | 1 | 1013.7 |
| 20260903034104 | 27 | 262 | 3.2 | 9.7 | 0.00 | 0.00 | 0.00 | 1 | 1013.7 |
| 20260903034004 | 27 | 267 | 4.8 | 9.7 | 0.00 | 0.00 | 0.00 | 1 | 1013.7 |
| 20260903033925 | 27 | 266 | 4.8 | 16.1 | 0.00 | 0.00 | 0.00 | 1 | 1013.7 |
| 20260903033804 | 27 | 266 | 4.8 | 16.1 | 0.00 | 0.00 | 0.00 | 1 | 1013.6 |
| 20260903033704 | 27 | 267 | 4.8 | 16.1 | 0.00 | 0.00 | 0.00 | 1 | 1013.7 |
| 20260903033604 | 27 | 270 | 4.8 | 16.1 | 0.00 | 0.00 | 0.00 | 1 | 1013.6 |
| 20260903033504 | 27 | 270 | 6.4 | 16.1 | 0.00 | 0.00 | 0.00 | 1 | 1013.7 |
| 20260903033404 | 27 | 272 | 6.4 | 16.1 | 0.00 | 0.00 | 0.00 | 1 | 1013.7 |
| 20260903033304 | 27 | 273 | 6.4 | 16.1 | 0.00 | 0.00 | 0.00 | 1 | 1013.7 |
| 20260903033204 | 27 | 270 | 6.4 | 16.1 | 0.00 | 0.00 | 0.00 | 1 | 1013.7 |
| 20260903033104 | 27 | 267 | 8.0 | 16.1 | 0.00 | 0.00 | 0.00 | 1 | 1013.7 |
| 20260903033004 | 27 | 265 | 6.4 | 16.1 | 0.00 | 0.00 | 0.00 | 1 | 1013.8 |
| 20260903032904 | 27 | 266 | 6.4 | 17.7 | 0.00 | 0.00 | 0.00 | 1 | 1013.8 |
| 20260903032804 | 27 | 267 | 6.4 | 17.7 | 0.00 | 0.00 | 0.00 | 1 | 1013.8 |
| 20260903032725 | 27 | 267 | 6.4 | 17.7 | 0.00 | 0.00 | 0.00 | 1 | 1013.8 |
| 20260903032604 | 27 | 263 | 8.0 | 17.7 | 0.00 | 0.00 | 0.00 | 1 | 1013.8 |
| 20260903032504 | 28 | 263 | 8.0 | 17.7 | 0.00 | 0.00 | 0.00 | 1 | 1013.8 |
| 20260903032404 | 28 | 262 | 8.0 | 17.7 | 0.00 | 0.00 | 0.00 | 1 | 1013.9 |
| 20260903032325 | 28 | 260 | 8.0 | 17.7 | 0.00 | 0.00 | 0.00 | 1 | 1013.9 |
| 20260903032204 | 28 | 258 | 8.0 | 17.7 | 0.00 | 0.00 | 0.00 | 1 | 1013.8 |
| 20260903032104 | 28 | 261 | 8.0 | 17.7 | 0.00 | 0.00 | 0.00 | 1 | 1013.9 |
| 20260903032004 | 28 | 263 | 8.0 | 17.7 | 0.00 | 0.00 | 0.00 | 1 | 1013.8 |
| 20260903031904 | 28 | 264 | 9.7 | 22.5 | 0.00 | 0.00 | 0.00 | 1 | 1013.8 |
| 20260903031804 | 28 | 263 | 9.7 | 22.5 | 0.00 | 0.00 | 0.00 | 1 | 1013.9 |
| 20260903031704 | 28 | 265 | 9.7 | 22.5 | 0.00 | 0.00 | 0.00 | 1 | 1013.9 |
| 20260903031604 | 28 | 265 | 9.7 | 22.5 | 0.00 | 0.00 | 0.00 | 1 | 1013.9 |
| 20260903031504 | 28 | 266 | 8.0 | 22.5 | 0.00 | 0.00 | 0.00 | 1 | 1013.9 |
| 20260903031404 | 28 | 267 | 9.7 | 22.5 | 0.00 | 0.00 | 0.00 | 1 | 1013.9 |
| 20260903031304 | 28 | 267 | 9.7 | 22.5 | 0.00 | 0.00 | 0.00 | 1 | 1013.8 |
| 20260903031225 | 28 | 268 | 9.7 | 22.5 | 0.00 | 0.00 | 0.00 | 1 | 1013.8 |
| 20260903031125 | 28 | 266 | 8.0 | 22.5 | 0.00 | 0.00 | 0.00 | 22 | 1013.8 |
| 20260903031004 | 28 | 262 | 8.0 | 22.5 | 0.00 | 0.00 | 0.00 | 22 | 1013.7 |
| 20260903030904 | 29 | 258 | 8.0 | 22.5 | 0.00 | 0.00 | 0.00 | 22 | 1013.6 |
| 20260903030804 | 29 | 259 | 6.4 | 19.3 | 0.00 | 0.00 | 0.00 | 26 | 1013.6 |
| 20260903030704 | 29 | 260 | 6.4 | 19.3 | 0.00 | 0.00 | 0.00 | 30 | 1013.6 |
| 20260903030604 | 29 | 261 | 6.4 | 19.3 | 0.00 | 0.00 | 0.00 | 31 | 1013.5 |
| 20260903030504 | 29 | 262 | 6.4 | 19.3 | 0.00 | 0.00 | 0.00 | 34 | 1013.5 |
| 20260903030425 | 29 | 260 | 6.4 | 19.3 | 0.00 | 0.00 | 0.00 | 34 | 1013.6 |
| 20260903030325 | 29 | 259 | 6.4 | 19.3 | 0.00 | 0.00 | 0.00 | 35 | 1013.5 |
| 20260903030225 | 30 | 258 | 6.4 | 19.3 | 0.00 | 0.00 | 0.00 | 36 | 1013.4 |
| 20260903030104 | 30 | 259 | 6.4 | 19.3 | 0.00 | 0.00 | 0.00 | 37 | 1013.4 |
| 20260903030004 | 30 | 260 | 6.4 | 19.3 | 0.00 | 0.00 | 0.00 | 37 | 1013.3 |
| 20260903025904 | 30 | 261 | 4.8 | 11.3 | 0.00 | 0.00 | 0.00 | 38 | 1013.3 |
| 20260903025804 | 30 | 259 | 4.8 | 11.3 | 0.00 | 0.00 | 0.00 | 38 | 1013.3 |
| 20260903025704 | 30 | 255 | 4.8 | 9.7 | 0.00 | 0.00 | 0.00 | 38 | 1013.2 |
| 20260903025604 | 30 | 252 | 4.8 | 9.7 | 0.00 | 0.00 | 0.00 | 39 | 1013.2 |
| 20260903025525 | 30 | 250 | 4.8 | 9.7 | 0.00 | 0.00 | 0.00 | 39 | 1013.1 |
| 20260903025404 | 30 | 248 | 3.2 | 9.7 | 0.00 | 0.00 | 0.00 | 39 | 1013.0 |
| 20260903025325 | 30 | 248 | 3.2 | 9.7 | 0.00 | 0.00 | 0.00 | 39 | 1013.1 |
| 20260903025204 | 30 | 247 | 3.2 | 8.0 | 0.00 | 0.00 | 0.00 | 40 | 1013.0 |
| 20260903025104 | 30 | 247 | 3.2 | 8.0 | 0.00 | 0.00 | 0.00 | 40 | 1013.0 |
| 20260903025004 | 30 | 247 | 3.2 | 6.4 | 0.00 | 0.00 | 0.00 | 40 | 1013.0 |
| 20260903024925 | 30 | 248 | 3.2 | 9.7 | 0.00 | 0.00 | 0.00 | 40 | 1012.9 |
| 20260903024804 | 30 | 249 | 3.2 | 9.7 | 0.00 | 0.00 | 0.00 | 40 | 1012.8 |
| 20260903024704 | 30 | 250 | 3.2 | 9.7 | 0.00 | 0.00 | 0.00 | 41 | 1012.8 |
| 20260903024604 | 30 | 251 | 3.2 | 9.7 | 0.00 | 0.00 | 0.00 | 41 | 1012.7 |
| 20260903024525 | 30 | 251 | 3.2 | 9.7 | 0.00 | 0.00 | 0.00 | 41 | 1012.7 |
| 20260903024404 | 30 | 251 | 3.2 | 9.7 | 0.00 | 0.00 | 0.00 | 41 | 1012.8 |
| 20260903024304 | 30 | 252 | 4.8 | 9.7 | 0.00 | 0.00 | 0.00 | 41 | 1012.8 |
| 20260903024204 | 30 | 257 | 4.8 | 9.7 | 0.00 | 0.00 | 0.00 | 41 | 1012.8 |
| 20260903024104 | 30 | 257 | 4.8 | 9.7 | 0.00 | 0.00 | 0.00 | 41 | 1012.8 |
| 20260903024004 | 30 | 257 | 4.8 | 9.7 | 0.00 | 0.00 | 0.00 | 41 | 1012.7 |
| 20260903023925 | 30 | 257 | 4.8 | 17.7 | 0.00 | 0.00 | 0.00 | 42 | 1012.7 |
| 20260903023804 | 30 | 257 | 4.8 | 17.7 | 0.00 | 0.00 | 0.00 | 42 | 1012.7 |
| 20260903023704 | 30 | 257 | 4.8 | 17.7 | 0.00 | 0.00 | 0.00 | 42 | 1012.7 |
| 20260903023606 | 30 | 257 | 4.8 | 17.7 | 0.00 | 0.00 | 0.00 | 42 | 1012.6 |
| 20260903023504 | 30 | 256 | 6.4 | 17.7 | 0.00 | 0.00 | 0.00 | 42 | 1012.5 |
| 20260903023404 | 30 | 256 | 6.4 | 17.7 | 0.00 | 0.00 | 0.00 | 42 | 1012.5 |
| 20260903023304 | 30 | 257 | 6.4 | 17.7 | 0.00 | 0.00 | 0.00 | 42 | 1012.5 |
| 20260903023225 | 30 | 258 | 6.4 | 17.7 | 0.00 | 0.00 | 0.00 | 42 | 1012.6 |
| 20260903023104 | 30 | 260 | 6.4 | 17.7 | 0.00 | 0.00 | 0.00 | 42 | 1012.6 |
| 20260903023004 | 30 | 262 | 4.8 | 17.7 | 0.00 | 0.00 | 0.00 | 42 | 1012.7 |
| 20260903022904 | 30 | 271 | 4.8 | 16.1 | 0.00 | 0.00 | 0.00 | 42 | 1012.8 |
| 20260903022804 | 30 | 273 | 4.8 | 11.3 | 0.00 | 0.00 | 0.00 | 42 | 1012.8 |
| 20260903022704 | 30 | 270 | 4.8 | 11.3 | 0.00 | 0.00 | 0.00 | 42 | 1012.6 |
| 20260903022604 | 31 | 266 | 4.8 | 12.9 | 0.00 | 0.00 | 0.00 | 42 | 1012.5 |
| 20260903022504 | 31 | 259 | 4.8 | 12.9 | 0.00 | 0.00 | 0.00 | 42 | 1012.5 |
| 20260903022404 | 31 | 256 | 4.8 | 12.9 | 0.00 | 0.00 | 0.00 | 42 | 1012.4 |
| 20260903022325 | 31 | 254 | 4.8 | 12.9 | 0.00 | 0.00 | 0.00 | 42 | 1012.3 |
| 20260903022225 | 30 | 248 | 4.8 | 12.9 | 0.00 | 0.00 | 0.00 | 42 | 1012.3 |
| 20260903022104 | 30 | 241 | 4.8 | 12.9 | 0.00 | 0.00 | 0.00 | 42 | 1012.2 |
| 20260903022004 | 30 | 239 | 3.2 | 12.9 | 0.00 | 0.00 | 0.00 | 42 | 1012.2 |
| 20260903021925 | 30 | 233 | 3.2 | 12.9 | 0.00 | 0.00 | 0.00 | 43 | 1012.3 |
| 20260903021825 | 30 | 226 | 3.2 | 12.9 | 0.00 | 0.00 | 0.00 | 43 | 1012.3 |
| 20260903021725 | 30 | 225 | 1.6 | 12.9 | 0.00 | 0.00 | 0.00 | 43 | 1012.3 |
| 20260903021625 | 30 | 223 | 1.6 | 9.7 | 0.00 | 0.00 | 0.00 | 42 | 1012.3 |
| 20260903021504 | 30 | 239 | 0.0 | 8.0 | 0.00 | 0.00 | 0.00 | 43 | 1012.4 |
| 20260903021404 | 30 | 241 | 0.0 | 4.8 | 0.00 | 0.00 | 0.00 | 43 | 1012.2 |
| 20260903021304 | 30 | 242 | 0.0 | 1.6 | 0.00 | 0.00 | 0.00 | 43 | 1012.1 |
| 20260903021204 | 30 | 242 | 0.0 | 1.6 | 0.00 | 0.00 | 0.00 | 43 | 1012.0 |
| 20260903021104 | 31 | 242 | 0.0 | 1.6 | 0.00 | 0.00 | 0.00 | 43 | 1011.9 |
| 20260903021025 | 31 | 242 | 0.0 | 1.6 | 0.00 | 0.00 | 0.00 | 43 | 1011.9 |
| 20260903020904 | 31 | 242 | 0.0 | 1.6 | 0.00 | 0.00 | 0.00 | 43 | 1011.8 |
| 20260903020804 | 31 | 242 | 0.0 | 1.6 | 0.00 | 0.00 | 0.00 | 43 | 1011.7 |
| 20260903020704 | 31 | 242 | 0.0 | 1.6 | 0.00 | 0.00 | 0.00 | 43 | 1011.8 |
| 20260903020604 | 31 | 242 | 0.0 | 1.6 | 0.00 | 0.00 | 0.00 | 43 | 1011.8 |
| 20260903020504 | 31 | 242 | 0.0 | 1.6 | 0.00 | 0.00 | 0.00 | 43 | 1011.7 |
| 20260903020404 | 31 | 242 | 0.0 | 1.6 | 0.00 | 0.00 | 0.00 | 43 | 1011.7 |
| 20260903020325 | 31 | 242 | 0.0 | 1.6 | 0.00 | 0.00 | 0.00 | 43 | 1011.7 |
| 20260903020204 | 31 | 242 | 0.0 | 1.6 | 0.00 | 0.00 | 0.00 | 43 | 1011.7 |
| 20260903020104 | 31 | 242 | 0.0 | 1.6 | 0.00 | 0.00 | 0.00 | 43 | 1011.6 |
| 20260903020004 | 31 | 242 | 0.0 | 1.6 | 0.00 | 0.00 | 0.00 | 43 | 1011.7 |
| 20260903015904 | 31 | 242 | 0.0 | 1.6 | 0.00 | 0.00 | 0.00 | 43 | 1011.6 |
| 20260903015804 | 31 | 242 | 0.0 | 1.6 | 0.00 | 0.00 | 0.00 | 43 | 1011.6 |
| 20260903015704 | 31 | 242 | 0.0 | 1.6 | 0.00 | 0.00 | 0.00 | 43 | 1011.6 |
| 20260903015604 | 31 | 242 | 0.0 | 1.6 | 0.00 | 0.00 | 0.00 | 43 | 1011.6 |
| 20260903015504 | 31 | 242 | 0.0 | 1.6 | 0.00 | 0.00 | 0.00 | 43 | 1011.5 |
| 20260903015404 | 31 | 242 | 0.0 | 1.6 | 0.00 | 0.00 | 0.00 | 43 | 1011.5 |
| 20260903015325 | 31 | 242 | 0.0 | 1.6 | 0.00 | 0.00 | 0.00 | 43 | 1011.5 |
| 20260903015204 | 31 | 242 | 0.0 | 1.6 | 0.00 | 0.00 | 0.00 | 43 | 1011.5 |
| 20260903015104 | 31 | 242 | 0.0 | 1.6 | 0.00 | 0.00 | 0.00 | 43 | 1011.4 |
| 20260903015025 | 31 | 242 | 0.0 | 1.6 | 0.00 | 0.00 | 0.00 | 43 | 1011.5 |
| 20260903014904 | 31 | 242 | 0.0 | 1.6 | 0.00 | 0.00 | 0.00 | 43 | 1011.5 |
| 20260903014804 | 31 | 242 | 0.0 | 1.6 | 0.00 | 0.00 | 0.00 | 43 | 1011.5 |
| 20260903014704 | 31 | 242 | 0.0 | 1.6 | 0.00 | 0.00 | 0.00 | 43 | 1011.4 |
| 20260903014604 | 31 | 242 | 0.0 | 3.2 | 0.00 | 0.00 | 0.00 | 43 | 1011.4 |
| 20260903014504 | 31 | 242 | 0.0 | 4.8 | 0.00 | 0.00 | 0.00 | 43 | 1011.4 |
| 20260903014404 | 31 | 242 | 1.6 | 4.8 | 0.00 | 0.00 | 0.00 | 43 | 1011.4 |
| 20260903014304 | 31 | 242 | 1.6 | 4.8 | 0.00 | 0.00 | 0.00 | 43 | 1011.5 |
| 20260903014204 | 31 | 242 | 1.6 | 4.8 | 0.00 | 0.00 | 0.00 | 43 | 1011.4 |
| 20260903014104 | 31 | 242 | 1.6 | 4.8 | 0.00 | 0.00 | 0.00 | 43 | 1011.4 |
| 20260903014004 | 31 | 242 | 1.6 | 4.8 | 0.00 | 0.00 | 0.00 | 43 | 1011.4 |
| 20260903013904 | 31 | 242 | 1.6 | 4.8 | 0.00 | 0.00 | 0.00 | 43 | 1011.4 |
| 20260903013804 | 31 | 242 | 1.6 | 6.4 | 0.00 | 0.00 | 0.00 | 43 | 1011.4 |
| 20260903013704 | 31 | 242 | 1.6 | 6.4 | 0.00 | 0.00 | 0.00 | 43 | 1011.3 |
| 20260903013604 | 31 | 243 | 1.6 | 6.4 | 0.00 | 0.00 | 0.00 | 44 | 1011.3 |
| 20260903013504 | 31 | 243 | 1.6 | 6.4 | 0.00 | 0.00 | 0.00 | 44 | 1011.3 |
| 20260903013404 | 31 | 243 | 1.6 | 6.4 | 0.00 | 0.00 | 0.00 | 44 | 1011.3 |
| 20260903013304 | 31 | 243 | 1.6 | 6.4 | 0.00 | 0.00 | 0.00 | 44 | 1011.3 |
| 20260903013204 | 31 | 243 | 3.2 | 6.4 | 0.00 | 0.00 | 0.00 | 44 | 1011.3 |
| 20260903013104 | 31 | 243 | 3.2 | 6.4 | 0.00 | 0.00 | 0.00 | 44 | 1011.4 |
| 20260903013004 | 31 | 243 | 3.2 | 6.4 | 0.00 | 0.00 | 0.00 | 44 | 1011.3 |
| 20260903012904 | 31 | 244 | 3.2 | 6.4 | 0.00 | 0.00 | 0.00 | 44 | 1011.4 |
| 20260903012825 | 31 | 244 | 3.2 | 6.4 | 0.00 | 0.00 | 0.00 | 44 | 1011.4 |
| 20260903012704 | 31 | 244 | 3.2 | 6.4 | 0.00 | 0.00 | 0.00 | 44 | 1011.4 |
| 20260903012604 | 31 | 244 | 3.2 | 6.4 | 0.00 | 0.00 | 0.00 | 44 | 1011.4 |
| 20260903012525 | 31 | 244 | 3.2 | 6.4 | 0.00 | 0.00 | 0.00 | 44 | 1011.4 |
| 20260903012404 | 31 | 244 | 3.2 | 8.0 | 0.00 | 0.00 | 0.00 | 44 | 1011.4 |
| 20260903012306 | 31 | 245 | 3.2 | 8.0 | 0.00 | 0.00 | 0.00 | 44 | 1011.4 |
| 20260903012204 | 31 | 245 | 3.2 | 8.0 | 0.00 | 0.00 | 0.00 | 44 | 1011.4 |
| 20260903012104 | 31 | 245 | 3.2 | 9.7 | 0.00 | 0.00 | 0.00 | 44 | 1011.4 |
| 20260903012025 | 31 | 245 | 3.2 | 9.7 | 0.00 | 0.00 | 0.00 | 44 | 1011.4 |
| 20260903011904 | 31 | 245 | 3.2 | 9.7 | 0.00 | 0.00 | 0.00 | 44 | 1011.5 |
| 20260903011804 | 31 | 245 | 3.2 | 9.7 | 0.00 | 0.00 | 0.00 | 44 | 1011.5 |
| 20260903011704 | 31 | 245 | 3.2 | 9.7 | 0.00 | 0.00 | 0.00 | 44 | 1011.4 |
| 20260903011604 | 31 | 245 | 3.2 | 9.7 | 0.00 | 0.00 | 0.00 | 44 | 1011.5 |
| 20260903011525 | 31 | 245 | 3.2 | 9.7 | 0.00 | 0.00 | 0.00 | 44 | 1011.4 |
| 20260903011404 | 31 | 245 | 3.2 | 9.7 | 0.00 | 0.00 | 0.00 | 44 | 1011.4 |
| 20260903011325 | 31 | 245 | 4.8 | 9.7 | 0.00 | 0.00 | 0.00 | 44 | 1011.4 |
| 20260903011204 | 31 | 245 | 3.2 | 9.7 | 0.00 | 0.00 | 0.00 | 44 | 1011.5 |
| 20260903011104 | 31 | 245 | 3.2 | 8.0 | 0.00 | 0.00 | 0.00 | 44 | 1011.5 |
| 20260903011004 | 31 | 246 | 3.2 | 8.0 | 0.00 | 0.00 | 0.00 | 44 | 1011.5 |
| 20260903010904 | 31 | 246 | 3.2 | 8.0 | 0.00 | 0.00 | 0.00 | 44 | 1011.5 |
| 20260903010804 | 31 | 246 | 3.2 | 8.0 | 0.00 | 0.00 | 0.00 | 44 | 1011.5 |
| 20260903010704 | 31 | 247 | 3.2 | 8.0 | 0.00 | 0.00 | 0.00 | 44 | 1011.5 |
| 20260903010625 | 31 | 247 | 3.2 | 8.0 | 0.00 | 0.00 | 0.00 | 44 | 1011.5 |
| 20260903010504 | 31 | 248 | 3.2 | 8.0 | 0.00 | 0.00 | 0.00 | 44 | 1011.4 |
| 20260903010404 | 32 | 248 | 3.2 | 8.0 | 0.00 | 0.00 | 0.00 | 44 | 1011.5 |
| 20260903010304 | 32 | 249 | 3.2 | 8.0 | 0.00 | 0.00 | 0.00 | 44 | 1011.5 |
| 20260903010225 | 32 | 249 | 3.2 | 6.4 | 0.00 | 0.00 | 0.00 | 44 | 1011.5 |
| 20260903010104 | 32 | 250 | 3.2 | 9.7 | 0.00 | 0.00 | 0.00 | 43 | 1011.5 |
| 20260903010004 | 32 | 250 | 3.2 | 9.7 | 0.00 | 0.00 | 0.00 | 43 | 1011.5 |
| 20260903005904 | 32 | 251 | 4.8 | 9.7 | 0.00 | 0.00 | 0.00 | 43 | 1011.5 |
| 20260903005804 | 32 | 251 | 3.2 | 9.7 | 0.00 | 0.00 | 0.00 | 43 | 1011.6 |
| 20260903005704 | 32 | 252 | 3.2 | 9.7 | 0.00 | 0.00 | 0.00 | 43 | 1011.6 |
| 20260903005604 | 32 | 252 | 3.2 | 9.7 | 0.00 | 0.00 | 0.00 | 43 | 1011.6 |
| 20260903005504 | 32 | 252 | 3.2 | 9.7 | 0.00 | 0.00 | 0.00 | 43 | 1011.6 |
| 20260903005404 | 32 | 252 | 4.8 | 9.7 | 0.00 | 0.00 | 0.00 | 43 | 1011.6 |
| 20260903005306 | 32 | 252 | 4.8 | 11.3 | 0.00 | 0.00 | 0.00 | 43 | 1011.5 |
| 20260903005225 | 32 | 252 | 4.8 | 11.3 | 0.00 | 0.00 | 0.00 | 43 | 1011.6 |
| 20260903005104 | 32 | 252 | 4.8 | 11.3 | 0.00 | 0.00 | 0.00 | 43 | 1011.5 |
| 20260903005004 | 32 | 252 | 4.8 | 11.3 | 0.00 | 0.00 | 0.00 | 43 | 1011.5 |
| 20260903004925 | 32 | 251 | 4.8 | 11.3 | 0.00 | 0.00 | 0.00 | 43 | 1011.6 |
| 20260903004804 | 32 | 253 | 4.8 | 11.3 | 0.00 | 0.00 | 0.00 | 43 | 1011.5 |
| 20260903004704 | 32 | 252 | 4.8 | 11.3 | 0.00 | 0.00 | 0.00 | 43 | 1011.6 |
| 20260903004625 | 32 | 251 | 4.8 | 11.3 | 0.00 | 0.00 | 0.00 | 43 | 1011.6 |
| 20260903004525 | 32 | 250 | 4.8 | 11.3 | 0.00 | 0.00 | 0.00 | 43 | 1011.6 |
| 20260903004404 | 32 | 252 | 4.8 | 11.3 | 0.00 | 0.00 | 0.00 | 43 | 1011.6 |
| 20260903004304 | 32 | 254 | 4.8 | 9.7 | 0.00 | 0.00 | 0.00 | 42 | 1011.6 |
| 20260903004204 | 32 | 255 | 4.8 | 9.7 | 0.00 | 0.00 | 0.00 | 42 | 1011.6 |
| 20260903004104 | 32 | 259 | 4.8 | 11.3 | 0.00 | 0.00 | 0.00 | 42 | 1011.6 |
| 20260903004004 | 32 | 261 | 4.8 | 11.3 | 0.00 | 0.00 | 0.00 | 42 | 1011.6 |
| 20260903003904 | 32 | 262 | 4.8 | 11.3 | 0.00 | 0.00 | 0.00 | 42 | 1011.6 |
| 20260903003804 | 32 | 269 | 4.8 | 11.3 | 0.00 | 0.00 | 0.00 | 42 | 1011.6 |
| 20260903003704 | 32 | 276 | 4.8 | 11.3 | 0.00 | 0.00 | 0.00 | 42 | 1011.5 |
| 20260903003604 | 32 | 285 | 4.8 | 11.3 | 0.00 | 0.00 | 0.00 | 42 | 1011.5 |
| 20260903003504 | 32 | 292 | 4.8 | 11.3 | 0.00 | 0.00 | 0.00 | 42 | 1011.6 |
| 20260903003404 | 32 | 300 | 4.8 | 11.3 | 0.00 | 0.00 | 0.00 | 42 | 1011.5 |
| 20260903003304 | 32 | 305 | 4.8 | 11.3 | 0.00 | 0.00 | 0.00 | 42 | 1011.6 |
| 20260903003204 | 32 | 307 | 4.8 | 11.3 | 0.00 | 0.00 | 0.00 | 42 | 1011.5 |
| 20260903003104 | 32 | 309 | 4.8 | 11.3 | 0.00 | 0.00 | 0.00 | 42 | 1011.5 |
| 20260903003004 | 32 | 321 | 4.8 | 11.3 | 0.00 | 0.00 | 0.00 | 42 | 1011.5 |
| 20260903002904 | 32 | 332 | 4.8 | 11.3 | 0.00 | 0.00 | 0.00 | 42 | 1011.5 |
| 20260903002804 | 32 | 342 | 4.8 | 11.3 | 0.00 | 0.00 | 0.00 | 42 | 1011.5 |
| 20260903002704 | 32 | 348 | 4.8 | 11.3 | 0.00 | 0.00 | 0.00 | 42 | 1011.5 |
| 20260903002604 | 32 | 358 | 4.8 | 9.7 | 0.00 | 0.00 | 0.00 | 42 | 1011.5 |
| 20260903002504 | 32 | 9 | 4.8 | 12.9 | 0.00 | 0.00 | 0.00 | 42 | 1011.6 |
| 20260903002404 | 32 | 19 | 4.8 | 16.1 | 0.00 | 0.00 | 0.00 | 42 | 1011.5 |
| 20260903002306 | 32 | 25 | 6.4 | 16.1 | 0.00 | 0.00 | 0.00 | 42 | 1011.6 |
| 20260903002225 | 32 | 29 | 6.4 | 16.1 | 0.00 | 0.00 | 0.00 | 42 | 1011.5 |
| 20260903002125 | 32 | 34 | 4.8 | 16.1 | 0.00 | 0.00 | 0.00 | 42 | 1011.6 |
| 20260903002004 | 32 | 40 | 4.8 | 16.1 | 0.00 | 0.00 | 0.00 | 42 | 1011.6 |
| 20260903001904 | 32 | 43 | 4.8 | 16.1 | 0.00 | 0.00 | 0.00 | 42 | 1011.6 |
| 20260903001804 | 32 | 47 | 4.8 | 16.1 | 0.00 | 0.00 | 0.00 | 42 | 1011.6 |
| 20260903001725 | 32 | 48 | 4.8 | 16.1 | 0.00 | 0.00 | 0.00 | 42 | 1011.6 |
| 20260903001604 | 32 | 49 | 4.8 | 16.1 | 0.00 | 0.00 | 0.00 | 42 | 1011.6 |
| 20260903001504 | 32 | 53 | 4.8 | 16.1 | 0.00 | 0.00 | 0.00 | 42 | 1011.6 |
| 20260903001404 | 32 | 57 | 4.8 | 8.0 | 0.00 | 0.00 | 0.00 | 42 | 1011.6 |
| 20260903001304 | 32 | 58 | 4.8 | 8.0 | 0.00 | 0.00 | 0.00 | 42 | 1011.7 |
| 20260903001204 | 32 | 59 | 4.8 | 8.0 | 0.00 | 0.00 | 0.00 | 42 | 1011.6 |
| 20260903001104 | 32 | 58 | 4.8 | 8.0 | 0.00 | 0.00 | 0.00 | 43 | 1011.6 |
| 20260903001004 | 32 | 58 | 4.8 | 8.0 | 0.00 | 0.00 | 0.00 | 43 | 1011.6 |
| 20260903000904 | 32 | 57 | 4.8 | 8.0 | 0.00 | 0.00 | 0.00 | 43 | 1011.7 |
| 20260903000804 | 32 | 53 | 4.8 | 9.7 | 0.00 | 0.00 | 0.00 | 44 | 1011.6 |
| 20260903000704 | 32 | 51 | 4.8 | 11.3 | 0.00 | 0.00 | 0.00 | 44 | 1011.7 |
| 20260903000604 | 32 | 49 | 4.8 | 11.3 | 0.00 | 0.00 | 0.00 | 45 | 1011.7 |
| 20260903000525 | 32 | 48 | 6.4 | 11.3 | 0.00 | 0.00 | 0.00 | 45 | 1011.7 |
| 20260903000404 | 32 | 46 | 6.4 | 12.9 | 0.00 | 0.00 | 0.00 | 45 | 1011.7 |
| 20260903000304 | 32 | 46 | 6.4 | 12.9 | 0.00 | 0.00 | 0.00 | 45 | 1011.7 |
| 20260903000204 | 32 | 46 | 8.0 | 17.7 | 0.00 | 0.00 | 0.00 | 46 | 1011.7 |
| 20260903000104 | 32 | 48 | 8.0 | 17.7 | 0.00 | 0.00 | 0.00 | 46 | 1011.7 |
| 20260903000004 | 32 | 49 | 8.0 | 17.7 | 0.00 | 0.00 | 0.00 | 46 | 1011.7 |
| 20260902235904 | 32 | 50 | 8.0 | 17.7 | 0.00 | 0.00 | 0.00 | 46 | 1011.7 |
| 20260902235804 | 32 | 53 | 9.7 | 17.7 | 0.00 | 0.00 | 0.00 | 46 | 1011.7 |
| 20260902235704 | 32 | 55 | 9.7 | 17.7 | 0.00 | 0.00 | 0.00 | 47 | 1011.6 |
| 20260902235604 | 32 | 55 | 9.7 | 17.7 | 0.00 | 0.00 | 0.00 | 47 | 1011.7 |
| 20260902235504 | 32 | 56 | 9.7 | 17.7 | 0.00 | 0.00 | 0.00 | 47 | 1011.7 |
| 20260902235404 | 32 | 57 | 9.7 | 17.7 | 0.00 | 0.00 | 0.00 | 47 | 1011.7 |
| 20260902235305 | 32 | 59 | 9.7 | 17.7 | 0.00 | 0.00 | 0.00 | 47 | 1011.8 |
| 20260902235225 | 32 | 59 | 8.0 | 17.7 | 0.00 | 0.00 | 0.00 | 47 | 1011.8 |
| 20260902235125 | 32 | 59 | 8.0 | 16.1 | 0.00 | 0.00 | 0.00 | 47 | 1011.8 |
| 20260902235004 | 32 | 61 | 8.0 | 16.1 | 0.00 | 0.00 | 0.00 | 48 | 1011.8 |
| 20260902234904 | 32 | 63 | 8.0 | 20.9 | 0.00 | 0.00 | 0.00 | 48 | 1011.8 |
| 20260902234804 | 32 | 63 | 8.0 | 20.9 | 0.00 | 0.00 | 0.00 | 48 | 1011.7 |
| 20260902234704 | 32 | 66 | 8.0 | 20.9 | 0.00 | 0.00 | 0.00 | 48 | 1011.7 |
| 20260902234604 | 32 | 70 | 8.0 | 20.9 | 0.00 | 0.00 | 0.00 | 48 | 1011.8 |
| 20260902234504 | 32 | 73 | 8.0 | 20.9 | 0.00 | 0.00 | 0.00 | 48 | 1011.8 |
| 20260902234425 | 32 | 75 | 8.0 | 20.9 | 0.00 | 0.00 | 0.00 | 48 | 1011.8 |
| 20260902234304 | 32 | 76 | 8.0 | 20.9 | 0.00 | 0.00 | 0.00 | 48 | 1011.8 |
| 20260902234225 | 32 | 77 | 9.7 | 20.9 | 0.00 | 0.00 | 0.00 | 48 | 1011.8 |
| 20260902234104 | 32 | 76 | 9.7 | 20.9 | 0.00 | 0.00 | 0.00 | 47 | 1011.9 |
| 20260902234004 | 32 | 73 | 9.7 | 20.9 | 0.00 | 0.00 | 0.00 | 48 | 1012.0 |
| 20260902233904 | 32 | 71 | 9.7 | 19.3 | 0.00 | 0.00 | 0.00 | 48 | 1011.9 |
| 20260902233825 | 33 | 71 | 8.0 | 19.3 | 0.00 | 0.00 | 0.00 | 48 | 1011.9 |
| 20260902233704 | 33 | 70 | 8.0 | 17.7 | 0.00 | 0.00 | 0.00 | 46 | 1011.9 |
| 20260902233604 | 33 | 69 | 6.4 | 17.7 | 0.00 | 0.00 | 0.00 | 46 | 1011.9 |
| 20260902233525 | 33 | 68 | 6.4 | 16.1 | 0.00 | 0.00 | 0.00 | 46 | 1012.0 |
| 20260902233404 | 33 | 76 | 6.4 | 16.1 | 0.00 | 0.00 | 0.00 | 45 | 1012.0 |
| 20260902233304 | 34 | 77 | 6.4 | 16.1 | 0.00 | 0.00 | 0.00 | 45 | 1012.0 |
| 20260902233204 | 34 | 77 | 4.8 | 16.1 | 0.00 | 0.00 | 0.00 | 45 | 1012.0 |
| 20260902233104 | 34 | 80 | 3.2 | 16.1 | 0.00 | 0.00 | 0.00 | 45 | 1012.0 |
| 20260902233004 | 34 | 100 | 3.2 | 11.3 | 0.00 | 0.00 | 0.00 | 44 | 1012.0 |
| 20260902232904 | 34 | 130 | 1.6 | 9.7 | 0.00 | 0.00 | 0.00 | 44 | 1012.0 |
| 20260902232804 | 34 | 158 | 1.6 | 9.7 | 0.00 | 0.00 | 0.00 | 43 | 1012.1 |
| 20260902232704 | 35 | 179 | 3.2 | 9.7 | 0.00 | 0.00 | 0.00 | 43 | 1012.0 |
| 20260902232604 | 35 | 181 | 3.2 | 12.9 | 0.00 | 0.00 | 0.00 | 43 | 1012.0 |
| 20260902232504 | 35 | 186 | 3.2 | 12.9 | 0.00 | 0.00 | 0.00 | 43 | 1011.9 |
| 20260902232404 | 35 | 198 | 3.2 | 12.9 | 0.00 | 0.00 | 0.00 | 43 | 1011.9 |
| 20260902232306 | 35 | 201 | 3.2 | 12.9 | 0.00 | 0.00 | 0.00 | 43 | 1011.8 |
| 20260902232204 | 35 | 209 | 3.2 | 12.9 | 0.00 | 0.00 | 0.00 | 43 | 1011.7 |
| 20260902232104 | 35 | 215 | 4.8 | 12.9 | 0.00 | 0.00 | 0.00 | 43 | 1011.7 |
| 20260902232004 | 35 | 223 | 4.8 | 12.9 | 0.00 | 0.00 | 0.00 | 43 | 1011.7 |
| 20260902231904 | 35 | 227 | 4.8 | 12.9 | 0.00 | 0.00 | 0.00 | 43 | 1011.6 |
| 20260902231804 | 35 | 233 | 4.8 | 12.9 | 0.00 | 0.00 | 0.00 | 42 | 1011.6 |
| 20260902231704 | 35 | 238 | 4.8 | 12.9 | 0.00 | 0.00 | 0.00 | 42 | 1011.5 |
| 20260902231604 | 35 | 246 | 4.8 | 12.9 | 0.00 | 0.00 | 0.00 | 42 | 1011.6 |
| 20260902231525 | 35 | 250 | 4.8 | 12.9 | 0.00 | 0.00 | 0.00 | 42 | 1011.5 |
| 20260902231404 | 35 | 257 | 4.8 | 12.9 | 0.00 | 0.00 | 0.00 | 42 | 1011.4 |
| 20260902231304 | 35 | 261 | 4.8 | 12.9 | 0.00 | 0.00 | 0.00 | 41 | 1011.4 |
| 20260902231204 | 36 | 264 | 4.8 | 12.9 | 0.00 | 0.00 | 0.00 | 41 | 1011.3 |
| 20260902231125 | 36 | 264 | 3.2 | 12.9 | 0.00 | 0.00 | 0.00 | 41 | 1011.3 |
| 20260902231025 | 36 | 265 | 3.2 | 12.9 | 0.00 | 0.00 | 0.00 | 40 | 1011.3 |
| 20260902230904 | 36 | 293 | 3.2 | 12.9 | 0.00 | 0.00 | 0.00 | 39 | 1011.3 |
| 20260902230804 | 36 | 352 | 3.2 | 12.9 | 0.00 | 0.00 | 0.00 | 39 | 1011.3 |
| 20260902230704 | 37 | 34 | 1.6 | 12.9 | 0.00 | 0.00 | 0.00 | 38 | 1011.2 |
| 20260902230625 | 37 | 50 | 1.6 | 4.8 | 0.00 | 0.00 | 0.00 | 38 | 1011.2 |
| 20260902230504 | 37 | 50 | 1.6 | 6.4 | 0.00 | 0.00 | 0.00 | 38 | 1011.2 |
| 20260902230404 | 37 | 50 | 1.6 | 6.4 | 0.00 | 0.00 | 0.00 | 38 | 1011.1 |
| 20260902230306 | 37 | 51 | 1.6 | 6.4 | 0.00 | 0.00 | 0.00 | 38 | 1011.1 |
| 20260902230204 | 37 | 52 | 3.2 | 6.4 | 0.00 | 0.00 | 0.00 | 38 | 1011.1 |
| 20260902230104 | 37 | 53 | 3.2 | 8.0 | 0.00 | 0.00 | 0.00 | 38 | 1011.1 |
| 20260902230004 | 37 | 54 | 3.2 | 8.0 | 0.00 | 0.00 | 0.00 | 38 | 1011.0 |
| 20260902225904 | 37 | 54 | 4.8 | 9.7 | 0.00 | 0.00 | 0.00 | 38 | 1011.0 |
| 20260902225804 | 37 | 53 | 4.8 | 11.3 | 0.00 | 0.00 | 0.00 | 38 | 1011.1 |
| 20260902225704 | 37 | 53 | 4.8 | 11.3 | 0.00 | 0.00 | 0.00 | 38 | 1011.1 |
| 20260902225604 | 37 | 54 | 4.8 | 11.3 | 0.00 | 0.00 | 0.00 | 38 | 1011.0 |
| 20260902225504 | 37 | 54 | 4.8 | 11.3 | 0.00 | 0.00 | 0.00 | 38 | 1011.1 |
| 20260902225404 | 37 | 55 | 4.8 | 11.3 | 0.00 | 0.00 | 0.00 | 38 | 1011.0 |
| 20260902225306 | 37 | 55 | 4.8 | 11.3 | 0.00 | 0.00 | 0.00 | 38 | 1011.1 |
| 20260902225204 | 37 | 54 | 6.4 | 11.3 | 0.00 | 0.00 | 0.00 | 38 | 1011.1 |
| 20260902225104 | 37 | 55 | 4.8 | 11.3 | 0.00 | 0.00 | 0.00 | 38 | 1011.0 |
| 20260902225004 | 37 | 55 | 4.8 | 11.3 | 0.00 | 0.00 | 0.00 | 38 | 1011.0 |
| 20260902224904 | 37 | 56 | 4.8 | 11.3 | 0.00 | 0.00 | 0.00 | 37 | 1011.0 |
| 20260902224804 | 37 | 59 | 4.8 | 9.7 | 0.00 | 0.00 | 0.00 | 38 | 1011.0 |
| 20260902224704 | 37 | 60 | 4.8 | 9.7 | 0.00 | 0.00 | 0.00 | 37 | 1011.1 |
| 20260902224604 | 37 | 60 | 4.8 | 9.7 | 0.00 | 0.00 | 0.00 | 37 | 1011.0 |
| 20260902224504 | 37 | 61 | 4.8 | 9.7 | 0.00 | 0.00 | 0.00 | 37 | 1011.1 |
| 20260902224404 | 37 | 61 | 4.8 | 9.7 | 0.00 | 0.00 | 0.00 | 37 | 1011.0 |
| 20260902224304 | 37 | 64 | 4.8 | 9.7 | 0.00 | 0.00 | 0.00 | 37 | 1011.1 |
| 20260902224204 | 37 | 67 | 4.8 | 9.7 | 0.00 | 0.00 | 0.00 | 37 | 1011.0 |
| 20260902224125 | 37 | 68 | 4.8 | 9.7 | 0.00 | 0.00 | 0.00 | 37 | 1011.0 |
| 20260902224004 | 37 | 69 | 4.8 | 9.7 | 0.00 | 0.00 | 0.00 | 37 | 1011.0 |
| 20260902223904 | 37 | 69 | 3.2 | 9.7 | 0.00 | 0.00 | 0.00 | 36 | 1011.0 |
| 20260902223825 | 37 | 70 | 3.2 | 9.7 | 0.00 | 0.00 | 0.00 | 37 | 1011.0 |
| 20260902223704 | 37 | 74 | 3.2 | 9.7 | 0.00 | 0.00 | 0.00 | 36 | 1011.0 |
| 20260902223604 | 37 | 76 | 3.2 | 9.7 | 0.00 | 0.00 | 0.00 | 36 | 1011.0 |
| 20260902223504 | 38 | 80 | 3.2 | 9.7 | 0.00 | 0.00 | 0.00 | 36 | 1011.0 |
| 20260902223404 | 38 | 87 | 1.6 | 9.7 | 0.00 | 0.00 | 0.00 | 36 | 1011.0 |
| 20260902223325 | 38 | 91 | 1.6 | 6.4 | 0.00 | 0.00 | 0.00 | 36 | 1011.0 |
| 20260902223204 | 38 | 94 | 1.6 | 4.8 | 0.00 | 0.00 | 0.00 | 36 | 1011.0 |
| 20260902223104 | 38 | 97 | 1.6 | 4.8 | 0.00 | 0.00 | 0.00 | 36 | 1010.9 |
| 20260902223004 | 38 | 99 | 1.6 | 4.8 | 0.00 | 0.00 | 0.00 | 36 | 1011.0 |
| 20260902222904 | 38 | 101 | 1.6 | 4.8 | 0.00 | 0.00 | 0.00 | 35 | 1010.9 |
| 20260902222804 | 38 | 109 | 1.6 | 4.8 | 0.00 | 0.00 | 0.00 | 35 | 1010.9 |
| 20260902222725 | 38 | 114 | 1.6 | 4.8 | 0.00 | 0.00 | 0.00 | 35 | 1010.9 |
| 20260902222606 | 38 | 124 | 1.6 | 4.8 | 0.00 | 0.00 | 0.00 | 36 | 1011.0 |
| 20260902222504 | 38 | 133 | 1.6 | 4.8 | 0.00 | 0.00 | 0.00 | 36 | 1011.0 |
| 20260902222404 | 38 | 138 | 1.6 | 4.8 | 0.00 | 0.00 | 0.00 | 36 | 1011.0 |
| 20260902222306 | 37 | 146 | 1.6 | 6.4 | 0.00 | 0.00 | 0.00 | 36 | 1011.0 |
| 20260902222204 | 37 | 147 | 3.2 | 6.4 | 0.00 | 0.00 | 0.00 | 37 | 1011.0 |
| 20260902222104 | 37 | 149 | 3.2 | 11.3 | 0.00 | 0.00 | 0.00 | 37 | 1011.0 |
| 20260902222004 | 37 | 146 | 3.2 | 11.3 | 0.00 | 0.00 | 0.00 | 37 | 1011.1 |
| 20260902221904 | 37 | 142 | 3.2 | 11.3 | 0.00 | 0.00 | 0.00 | 37 | 1011.1 |
| 20260902221804 | 37 | 138 | 3.2 | 11.3 | 0.00 | 0.00 | 0.00 | 37 | 1011.1 |
| 20260902221704 | 37 | 131 | 3.2 | 11.3 | 0.00 | 0.00 | 0.00 | 37 | 1011.0 |
| 20260902221604 | 37 | 124 | 3.2 | 11.3 | 0.00 | 0.00 | 0.00 | 37 | 1011.0 |
| 20260902221504 | 37 | 115 | 4.8 | 11.3 | 0.00 | 0.00 | 0.00 | 37 | 1011.0 |
| 20260902221404 | 37 | 110 | 3.2 | 11.3 | 0.00 | 0.00 | 0.00 | 37 | 1011.0 |
| 20260902221304 | 37 | 104 | 3.2 | 11.3 | 0.00 | 0.00 | 0.00 | 37 | 1011.1 |
| 20260902221204 | 37 | 101 | 3.2 | 11.3 | 0.00 | 0.00 | 0.00 | 37 | 1011.1 |
| 20260902221104 | 37 | 86 | 3.2 | 9.7 | 0.00 | 0.00 | 0.00 | 37 | 1011.1 |
| 20260902221004 | 37 | 80 | 3.2 | 8.0 | 0.00 | 0.00 | 0.00 | 37 | 1011.1 |
| 20260902220904 | 37 | 76 | 3.2 | 8.0 | 0.00 | 0.00 | 0.00 | 37 | 1011.1 |
| 20260902220804 | 37 | 70 | 3.2 | 9.7 | 0.00 | 0.00 | 0.00 | 37 | 1011.1 |
| 20260902220704 | 37 | 64 | 3.2 | 9.7 | 0.00 | 0.00 | 0.00 | 37 | 1011.1 |
| 20260902220604 | 37 | 61 | 3.2 | 9.7 | 0.00 | 0.00 | 0.00 | 37 | 1011.0 |
| 20260902220504 | 37 | 61 | 3.2 | 9.7 | 0.00 | 0.00 | 0.00 | 37 | 1011.1 |
| 20260902220404 | 37 | 61 | 3.2 | 9.7 | 0.00 | 0.00 | 0.00 | 37 | 1011.1 |
| 20260902220325 | 37 | 61 | 3.2 | 9.7 | 0.00 | 0.00 | 0.00 | 37 | 1011.0 |
| 20260902220204 | 37 | 61 | 3.2 | 9.7 | 0.00 | 0.00 | 0.00 | 37 | 1011.1 |
| 20260902220104 | 37 | 60 | 3.2 | 9.7 | 0.00 | 0.00 | 0.00 | 37 | 1011.1 |
| 20260902220004 | 37 | 60 | 3.2 | 9.7 | 0.00 | 0.00 | 0.00 | 36 | 1011.1 |
| 20260902215904 | 37 | 60 | 1.6 | 9.7 | 0.00 | 0.00 | 0.00 | 37 | 1011.1 |
| 20260902215804 | 37 | 59 | 1.6 | 8.0 | 0.00 | 0.00 | 0.00 | 36 | 1011.1 |
| 20260902215704 | 37 | 58 | 1.6 | 8.0 | 0.00 | 0.00 | 0.00 | 36 | 1011.2 |
| 20260902215604 | 37 | 58 | 0.0 | 8.0 | 0.00 | 0.00 | 0.00 | 35 | 1011.2 |
| 20260902215504 | 37 | 57 | 0.0 | 3.2 | 0.00 | 0.00 | 0.00 | 36 | 1011.1 |
| 20260902215404 | 37 | 57 | 0.0 | 3.2 | 0.00 | 0.00 | 0.00 | 36 | 1011.2 |
| 20260902215306 | 37 | 57 | 0.0 | 3.2 | 0.00 | 0.00 | 0.00 | 36 | 1011.1 |
| 20260902215204 | 37 | 57 | 0.0 | 3.2 | 0.00 | 0.00 | 0.00 | 36 | 1011.2 |
| 20260902215104 | 37 | 57 | 1.6 | 3.2 | 0.00 | 0.00 | 0.00 | 36 | 1011.1 |
| 20260902215004 | 37 | 57 | 1.6 | 4.8 | 0.00 | 0.00 | 0.00 | 36 | 1011.2 |
| 20260902214904 | 37 | 57 | 1.6 | 4.8 | 0.00 | 0.00 | 0.00 | 36 | 1011.2 |
| 20260902214804 | 37 | 57 | 1.6 | 4.8 | 0.00 | 0.00 | 0.00 | 36 | 1011.2 |
| 20260902214704 | 37 | 57 | 1.6 | 4.8 | 0.00 | 0.00 | 0.00 | 36 | 1011.2 |
| 20260902214625 | 37 | 59 | 1.6 | 4.8 | 0.00 | 0.00 | 0.00 | 36 | 1011.2 |
| 20260902214504 | 37 | 64 | 3.2 | 8.0 | 0.00 | 0.00 | 0.00 | 36 | 1011.2 |
| 20260902214404 | 37 | 65 | 3.2 | 9.7 | 0.00 | 0.00 | 0.00 | 37 | 1011.3 |
| 20260902214304 | 37 | 67 | 3.2 | 9.7 | 0.00 | 0.00 | 0.00 | 36 | 1011.3 |
| 20260902214204 | 37 | 69 | 3.2 | 9.7 | 0.00 | 0.00 | 0.00 | 37 | 1011.3 |
| 20260902214104 | 37 | 71 | 3.2 | 9.7 | 0.00 | 0.00 | 0.00 | 37 | 1011.3 |
| 20260902214004 | 37 | 79 | 3.2 | 9.7 | 0.00 | 0.00 | 0.00 | 37 | 1011.3 |
| 20260902213904 | 37 | 80 | 3.2 | 9.7 | 0.00 | 0.00 | 0.00 | 37 | 1011.3 |
| 20260902213825 | 37 | 80 | 3.2 | 9.7 | 0.00 | 0.00 | 0.00 | 37 | 1011.3 |
| 20260902213704 | 37 | 80 | 4.8 | 9.7 | 0.00 | 0.00 | 0.00 | 37 | 1011.3 |
| 20260902213604 | 37 | 77 | 4.8 | 12.9 | 0.00 | 0.00 | 0.00 | 37 | 1011.3 |
| 20260902213504 | 37 | 74 | 4.8 | 12.9 | 0.00 | 0.00 | 0.00 | 37 | 1011.3 |
| 20260902213404 | 37 | 72 | 4.8 | 12.9 | 0.00 | 0.00 | 0.00 | 37 | 1011.3 |
| 20260902213304 | 37 | 71 | 4.8 | 12.9 | 0.00 | 0.00 | 0.00 | 37 | 1011.3 |
| 20260902213225 | 37 | 69 | 4.8 | 12.9 | 0.00 | 0.00 | 0.00 | 37 | 1011.3 |
| 20260902213104 | 37 | 68 | 4.8 | 12.9 | 0.00 | 0.00 | 0.00 | 37 | 1011.3 |
| 20260902213025 | 37 | 66 | 4.8 | 12.9 | 0.00 | 0.00 | 0.00 | 37 | 1011.3 |
| 20260902212925 | 37 | 62 | 4.8 | 12.9 | 0.00 | 0.00 | 0.00 | 37 | 1011.3 |
| 20260902212825 | 37 | 62 | 4.8 | 12.9 | 0.00 | 0.00 | 0.00 | 37 | 1011.4 |
| 20260902212704 | 37 | 61 | 3.2 | 12.9 | 0.00 | 0.00 | 0.00 | 36 | 1011.4 |
| 20260902212604 | 37 | 61 | 3.2 | 9.7 | 0.00 | 0.00 | 0.00 | 36 | 1011.4 |
| 20260902212504 | 37 | 64 | 3.2 | 9.7 | 0.00 | 0.00 | 0.00 | 37 | 1011.4 |
| 20260902212425 | 37 | 65 | 3.2 | 9.7 | 0.00 | 0.00 | 0.00 | 37 | 1011.4 |
| 20260902212306 | 37 | 66 | 1.6 | 6.4 | 0.00 | 0.00 | 0.00 | 36 | 1011.4 |
| 20260902212225 | 37 | 66 | 1.6 | 6.4 | 0.00 | 0.00 | 0.00 | 36 | 1011.4 |
| 20260902212104 | 37 | 67 | 1.6 | 6.4 | 0.00 | 0.00 | 0.00 | 37 | 1011.3 |
| 20260902212004 | 37 | 67 | 1.6 | 6.4 | 0.00 | 0.00 | 0.00 | 37 | 1011.4 |
| 20260902211904 | 37 | 67 | 1.6 | 6.4 | 0.00 | 0.00 | 0.00 | 36 | 1011.4 |
| 20260902211825 | 37 | 67 | 1.6 | 6.4 | 0.00 | 0.00 | 0.00 | 36 | 1011.3 |
| 20260902211704 | 37 | 67 | 1.6 | 6.4 | 0.00 | 0.00 | 0.00 | 36 | 1011.4 |
| 20260902211604 | 37 | 67 | 1.6 | 4.8 | 0.00 | 0.00 | 0.00 | 36 | 1011.4 |
| 20260902211504 | 37 | 67 | 1.6 | 3.2 | 0.00 | 0.00 | 0.00 | 37 | 1011.4 |
| 20260902211404 | 37 | 67 | 0.0 | 3.2 | 0.00 | 0.00 | 0.00 | 37 | 1011.4 |
| 20260902211304 | 37 | 68 | 0.0 | 3.2 | 0.00 | 0.00 | 0.00 | 37 | 1011.4 |
| 20260902211204 | 37 | 68 | 0.0 | 1.6 | 0.00 | 0.00 | 0.00 | 36 | 1011.4 |
| 20260902211104 | 37 | 68 | 0.0 | 4.8 | 0.00 | 0.00 | 0.00 | 37 | 1011.5 |
| 20260902211025 | 37 | 68 | 1.6 | 4.8 | 0.00 | 0.00 | 0.00 | 37 | 1011.4 |
| 20260902210925 | 37 | 67 | 1.6 | 4.8 | 0.00 | 0.00 | 0.00 | 37 | 1011.4 |
| 20260902210804 | 37 | 67 | 1.6 | 4.8 | 0.00 | 0.00 | 0.00 | 37 | 1011.4 |
| 20260902210704 | 37 | 67 | 1.6 | 4.8 | 0.00 | 0.00 | 0.00 | 37 | 1011.4 |
| 20260902210604 | 37 | 67 | 1.6 | 4.8 | 0.00 | 0.00 | 0.00 | 37 | 1011.4 |
| 20260902210504 | 37 | 67 | 1.6 | 4.8 | 0.00 | 0.00 | 0.00 | 37 | 1011.4 |
| 20260902210404 | 37 | 67 | 1.6 | 4.8 | 0.00 | 0.00 | 0.00 | 36 | 1011.4 |
| 20260902210304 | 37 | 67 | 1.6 | 4.8 | 0.00 | 0.00 | 0.00 | 36 | 1011.4 |
| 20260902210204 | 37 | 67 | 1.6 | 4.8 | 0.00 | 0.00 | 0.00 | 36 | 1011.5 |
| 20260902210104 | 37 | 66 | 1.6 | 3.2 | 0.00 | 0.00 | 0.00 | 36 | 1011.5 |
| 20260902210004 | 37 | 66 | 1.6 | 3.2 | 0.00 | 0.00 | 0.00 | 36 | 1011.6 |
| 20260902205904 | 37 | 66 | 1.6 | 4.8 | 0.00 | 0.00 | 0.00 | 36 | 1011.6 |
| 20260902205804 | 37 | 66 | 1.6 | 4.8 | 0.00 | 0.00 | 0.00 | 36 | 1011.6 |
| 20260902205704 | 37 | 66 | 1.6 | 4.8 | 0.00 | 0.00 | 0.00 | 36 | 1011.6 |
| 20260902205625 | 37 | 66 | 1.6 | 4.8 | 0.00 | 0.00 | 0.00 | 36 | 1011.7 |
| 20260902205504 | 37 | 66 | 1.6 | 4.8 | 0.00 | 0.00 | 0.00 | 36 | 1011.6 |
| 20260902205404 | 37 | 66 | 1.6 | 4.8 | 0.00 | 0.00 | 0.00 | 37 | 1011.7 |
| 20260902205306 | 37 | 66 | 1.6 | 4.8 | 0.00 | 0.00 | 0.00 | 36 | 1011.6 |
| 20260902205204 | 37 | 66 | 1.6 | 4.8 | 0.00 | 0.00 | 0.00 | 36 | 1011.7 |
| 20260902205104 | 37 | 66 | 1.6 | 4.8 | 0.00 | 0.00 | 0.00 | 36 | 1011.7 |
| 20260902205004 | 37 | 66 | 1.6 | 4.8 | 0.00 | 0.00 | 0.00 | 36 | 1011.8 |
| 20260902204904 | 37 | 66 | 1.6 | 4.8 | 0.00 | 0.00 | 0.00 | 36 | 1011.8 |
| 20260902204804 | 37 | 66 | 1.6 | 4.8 | 0.00 | 0.00 | 0.00 | 36 | 1011.8 |
| 20260902204704 | 37 | 66 | 1.6 | 4.8 | 0.00 | 0.00 | 0.00 | 36 | 1011.8 |
| 20260902204604 | 37 | 66 | 1.6 | 4.8 | 0.00 | 0.00 | 0.00 | 36 | 1011.8 |
| 20260902204504 | 37 | 66 | 1.6 | 4.8 | 0.00 | 0.00 | 0.00 | 35 | 1011.9 |
| 20260902204404 | 37 | 66 | 1.6 | 9.7 | 0.00 | 0.00 | 0.00 | 35 | 1011.8 |
| 20260902204304 | 38 | 59 | 3.2 | 11.3 | 0.00 | 0.00 | 0.00 | 35 | 1011.8 |
| 20260902204204 | 38 | 55 | 3.2 | 11.3 | 0.00 | 0.00 | 0.00 | 36 | 1011.8 |
| 20260902204104 | 38 | 50 | 3.2 | 11.3 | 0.00 | 0.00 | 0.00 | 35 | 1011.8 |
| 20260902204004 | 38 | 52 | 3.2 | 11.3 | 0.00 | 0.00 | 0.00 | 35 | 1011.9 |
| 20260902203904 | 38 | 53 | 3.2 | 11.3 | 0.00 | 0.00 | 0.00 | 35 | 1011.9 |
| 20260902203804 | 38 | 56 | 3.2 | 11.3 | 0.00 | 0.00 | 0.00 | 35 | 1011.9 |
| 20260902203725 | 38 | 59 | 4.8 | 11.3 | 0.00 | 0.00 | 0.00 | 35 | 1011.9 |
| 20260902203604 | 38 | 62 | 4.8 | 11.3 | 0.00 | 0.00 | 0.00 | 35 | 1012.0 |
| 20260902203504 | 38 | 66 | 4.8 | 11.3 | 0.00 | 0.00 | 0.00 | 35 | 1012.0 |
| 20260902203425 | 38 | 68 | 4.8 | 11.3 | 0.00 | 0.00 | 0.00 | 34 | 1012.0 |
| 20260902203304 | 38 | 77 | 3.2 | 11.3 | 0.00 | 0.00 | 0.00 | 35 | 1012.0 |
| 20260902203204 | 38 | 87 | 3.2 | 9.7 | 0.00 | 0.00 | 0.00 | 35 | 1011.9 |
| 20260902203104 | 38 | 100 | 3.2 | 8.0 | 0.00 | 0.00 | 0.00 | 35 | 1012.0 |
| 20260902203004 | 38 | 109 | 1.6 | 6.4 | 0.00 | 0.00 | 0.00 | 35 | 1012.0 |
| 20260902202904 | 38 | 112 | 1.6 | 6.4 | 0.00 | 0.00 | 0.00 | 34 | 1012.0 |
| 20260902202804 | 38 | 116 | 1.6 | 6.4 | 0.00 | 0.00 | 0.00 | 34 | 1012.0 |
| 20260902202704 | 38 | 121 | 1.6 | 6.4 | 0.00 | 0.00 | 0.00 | 34 | 1012.0 |
| 20260902202604 | 38 | 123 | 1.6 | 6.4 | 0.00 | 0.00 | 0.00 | 34 | 1012.1 |
| 20260902202504 | 38 | 131 | 1.6 | 4.8 | 0.00 | 0.00 | 0.00 | 35 | 1012.1 |
| 20260902202404 | 38 | 137 | 1.6 | 4.8 | 0.00 | 0.00 | 0.00 | 35 | 1012.1 |
| 20260902202325 | 38 | 140 | 1.6 | 4.8 | 0.00 | 0.00 | 0.00 | 35 | 1012.1 |
| 20260902202204 | 38 | 146 | 1.6 | 6.4 | 0.00 | 0.00 | 0.00 | 35 | 1012.1 |
| 20260902202104 | 38 | 149 | 1.6 | 6.4 | 0.00 | 0.00 | 0.00 | 35 | 1012.2 |
| 20260902202004 | 38 | 151 | 1.6 | 6.4 | 0.00 | 0.00 | 0.00 | 35 | 1012.2 |
| 20260902201925 | 38 | 152 | 1.6 | 6.4 | 0.00 | 0.00 | 0.00 | 35 | 1012.2 |
| 20260902201804 | 38 | 152 | 3.2 | 6.4 | 0.00 | 0.00 | 0.00 | 36 | 1012.2 |
| 20260902201704 | 38 | 145 | 3.2 | 6.4 | 0.00 | 0.00 | 0.00 | 36 | 1012.2 |
| 20260902201604 | 37 | 138 | 3.2 | 6.4 | 0.00 | 0.00 | 0.00 | 36 | 1012.2 |
| 20260902201504 | 37 | 133 | 3.2 | 6.4 | 0.00 | 0.00 | 0.00 | 37 | 1012.2 |
| 20260902201404 | 37 | 121 | 3.2 | 8.0 | 0.00 | 0.00 | 0.00 | 37 | 1012.2 |
| 20260902201304 | 37 | 110 | 3.2 | 8.0 | 0.00 | 0.00 | 0.00 | 37 | 1012.3 |
| 20260902201225 | 37 | 101 | 4.8 | 8.0 | 0.00 | 0.00 | 0.00 | 37 | 1012.3 |
| 20260902201125 | 37 | 90 | 4.8 | 9.7 | 0.00 | 0.00 | 0.00 | 37 | 1012.3 |
| 20260902201004 | 37 | 70 | 4.8 | 9.7 | 0.00 | 0.00 | 0.00 | 37 | 1012.3 |
| 20260902200904 | 37 | 64 | 4.8 | 9.7 | 0.00 | 0.00 | 0.00 | 37 | 1012.4 |
| 20260902200804 | 37 | 57 | 4.8 | 9.7 | 0.00 | 0.00 | 0.00 | 37 | 1012.4 |
| 20260902200704 | 37 | 49 | 3.2 | 9.7 | 0.00 | 0.00 | 0.00 | 37 | 1012.4 |
| 20260902200625 | 37 | 47 | 3.2 | 9.7 | 0.00 | 0.00 | 0.00 | 37 | 1012.4 |
| 20260902200504 | 37 | 47 | 4.8 | 9.7 | 0.00 | 0.00 | 0.00 | 36 | 1012.5 |
| 20260902200425 | 37 | 46 | 4.8 | 9.7 | 0.00 | 0.00 | 0.00 | 36 | 1012.5 |
| 20260902200304 | 37 | 43 | 4.8 | 9.7 | 0.00 | 0.00 | 0.00 | 36 | 1012.5 |
| 20260902200204 | 37 | 42 | 3.2 | 9.7 | 0.00 | 0.00 | 0.00 | 36 | 1012.4 |
| 20260902200104 | 37 | 51 | 3.2 | 9.7 | 0.00 | 0.00 | 0.00 | 37 | 1012.5 |
| 20260902200004 | 37 | 58 | 3.2 | 8.0 | 0.00 | 0.00 | 0.00 | 37 | 1012.5 |
| 20260902195904 | 37 | 56 | 3.2 | 8.0 | 0.00 | 0.00 | 0.00 | 37 | 1012.5 |
| 20260902195804 | 37 | 55 | 4.8 | 9.7 | 0.00 | 0.00 | 0.00 | 37 | 1012.5 |
| 20260902195704 | 37 | 55 | 4.8 | 9.7 | 0.00 | 0.00 | 0.00 | 37 | 1012.6 |
| 20260902195604 | 37 | 56 | 4.8 | 9.7 | 0.00 | 0.00 | 0.00 | 37 | 1012.6 |
| 20260902195504 | 37 | 58 | 4.8 | 9.7 | 0.00 | 0.00 | 0.00 | 37 | 1012.6 |
| 20260902195404 | 37 | 60 | 4.8 | 9.7 | 0.00 | 0.00 | 0.00 | 37 | 1012.6 |
| 20260902195306 | 37 | 62 | 4.8 | 9.7 | 0.00 | 0.00 | 0.00 | 37 | 1012.6 |
| 20260902195204 | 37 | 63 | 4.8 | 14.5 | 0.00 | 0.00 | 0.00 | 37 | 1012.7 |
| 20260902195104 | 37 | 60 | 4.8 | 14.5 | 0.00 | 0.00 | 0.00 | 36 | 1012.7 |
| 20260902195004 | 37 | 58 | 6.4 | 14.5 | 0.00 | 0.00 | 0.00 | 37 | 1012.7 |
| 20260902194904 | 37 | 55 | 6.4 | 14.5 | 0.00 | 0.00 | 0.00 | 36 | 1012.7 |
| 20260902194804 | 37 | 53 | 6.4 | 14.5 | 0.00 | 0.00 | 0.00 | 37 | 1012.7 |
| 20260902194704 | 37 | 49 | 6.4 | 14.5 | 0.00 | 0.00 | 0.00 | 37 | 1012.7 |
| 20260902194604 | 37 | 41 | 6.4 | 14.5 | 0.00 | 0.00 | 0.00 | 37 | 1012.8 |
| 20260902194504 | 37 | 35 | 6.4 | 14.5 | 0.00 | 0.00 | 0.00 | 36 | 1012.8 |
| 20260902194404 | 37 | 29 | 6.4 | 14.5 | 0.00 | 0.00 | 0.00 | 37 | 1012.9 |
| 20260902194306 | 37 | 25 | 6.4 | 14.5 | 0.00 | 0.00 | 0.00 | 36 | 1012.9 |
| 20260902194225 | 38 | 16 | 6.4 | 14.5 | 0.00 | 0.00 | 0.00 | 36 | 1012.8 |
| 20260902194104 | 38 | 360 | 4.8 | 11.3 | 0.00 | 0.00 | 0.00 | 36 | 1012.9 |
| 20260902194004 | 38 | 1 | 4.8 | 11.3 | 0.00 | 0.00 | 0.00 | 36 | 1012.9 |
| 20260902193904 | 38 | 2 | 4.8 | 11.3 | 0.00 | 0.00 | 0.00 | 36 | 1012.9 |
| 20260902193825 | 37 | 6 | 4.8 | 11.3 | 0.00 | 0.00 | 0.00 | 36 | 1012.9 |
| 20260902193704 | 37 | 10 | 4.8 | 11.3 | 0.00 | 0.00 | 0.00 | 36 | 1013.0 |
| 20260902193604 | 37 | 32 | 4.8 | 11.3 | 0.00 | 0.00 | 0.00 | 37 | 1013.0 |
| 20260902193504 | 37 | 45 | 4.8 | 11.3 | 0.00 | 0.00 | 0.00 | 37 | 1013.0 |
| 20260902193425 | 37 | 52 | 4.8 | 9.7 | 0.00 | 0.00 | 0.00 | 36 | 1013.0 |
| 20260902193304 | 37 | 62 | 4.8 | 9.7 | 0.00 | 0.00 | 0.00 | 37 | 1013.0 |
| 20260902193204 | 37 | 65 | 4.8 | 9.7 | 0.00 | 0.00 | 0.00 | 36 | 1013.0 |
| 20260902193125 | 37 | 67 | 4.8 | 9.7 | 0.00 | 0.00 | 0.00 | 37 | 1013.1 |
| 20260902193004 | 37 | 69 | 4.8 | 9.7 | 0.00 | 0.00 | 0.00 | 36 | 1013.1 |
| 20260902192904 | 37 | 69 | 4.8 | 9.7 | 0.00 | 0.00 | 0.00 | 36 | 1013.1 |
| 20260902192825 | 37 | 69 | 4.8 | 9.7 | 0.00 | 0.00 | 0.00 | 36 | 1013.1 |
| 20260902192704 | 37 | 70 | 4.8 | 9.7 | 0.00 | 0.00 | 0.00 | 36 | 1013.2 |
| 20260902192604 | 38 | 70 | 4.8 | 9.7 | 0.00 | 0.00 | 0.00 | 36 | 1013.2 |
| 20260902192504 | 38 | 73 | 3.2 | 9.7 | 0.00 | 0.00 | 0.00 | 35 | 1013.2 |
| 20260902192404 | 38 | 74 | 3.2 | 9.7 | 0.00 | 0.00 | 0.00 | 36 | 1013.2 |
| 20260902192306 | 38 | 70 | 3.2 | 9.7 | 0.00 | 0.00 | 0.00 | 35 | 1013.2 |
| 20260902192204 | 38 | 70 | 3.2 | 9.7 | 0.00 | 0.00 | 0.00 | 35 | 1013.3 |
| 20260902192104 | 38 | 70 | 3.2 | 9.7 | 0.00 | 0.00 | 0.00 | 35 | 1013.2 |
| 20260902192004 | 38 | 71 | 3.2 | 11.3 | 0.00 | 0.00 | 0.00 | 35 | 1013.3 |
| 20260902191904 | 38 | 71 | 3.2 | 11.3 | 0.00 | 0.00 | 0.00 | 36 | 1013.2 |
| 20260902191825 | 38 | 70 | 3.2 | 11.3 | 0.00 | 0.00 | 0.00 | 36 | 1013.3 |
| 20260902191704 | 37 | 67 | 3.2 | 11.3 | 0.00 | 0.00 | 0.00 | 36 | 1013.3 |
| 20260902191604 | 37 | 63 | 3.2 | 11.3 | 0.00 | 0.00 | 0.00 | 37 | 1013.2 |
| 20260902191504 | 37 | 32 | 3.2 | 11.3 | 0.00 | 0.00 | 0.00 | 36 | 1013.3 |
| 20260902191425 | 37 | 298 | 4.8 | 11.3 | 0.00 | 0.00 | 0.00 | 36 | 1013.3 |
| 20260902191304 | 37 | 270 | 4.8 | 11.3 | 0.00 | 0.00 | 0.00 | 38 | 1013.4 |
| 20260902191204 | 37 | 263 | 4.8 | 12.9 | 0.00 | 0.00 | 0.00 | 37 | 1013.4 |
| 20260902191104 | 37 | 272 | 4.8 | 16.1 | 0.00 | 0.00 | 0.00 | 37 | 1013.4 |
| 20260902191004 | 36 | 295 | 6.4 | 16.1 | 0.00 | 0.00 | 0.00 | 37 | 1013.4 |
| 20260902190904 | 36 | 311 | 6.4 | 16.1 | 0.00 | 0.00 | 0.00 | 37 | 1013.4 |
| 20260902190804 | 36 | 343 | 8.0 | 16.1 | 0.00 | 0.00 | 0.00 | 37 | 1013.4 |
| 20260902190704 | 36 | 7 | 8.0 | 16.1 | 0.00 | 0.00 | 0.00 | 37 | 1013.4 |
| 20260902190604 | 36 | 16 | 8.0 | 16.1 | 0.00 | 0.00 | 0.00 | 37 | 1013.4 |
| 20260902190504 | 36 | 27 | 8.0 | 16.1 | 0.00 | 0.00 | 0.00 | 37 | 1013.5 |
| 20260902190404 | 36 | 38 | 8.0 | 16.1 | 0.00 | 0.00 | 0.00 | 37 | 1013.5 |
| 20260902190304 | 36 | 43 | 8.0 | 16.1 | 0.00 | 0.00 | 0.00 | 37 | 1013.5 |
| 20260902190204 | 37 | 49 | 6.4 | 16.1 | 0.00 | 0.00 | 0.00 | 37 | 1013.6 |
| 20260902190104 | 37 | 52 | 6.4 | 14.5 | 0.00 | 0.00 | 0.00 | 37 | 1013.6 |
| 20260902190004 | 37 | 58 | 4.8 | 12.9 | 0.00 | 0.00 | 0.00 | 37 | 1013.6 |
| 20260902185904 | 37 | 57 | 4.8 | 12.9 | 0.00 | 0.00 | 0.00 | 37 | 1013.6 |
| 20260902185804 | 37 | 64 | 4.8 | 12.9 | 0.00 | 0.00 | 0.00 | 36 | 1013.6 |
| 20260902185704 | 37 | 79 | 3.2 | 12.9 | 0.00 | 0.00 | 0.00 | 36 | 1013.6 |
| 20260902185604 | 37 | 128 | 3.2 | 12.9 | 0.00 | 0.00 | 0.00 | 36 | 1013.7 |
| 20260902185506 | 37 | 170 | 3.2 | 9.7 | 0.00 | 0.00 | 0.00 | 36 | 1013.6 |
| 20260902185404 | 37 | 192 | 3.2 | 9.7 | 0.00 | 0.00 | 0.00 | 37 | 1013.6 |
| 20260902185306 | 37 | 199 | 3.2 | 9.7 | 0.00 | 0.00 | 0.00 | 37 | 1013.6 |
| 20260902185205 | 36 | 202 | 3.2 | 9.7 | 0.00 | 0.00 | 0.00 | 37 | 1013.6 |
| 20260902185104 | 36 | 205 | 4.8 | 9.7 | 0.00 | 0.00 | 0.00 | 38 | 1013.6 |
| 20260902185004 | 36 | 209 | 4.8 | 9.7 | 0.00 | 0.00 | 0.00 | 38 | 1013.6 |
| 20260902184904 | 36 | 210 | 4.8 | 9.7 | 0.00 | 0.00 | 0.00 | 37 | 1013.6 |
| 20260902184804 | 36 | 212 | 4.8 | 9.7 | 0.00 | 0.00 | 0.00 | 37 | 1013.7 |
| 20260902184704 | 36 | 214 | 4.8 | 9.7 | 0.00 | 0.00 | 0.00 | 38 | 1013.7 |
| 20260902184625 | 36 | 214 | 4.8 | 9.7 | 0.00 | 0.00 | 0.00 | 38 | 1013.7 |
| 20260902184504 | 36 | 216 | 4.8 | 8.0 | 0.00 | 0.00 | 0.00 | 38 | 1013.7 |
| 20260902184404 | 36 | 211 | 4.8 | 8.0 | 0.00 | 0.00 | 0.00 | 38 | 1013.8 |
| 20260902184304 | 36 | 204 | 4.8 | 8.0 | 0.00 | 0.00 | 0.00 | 37 | 1013.8 |
| 20260902184204 | 36 | 185 | 4.8 | 8.0 | 0.00 | 0.00 | 0.00 | 37 | 1013.8 |
| 20260902184125 | 36 | 139 | 4.8 | 8.0 | 0.00 | 0.00 | 0.00 | 37 | 1013.8 |
| 20260902184004 | 36 | 80 | 4.8 | 16.1 | 0.00 | 0.00 | 0.00 | 37 | 1013.9 |
| 20260902183904 | 36 | 71 | 6.4 | 20.9 | 0.00 | 0.00 | 0.00 | 37 | 1013.9 |
| 20260902183804 | 36 | 72 | 6.4 | 20.9 | 0.00 | 0.00 | 0.00 | 37 | 1013.9 |
| 20260902183704 | 36 | 71 | 6.4 | 20.9 | 0.00 | 0.00 | 0.00 | 37 | 1013.9 |
| 20260902183604 | 36 | 71 | 6.4 | 20.9 | 0.00 | 0.00 | 0.00 | 38 | 1013.9 |
| 20260902183504 | 36 | 68 | 8.0 | 20.9 | 0.00 | 0.00 | 0.00 | 37 | 1014.0 |
| 20260902183425 | 36 | 66 | 8.0 | 20.9 | 0.00 | 0.00 | 0.00 | 37 | 1014.0 |
| 20260902183304 | 36 | 65 | 8.0 | 20.9 | 0.00 | 0.00 | 0.00 | 38 | 1014.0 |
| 20260902183225 | 36 | 64 | 8.0 | 20.9 | 0.00 | 0.00 | 0.00 | 38 | 1014.0 |
| 20260902183104 | 36 | 63 | 6.4 | 20.9 | 0.00 | 0.00 | 0.00 | 37 | 1014.0 |
| 20260902183004 | 36 | 60 | 6.4 | 20.9 | 0.00 | 0.00 | 0.00 | 37 | 1014.0 |
| 20260902182904 | 36 | 54 | 6.4 | 16.1 | 0.00 | 0.00 | 0.00 | 38 | 1014.0 |
| 20260902182825 | 36 | 51 | 6.4 | 14.5 | 0.00 | 0.00 | 0.00 | 38 | 1014.0 |
| 20260902182704 | 36 | 51 | 4.8 | 14.5 | 0.00 | 0.00 | 0.00 | 37 | 1014.0 |
| 20260902182625 | 36 | 50 | 4.8 | 14.5 | 0.00 | 0.00 | 0.00 | 38 | 1014.1 |
| 20260902182504 | 36 | 52 | 4.8 | 14.5 | 0.00 | 0.00 | 0.00 | 37 | 1014.1 |
| 20260902182404 | 36 | 61 | 4.8 | 12.9 | 0.00 | 0.00 | 0.00 | 37 | 1014.1 |
| 20260902182306 | 36 | 69 | 3.2 | 12.9 | 0.00 | 0.00 | 0.00 | 37 | 1014.2 |
| 20260902182204 | 36 | 76 | 4.8 | 12.9 | 0.00 | 0.00 | 0.00 | 37 | 1014.2 |
| 20260902182106 | 36 | 81 | 4.8 | 12.9 | 0.00 | 0.00 | 0.00 | 37 | 1014.2 |
| 20260902182025 | 36 | 89 | 4.8 | 12.9 | 0.00 | 0.00 | 0.00 | 37 | 1014.3 |
| 20260902181904 | 36 | 104 | 4.8 | 12.9 | 0.00 | 0.00 | 0.00 | 37 | 1014.2 |
| 20260902181804 | 36 | 105 | 4.8 | 12.9 | 0.00 | 0.00 | 0.00 | 36 | 1014.2 |
| 20260902181704 | 36 | 102 | 4.8 | 12.9 | 0.00 | 0.00 | 0.00 | 37 | 1014.2 |
| 20260902181625 | 36 | 100 | 4.8 | 12.9 | 0.00 | 0.00 | 0.00 | 38 | 1014.2 |
| 20260902181504 | 36 | 91 | 4.8 | 12.9 | 0.00 | 0.00 | 0.00 | 38 | 1014.2 |
| 20260902181404 | 36 | 84 | 4.8 | 12.9 | 0.00 | 0.00 | 0.00 | 37 | 1014.3 |
| 20260902181304 | 36 | 77 | 4.8 | 12.9 | 0.00 | 0.00 | 0.00 | 37 | 1014.3 |
| 20260902181204 | 36 | 72 | 4.8 | 12.9 | 0.00 | 0.00 | 0.00 | 37 | 1014.3 |
| 20260902181104 | 36 | 66 | 4.8 | 12.9 | 0.00 | 0.00 | 0.00 | 37 | 1014.3 |
| 20260902181004 | 36 | 57 | 3.2 | 11.3 | 0.00 | 0.00 | 0.00 | 36 | 1014.4 |
| 20260902180925 | 36 | 52 | 3.2 | 11.3 | 0.00 | 0.00 | 0.00 | 36 | 1014.4 |
| 20260902180804 | 37 | 39 | 3.2 | 9.7 | 0.00 | 0.00 | 0.00 | 36 | 1014.4 |
| 20260902180704 | 37 | 33 | 3.2 | 9.7 | 0.00 | 0.00 | 0.00 | 36 | 1014.4 |
| 20260902180604 | 36 | 20 | 3.2 | 9.7 | 0.00 | 0.00 | 0.00 | 37 | 1014.4 |
| 20260902180504 | 36 | 8 | 3.2 | 9.7 | 0.00 | 0.00 | 0.00 | 36 | 1014.5 |
| 20260902180404 | 36 | 356 | 3.2 | 9.7 | 0.00 | 0.00 | 0.00 | 36 | 1014.5 |
| 20260902180304 | 36 | 339 | 4.8 | 12.9 | 0.00 | 0.00 | 0.00 | 36 | 1014.5 |
| 20260902180204 | 36 | 326 | 4.8 | 12.9 | 0.00 | 0.00 | 0.00 | 36 | 1014.5 |
| 20260902180104 | 36 | 324 | 4.8 | 12.9 | 0.00 | 0.00 | 0.00 | 36 | 1014.6 |
| 20260902180006 | 36 | 338 | 4.8 | 12.9 | 0.00 | 0.00 | 0.00 | 36 | 1014.6 |
| 20260902175904 | 36 | 341 | 6.4 | 12.9 | 0.00 | 0.00 | 0.00 | 37 | 1014.7 |
| 20260902175804 | 36 | 343 | 6.4 | 12.9 | 0.00 | 0.00 | 0.00 | 37 | 1014.6 |
| 20260902175704 | 36 | 352 | 6.4 | 14.5 | 0.00 | 0.00 | 0.00 | 37 | 1014.7 |
| 20260902175625 | 36 | 7 | 6.4 | 14.5 | 0.00 | 0.00 | 0.00 | 37 | 1014.7 |
| 20260902175504 | 36 | 23 | 6.4 | 17.7 | 0.00 | 0.00 | 0.00 | 37 | 1014.7 |
| 20260902175404 | 36 | 26 | 6.4 | 17.7 | 0.00 | 0.00 | 0.00 | 37 | 1014.8 |
| 20260902175325 | 36 | 33 | 6.4 | 17.7 | 0.00 | 0.00 | 0.00 | 37 | 1014.8 |
| 20260902175204 | 36 | 43 | 6.4 | 17.7 | 0.00 | 0.00 | 0.00 | 37 | 1014.8 |
| 20260902175104 | 36 | 41 | 6.4 | 17.7 | 0.00 | 0.00 | 0.00 | 37 | 1014.8 |
| 20260902175004 | 36 | 42 | 6.4 | 17.7 | 0.00 | 0.00 | 0.00 | 37 | 1014.9 |
| 20260902174904 | 36 | 42 | 6.4 | 17.7 | 0.00 | 0.00 | 0.00 | 37 | 1014.9 |
| 20260902174804 | 36 | 42 | 6.4 | 17.7 | 0.00 | 0.00 | 0.00 | 36 | 1014.9 |
| 20260902174704 | 36 | 43 | 6.4 | 17.7 | 0.00 | 0.00 | 0.00 | 36 | 1015.0 |
| 20260902174604 | 36 | 39 | 4.8 | 17.7 | 0.00 | 0.00 | 0.00 | 36 | 1014.9 |
| 20260902174504 | 36 | 36 | 4.8 | 12.9 | 0.00 | 0.00 | 0.00 | 37 | 1015.0 |
| 20260902174404 | 36 | 31 | 4.8 | 12.9 | 0.00 | 0.00 | 0.00 | 36 | 1015.0 |
| 20260902174304 | 36 | 21 | 4.8 | 12.9 | 0.00 | 0.00 | 0.00 | 37 | 1015.0 |
| 20260902174225 | 36 | 19 | 4.8 | 12.9 | 0.00 | 0.00 | 0.00 | 36 | 1015.0 |
| 20260902174104 | 36 | 25 | 4.8 | 11.3 | 0.00 | 0.00 | 0.00 | 37 | 1015.0 |
| 20260902174004 | 36 | 25 | 4.8 | 12.9 | 0.00 | 0.00 | 0.00 | 37 | 1015.0 |
| 20260902173904 | 36 | 22 | 4.8 | 12.9 | 0.00 | 0.00 | 0.00 | 36 | 1015.0 |
| 20260902173825 | 36 | 22 | 4.8 | 12.9 | 0.00 | 0.00 | 0.00 | 37 | 1015.0 |
| 20260902173704 | 36 | 11 | 4.8 | 12.9 | 0.00 | 0.00 | 0.00 | 36 | 1015.1 |
| 20260902173604 | 36 | 20 | 6.4 | 12.9 | 0.00 | 0.00 | 0.00 | 36 | 1015.1 |
| 20260902173504 | 36 | 27 | 6.4 | 14.5 | 0.00 | 0.00 | 0.00 | 36 | 1015.1 |
| 20260902173404 | 36 | 37 | 6.4 | 14.5 | 0.00 | 0.00 | 0.00 | 36 | 1015.2 |
| 20260902173304 | 36 | 43 | 8.0 | 14.5 | 0.00 | 0.00 | 0.00 | 36 | 1015.1 |
| 20260902173204 | 36 | 43 | 8.0 | 14.5 | 0.00 | 0.00 | 0.00 | 36 | 1015.2 |
| 20260902173104 | 36 | 44 | 8.0 | 14.5 | 0.00 | 0.00 | 0.00 | 36 | 1015.2 |
| 20260902173004 | 36 | 48 | 8.0 | 14.5 | 0.00 | 0.00 | 0.00 | 36 | 1015.2 |
| 20260902172904 | 36 | 51 | 8.0 | 14.5 | 0.00 | 0.00 | 0.00 | 36 | 1015.2 |
| 20260902172804 | 35 | 54 | 8.0 | 14.5 | 0.00 | 0.00 | 0.00 | 36 | 1015.2 |
| 20260902172704 | 35 | 53 | 8.0 | 14.5 | 0.00 | 0.00 | 0.00 | 37 | 1015.2 |
| 20260902172604 | 35 | 49 | 8.0 | 14.5 | 0.00 | 0.00 | 0.00 | 37 | 1015.2 |
| 20260902172504 | 35 | 44 | 8.0 | 14.5 | 0.00 | 0.00 | 0.00 | 37 | 1015.2 |
| 20260902172425 | 35 | 39 | 8.0 | 14.5 | 0.00 | 0.00 | 0.00 | 37 | 1015.2 |
| 20260902172308 | 35 | 34 | 6.4 | 14.5 | 0.00 | 0.00 | 0.00 | 36 | 1015.3 |
| 20260902172204 | 35 | 29 | 6.4 | 12.9 | 0.00 | 0.00 | 0.00 | 36 | 1015.3 |
| 20260902172104 | 35 | 17 | 6.4 | 12.9 | 0.00 | 0.00 | 0.00 | 36 | 1015.2 |
| 20260902172004 | 36 | 359 | 4.8 | 11.3 | 0.00 | 0.00 | 0.00 | 36 | 1015.2 |
| 20260902171904 | 35 | 349 | 4.8 | 11.3 | 0.00 | 0.00 | 0.00 | 36 | 1015.3 |
| 20260902171804 | 35 | 355 | 6.4 | 12.9 | 0.00 | 0.00 | 0.00 | 36 | 1015.3 |
| 20260902171704 | 35 | 2 | 6.4 | 12.9 | 0.00 | 0.00 | 0.00 | 35 | 1015.3 |
| 20260902171625 | 35 | 8 | 6.4 | 12.9 | 0.00 | 0.00 | 0.00 | 35 | 1015.4 |
| 20260902171504 | 35 | 11 | 6.4 | 16.1 | 0.00 | 0.00 | 0.00 | 35 | 1015.4 |
| 20260902171404 | 35 | 14 | 6.4 | 16.1 | 0.00 | 0.00 | 0.00 | 36 | 1015.4 |
| 20260902171325 | 35 | 20 | 6.4 | 16.1 | 0.00 | 0.00 | 0.00 | 36 | 1015.4 |
| 20260902171204 | 35 | 31 | 6.4 | 16.1 | 0.00 | 0.00 | 0.00 | 36 | 1015.4 |
| 20260902171104 | 35 | 38 | 6.4 | 16.1 | 0.00 | 0.00 | 0.00 | 36 | 1015.4 |
| 20260902171004 | 35 | 45 | 6.4 | 16.1 | 0.00 | 0.00 | 0.00 | 36 | 1015.4 |
| 20260902170904 | 35 | 52 | 6.4 | 16.1 | 0.00 | 0.00 | 0.00 | 36 | 1015.5 |
| 20260902170804 | 35 | 57 | 6.4 | 16.1 | 0.00 | 0.00 | 0.00 | 36 | 1015.5 |
| 20260902170704 | 35 | 57 | 6.4 | 16.1 | 0.00 | 0.00 | 0.00 | 36 | 1015.5 |
| 20260902170604 | 35 | 58 | 4.8 | 14.5 | 0.00 | 0.00 | 0.00 | 36 | 1015.5 |
| 20260902170525 | 35 | 60 | 4.8 | 14.5 | 0.00 | 0.00 | 0.00 | 36 | 1015.5 |
| 20260902170425 | 35 | 62 | 6.4 | 14.5 | 0.00 | 0.00 | 0.00 | 36 | 1015.6 |
| 20260902170304 | 35 | 65 | 4.8 | 14.5 | 0.00 | 0.00 | 0.00 | 36 | 1015.6 |
| 20260902170225 | 35 | 67 | 4.8 | 11.3 | 0.00 | 0.00 | 0.00 | 36 | 1015.6 |
| 20260902170104 | 35 | 64 | 4.8 | 11.3 | 0.00 | 0.00 | 0.00 | 36 | 1015.6 |
| 20260902170004 | 35 | 63 | 4.8 | 11.3 | 0.00 | 0.00 | 0.00 | 35 | 1015.6 |
| 20260902165904 | 35 | 62 | 4.8 | 11.3 | 0.00 | 0.00 | 0.00 | 35 | 1015.5 |
| 20260902165804 | 35 | 60 | 4.8 | 12.9 | 0.00 | 0.00 | 0.00 | 36 | 1015.6 |
| 20260902165704 | 35 | 60 | 6.4 | 12.9 | 0.00 | 0.00 | 0.00 | 36 | 1015.6 |
| 20260902165604 | 35 | 61 | 4.8 | 12.9 | 0.00 | 0.00 | 0.00 | 35 | 1015.6 |
| 20260902165525 | 35 | 62 | 4.8 | 12.9 | 0.00 | 0.00 | 0.00 | 35 | 1015.6 |
| 20260902165404 | 35 | 62 | 4.8 | 12.9 | 0.00 | 0.00 | 0.00 | 36 | 1015.6 |
| 20260902165308 | 35 | 62 | 4.8 | 12.9 | 0.00 | 0.00 | 0.00 | 35 | 1015.7 |
| 20260902165204 | 35 | 64 | 3.2 | 12.9 | 0.00 | 0.00 | 0.00 | 35 | 1015.7 |
| 20260902165105 | 35 | 68 | 4.8 | 12.9 | 0.00 | 0.00 | 0.00 | 35 | 1015.7 |
| 20260902165004 | 34 | 69 | 4.8 | 12.9 | 0.00 | 0.00 | 0.00 | 35 | 1015.7 |
| 20260902164925 | 35 | 70 | 4.8 | 12.9 | 0.00 | 0.00 | 0.00 | 35 | 1015.8 |
| 20260902164804 | 35 | 72 | 4.8 | 11.3 | 0.00 | 0.00 | 0.00 | 35 | 1015.8 |
| 20260902164704 | 34 | 69 | 4.8 | 11.3 | 0.00 | 0.00 | 0.00 | 35 | 1015.8 |
| 20260902164604 | 34 | 67 | 4.8 | 12.9 | 0.00 | 0.00 | 0.00 | 35 | 1015.8 |
| 20260902164504 | 34 | 66 | 4.8 | 12.9 | 0.00 | 0.00 | 0.00 | 35 | 1015.8 |
| 20260902164404 | 34 | 66 | 6.4 | 12.9 | 0.00 | 0.00 | 0.00 | 35 | 1015.8 |
| 20260902164304 | 34 | 67 | 6.4 | 12.9 | 0.00 | 0.00 | 0.00 | 35 | 1015.9 |
| 20260902164204 | 34 | 66 | 6.4 | 12.9 | 0.00 | 0.00 | 0.00 | 35 | 1015.9 |
| 20260902164104 | 34 | 64 | 6.4 | 12.9 | 0.00 | 0.00 | 0.00 | 35 | 1015.9 |
| 20260902164004 | 34 | 63 | 6.4 | 12.9 | 0.00 | 0.00 | 0.00 | 35 | 1015.9 |
| 20260902163925 | 34 | 61 | 6.4 | 12.9 | 0.00 | 0.00 | 0.00 | 35 | 1015.8 |
| 20260902163804 | 34 | 59 | 6.4 | 12.9 | 0.00 | 0.00 | 0.00 | 35 | 1015.9 |
| 20260902163704 | 34 | 59 | 6.4 | 12.9 | 0.00 | 0.00 | 0.00 | 35 | 1015.9 |
| 20260902163604 | 34 | 59 | 6.4 | 16.1 | 0.00 | 0.00 | 0.00 | 35 | 1015.9 |
| 20260902163504 | 34 | 55 | 6.4 | 16.1 | 0.00 | 0.00 | 0.00 | 35 | 1015.9 |
| 20260902163404 | 34 | 53 | 6.4 | 16.1 | 0.00 | 0.00 | 0.00 | 35 | 1015.9 |
| 20260902163304 | 34 | 53 | 6.4 | 16.1 | 0.00 | 0.00 | 0.00 | 35 | 1015.9 |
| 20260902163204 | 34 | 52 | 6.4 | 17.7 | 0.00 | 0.00 | 0.00 | 35 | 1015.9 |
| 20260902163104 | 34 | 51 | 8.0 | 17.7 | 0.00 | 0.00 | 0.00 | 35 | 1015.9 |
| 20260902163004 | 34 | 50 | 8.0 | 17.7 | 0.00 | 0.00 | 0.00 | 35 | 1015.9 |
| 20260902162904 | 34 | 51 | 8.0 | 17.7 | 0.00 | 0.00 | 0.00 | 35 | 1015.9 |
| 20260902162804 | 33 | 51 | 6.4 | 17.7 | 0.00 | 0.00 | 0.00 | 35 | 1016.0 |
| 20260902162725 | 34 | 52 | 6.4 | 17.7 | 0.00 | 0.00 | 0.00 | 34 | 1015.9 |
| 20260902162604 | 34 | 53 | 6.4 | 17.7 | 0.00 | 0.00 | 0.00 | 34 | 1016.0 |
| 20260902162504 | 33 | 55 | 6.4 | 17.7 | 0.00 | 0.00 | 0.00 | 34 | 1015.9 |
| 20260902162404 | 34 | 57 | 6.4 | 17.7 | 0.00 | 0.00 | 0.00 | 34 | 1015.9 |
| 20260902162307 | 34 | 56 | 4.8 | 17.7 | 0.00 | 0.00 | 0.00 | 34 | 1016.0 |
| 20260902162225 | 34 | 56 | 4.8 | 16.1 | 0.00 | 0.00 | 0.00 | 34 | 1015.9 |
| 20260902162104 | 34 | 58 | 3.2 | 11.3 | 0.00 | 0.00 | 0.00 | 34 | 1015.9 |
| 20260902162004 | 34 | 63 | 3.2 | 9.7 | 0.00 | 0.00 | 0.00 | 34 | 1015.9 |
| 20260902161904 | 34 | 64 | 3.2 | 9.7 | 0.00 | 0.00 | 0.00 | 34 | 1015.9 |
| 20260902161804 | 34 | 63 | 4.8 | 9.7 | 0.00 | 0.00 | 0.00 | 33 | 1015.9 |
| 20260902161704 | 34 | 60 | 4.8 | 9.7 | 0.00 | 0.00 | 0.00 | 33 | 1015.9 |
| 20260902161604 | 34 | 61 | 4.8 | 11.3 | 0.00 | 0.00 | 0.00 | 33 | 1015.9 |
| 20260902161504 | 34 | 61 | 3.2 | 11.3 | 0.00 | 0.00 | 0.00 | 33 | 1015.9 |
| 20260902161404 | 33 | 60 | 3.2 | 11.3 | 0.00 | 0.00 | 0.00 | 33 | 1015.9 |
| 20260902161325 | 33 | 61 | 3.2 | 11.3 | 0.00 | 0.00 | 0.00 | 33 | 1015.9 |
| 20260902161204 | 33 | 61 | 3.2 | 11.3 | 0.00 | 0.00 | 0.00 | 33 | 1015.9 |
| 20260902161104 | 33 | 62 | 3.2 | 11.3 | 0.00 | 0.00 | 0.00 | 33 | 1015.9 |
| 20260902161004 | 33 | 63 | 3.2 | 11.3 | 0.00 | 0.00 | 0.00 | 33 | 1015.9 |
| 20260902160925 | 33 | 62 | 3.2 | 11.3 | 0.00 | 0.00 | 0.00 | 33 | 1015.9 |
| 20260902160804 | 33 | 60 | 3.2 | 11.3 | 0.00 | 0.00 | 0.00 | 32 | 1015.9 |
| 20260902160704 | 33 | 62 | 3.2 | 11.3 | 0.00 | 0.00 | 0.00 | 32 | 1015.9 |
| 20260902160625 | 33 | 59 | 3.2 | 8.0 | 0.00 | 0.00 | 0.00 | 32 | 1015.9 |
| 20260902160504 | 33 | 54 | 3.2 | 9.7 | 0.00 | 0.00 | 0.00 | 32 | 1015.9 |
| 20260902160425 | 33 | 55 | 4.8 | 9.7 | 0.00 | 0.00 | 0.00 | 32 | 1015.9 |
| 20260902160304 | 33 | 54 | 4.8 | 9.7 | 0.00 | 0.00 | 0.00 | 32 | 1015.9 |
| 20260902160225 | 33 | 55 | 4.8 | 9.7 | 0.00 | 0.00 | 0.00 | 32 | 1015.9 |
| 20260902160105 | 33 | 55 | 4.8 | 9.7 | 0.00 | 0.00 | 0.00 | 32 | 1015.9 |
| 20260902160006 | 33 | 55 | 4.8 | 9.7 | 0.00 | 0.00 | 0.00 | 31 | 1015.9 |
| 20260902155906 | 33 | 55 | 4.8 | 12.9 | 0.00 | 0.00 | 0.00 | 31 | 1015.9 |
| 20260902155804 | 33 | 60 | 4.8 | 12.9 | 0.00 | 0.00 | 0.00 | 31 | 1015.9 |
| 20260902155725 | 33 | 63 | 4.8 | 12.9 | 0.00 | 0.00 | 0.00 | 31 | 1015.9 |
| 20260902155603 | 33 | 66 | 4.8 | 12.9 | 0.00 | 0.00 | 0.00 | 31 | 1015.9 |
| 20260902155503 | 33 | 75 | 4.8 | 12.9 | 0.00 | 0.00 | 0.00 | 31 | 1015.9 |
| 20260902155404 | 33 | 77 | 4.8 | 12.9 | 0.00 | 0.00 | 0.00 | 30 | 1015.9 |
| 20260902155306 | 33 | 79 | 4.8 | 12.9 | 0.00 | 0.00 | 0.00 | 31 | 1015.8 |
| 20260902155204 | 33 | 79 | 4.8 | 12.9 | 0.00 | 0.00 | 0.00 | 31 | 1015.9 |
| 20260902155127 | 33 | 80 | 4.8 | 12.9 | 0.00 | 0.00 | 0.00 | 31 | 1015.9 |
| 20260902155004 | 33 | 82 | 4.8 | 12.9 | 0.00 | 0.00 | 0.00 | 30 | 1015.9 |
| 20260902154904 | 33 | 86 | 4.8 | 12.9 | 0.00 | 0.00 | 0.00 | 30 | 1015.9 |
| 20260902154804 | 33 | 86 | 4.8 | 12.9 | 0.00 | 0.00 | 0.00 | 30 | 1015.9 |
| 20260902154704 | 33 | 85 | 4.8 | 12.9 | 0.00 | 0.00 | 0.00 | 30 | 1015.9 |
| 20260902154604 | 33 | 85 | 4.8 | 12.9 | 0.00 | 0.00 | 0.00 | 30 | 1015.9 |
| 20260902154504 | 33 | 86 | 4.8 | 9.7 | 0.00 | 0.00 | 0.00 | 29 | 1015.9 |
| 20260902154404 | 33 | 86 | 4.8 | 9.7 | 0.00 | 0.00 | 0.00 | 29 | 1015.9 |
| 20260902154304 | 33 | 85 | 4.8 | 9.7 | 0.00 | 0.00 | 0.00 | 29 | 1015.9 |
| 20260902154204 | 32 | 83 | 4.8 | 9.7 | 0.00 | 0.00 | 0.00 | 29 | 1015.9 |
| 20260902154104 | 32 | 81 | 4.8 | 9.7 | 0.00 | 0.00 | 0.00 | 29 | 1015.9 |
| 20260902154004 | 32 | 79 | 4.8 | 9.7 | 0.00 | 0.00 | 0.00 | 28 | 1015.8 |
| 20260902153904 | 32 | 77 | 4.8 | 9.7 | 0.00 | 0.00 | 0.00 | 28 | 1015.9 |
| 20260902153825 | 32 | 76 | 3.2 | 9.7 | 0.00 | 0.00 | 0.00 | 28 | 1016.0 |
| 20260902153725 | 32 | 75 | 3.2 | 9.7 | 0.00 | 0.00 | 0.00 | 28 | 1015.9 |
| 20260902153625 | 32 | 73 | 3.2 | 9.7 | 0.00 | 0.00 | 0.00 | 28 | 1015.9 |
| 20260902153504 | 32 | 68 | 3.2 | 9.7 | 0.00 | 0.00 | 0.00 | 27 | 1015.9 |
| 20260902153403 | 32 | 61 | 3.2 | 9.7 | 0.00 | 0.00 | 0.00 | 27 | 1015.9 |
| 20260902153304 | 32 | 57 | 3.2 | 9.7 | 0.00 | 0.00 | 0.00 | 26 | 1015.9 |
| 20260902153225 | 32 | 55 | 3.2 | 11.3 | 0.00 | 0.00 | 0.00 | 26 | 1015.9 |
| 20260902153103 | 32 | 56 | 3.2 | 11.3 | 0.00 | 0.00 | 0.00 | 25 | 1015.9 |
| 20260902153004 | 32 | 57 | 3.2 | 11.3 | 0.00 | 0.00 | 0.00 | 25 | 1015.9 |
| 20260902152904 | 32 | 59 | 3.2 | 11.3 | 0.00 | 0.00 | 0.00 | 25 | 1015.9 |
| 20260902152804 | 32 | 59 | 3.2 | 11.3 | 0.00 | 0.00 | 0.00 | 25 | 1015.9 |
| 20260902152704 | 32 | 59 | 4.8 | 11.3 | 0.00 | 0.00 | 0.00 | 25 | 1015.9 |
| 20260902152604 | 32 | 60 | 4.8 | 11.3 | 0.00 | 0.00 | 0.00 | 25 | 1016.0 |
| 20260902152503 | 32 | 61 | 4.8 | 11.3 | 0.00 | 0.00 | 0.00 | 25 | 1016.0 |
| 20260902152404 | 32 | 62 | 4.8 | 11.3 | 0.00 | 0.00 | 0.00 | 25 | 1016.0 |
| 20260902152307 | 32 | 66 | 4.8 | 11.3 | 0.00 | 0.00 | 0.00 | 25 | 1016.0 |
| 20260902152204 | 32 | 69 | 4.8 | 11.3 | 0.00 | 0.00 | 0.00 | 24 | 1016.0 |
| 20260902152104 | 31 | 70 | 4.8 | 11.3 | 0.00 | 0.00 | 0.00 | 25 | 1016.0 |
| 20260902152004 | 31 | 71 | 4.8 | 11.3 | 0.00 | 0.00 | 0.00 | 25 | 1016.0 |
| 20260902151904 | 31 | 72 | 4.8 | 11.3 | 0.00 | 0.00 | 0.00 | 24 | 1016.0 |
| 20260902151804 | 31 | 73 | 4.8 | 11.3 | 0.00 | 0.00 | 0.00 | 25 | 1016.0 |
| 20260902151725 | 31 | 73 | 4.8 | 11.3 | 0.00 | 0.00 | 0.00 | 25 | 1016.0 |
| 20260902151604 | 31 | 72 | 4.8 | 11.3 | 0.00 | 0.00 | 0.00 | 24 | 1016.0 |
| 20260902151503 | 31 | 70 | 4.8 | 11.3 | 0.00 | 0.00 | 0.00 | 24 | 1016.0 |
| 20260902151425 | 31 | 72 | 4.8 | 11.3 | 0.00 | 0.00 | 0.00 | 23 | 1016.0 |
| 20260902151304 | 31 | 70 | 4.8 | 9.7 | 0.00 | 0.00 | 0.00 | 22 | 1016.1 |
| 20260902151204 | 31 | 68 | 4.8 | 9.7 | 0.00 | 0.00 | 0.00 | 22 | 1016.0 |
| 20260902151104 | 31 | 66 | 4.8 | 9.7 | 0.00 | 0.00 | 0.00 | 22 | 1016.0 |
| 20260902151006 | 31 | 65 | 4.8 | 12.9 | 0.00 | 0.00 | 0.00 | 22 | 1016.1 |
| 20260902150904 | 31 | 62 | 4.8 | 12.9 | 0.00 | 0.00 | 0.00 | 21 | 1016.1 |
| 20260902150804 | 31 | 63 | 4.8 | 12.9 | 0.00 | 0.00 | 0.00 | 22 | 1016.1 |
| 20260902150704 | 31 | 67 | 4.8 | 12.9 | 0.00 | 0.00 | 0.00 | 22 | 1016.1 |
| 20260902150604 | 31 | 71 | 4.8 | 12.9 | 0.00 | 0.00 | 0.00 | 22 | 1016.1 |
| 20260902150504 | 31 | 73 | 4.8 | 12.9 | 0.00 | 0.00 | 0.00 | 21 | 1016.1 |
| 20260902150404 | 31 | 71 | 4.8 | 12.9 | 0.00 | 0.00 | 0.00 | 21 | 1016.1 |
| 20260902150304 | 31 | 70 | 4.8 | 12.9 | 0.00 | 0.00 | 0.00 | 21 | 1016.1 |
| 20260902150204 | 31 | 69 | 4.8 | 12.9 | 0.00 | 0.00 | 0.00 | 21 | 1016.0 |
| 20260902150104 | 31 | 66 | 4.8 | 12.9 | 0.00 | 0.00 | 0.00 | 20 | 1016.1 |
| 20260902150004 | 31 | 67 | 4.8 | 12.9 | 0.00 | 0.00 | 0.00 | 19 | 1016.1 |
| 20260902145904 | 31 | 70 | 4.8 | 12.9 | 0.00 | 0.00 | 0.00 | 19 | 1016.0 |
| 20260902145803 | 31 | 69 | 4.8 | 12.9 | 0.00 | 0.00 | 0.00 | 19 | 1016.0 |
| 20260902145704 | 31 | 65 | 4.8 | 12.9 | 0.00 | 0.00 | 0.00 | 19 | 1016.0 |
| 20260902145604 | 31 | 63 | 4.8 | 11.3 | 0.00 | 0.00 | 0.00 | 18 | 1015.9 |
| 20260902145504 | 31 | 63 | 6.4 | 12.9 | 0.00 | 0.00 | 0.00 | 17 | 1016.0 |
| 20260902145404 | 31 | 63 | 6.4 | 12.9 | 0.00 | 0.00 | 0.00 | 17 | 1016.0 |
| 20260902145325 | 31 | 64 | 6.4 | 12.9 | 0.00 | 0.00 | 0.00 | 17 | 1016.0 |
| 20260902145204 | 31 | 64 | 6.4 | 12.9 | 0.00 | 0.00 | 0.00 | 17 | 1016.0 |
| 20260902145103 | 31 | 67 | 6.4 | 12.9 | 0.00 | 0.00 | 0.00 | 15 | 1015.9 |
| 20260902145004 | 31 | 66 | 6.4 | 16.1 | 0.00 | 0.00 | 0.00 | 15 | 1016.0 |
| 20260902144904 | 30 | 64 | 8.0 | 16.1 | 0.00 | 0.00 | 0.00 | 15 | 1016.0 |
| 20260902144804 | 30 | 63 | 8.0 | 17.7 | 0.00 | 0.00 | 0.00 | 15 | 1015.9 |
| 20260902144725 | 30 | 62 | 8.0 | 17.7 | 0.00 | 0.00 | 0.00 | 15 | 1015.9 |
| 20260902144604 | 30 | 58 | 9.7 | 17.7 | 0.00 | 0.00 | 0.00 | 15 | 1015.9 |
| 20260902144503 | 30 | 56 | 8.0 | 17.7 | 0.00 | 0.00 | 0.00 | 15 | 1016.0 |
| 20260902144404 | 30 | 56 | 8.0 | 17.7 | 0.00 | 0.00 | 0.00 | 15 | 1015.9 |
| 20260902144304 | 30 | 55 | 8.0 | 17.7 | 0.00 | 0.00 | 0.00 | 15 | 1016.0 |
| 20260902144204 | 30 | 55 | 8.0 | 17.7 | 0.00 | 0.00 | 0.00 | 14 | 1016.0 |
| 20260902144104 | 30 | 53 | 8.0 | 17.7 | 0.00 | 0.00 | 0.00 | 14 | 1016.0 |
| 20260902144004 | 30 | 51 | 8.0 | 17.7 | 0.00 | 0.00 | 0.00 | 14 | 1016.0 |
| 20260902143904 | 30 | 50 | 8.0 | 17.7 | 0.00 | 0.00 | 0.00 | 14 | 1016.0 |
| 20260902143804 | 30 | 48 | 6.4 | 14.5 | 0.00 | 0.00 | 0.00 | 13 | 1016.0 |
| 20260902143704 | 30 | 49 | 6.4 | 14.5 | 0.00 | 0.00 | 0.00 | 13 | 1016.0 |
| 20260902143604 | 30 | 53 | 6.4 | 12.9 | 0.00 | 0.00 | 0.00 | 12 | 1016.0 |
| 20260902143504 | 30 | 54 | 6.4 | 12.9 | 0.00 | 0.00 | 0.00 | 11 | 1016.0 |
| 20260902143425 | 30 | 55 | 6.4 | 12.9 | 0.00 | 0.00 | 0.00 | 11 | 1016.0 |
| 20260902143304 | 30 | 56 | 6.4 | 14.5 | 0.00 | 0.00 | 0.00 | 9 | 1016.1 |
| 20260902143204 | 30 | 58 | 8.0 | 14.5 | 0.00 | 0.00 | 0.00 | 9 | 1016.1 |
| 20260902143104 | 30 | 57 | 8.0 | 17.7 | 0.00 | 0.00 | 0.00 | 10 | 1016.0 |
| 20260902143004 | 30 | 58 | 8.0 | 17.7 | 0.00 | 0.00 | 0.00 | 9 | 1016.1 |
| 20260902142904 | 30 | 60 | 8.0 | 17.7 | 0.00 | 0.00 | 0.00 | 8 | 1016.0 |
| 20260902142803 | 30 | 62 | 8.0 | 17.7 | 0.00 | 0.00 | 0.00 | 7 | 1016.0 |
| 20260902142725 | 30 | 63 | 8.0 | 17.7 | 0.00 | 0.00 | 0.00 | 7 | 1016.1 |
| 20260902142605 | 30 | 62 | 8.0 | 17.7 | 0.00 | 0.00 | 0.00 | 6 | 1016.1 |
| 20260902142504 | 30 | 64 | 8.0 | 17.7 | 0.00 | 0.00 | 0.00 | 5 | 1016.1 |
| 20260902142404 | 30 | 67 | 6.4 | 17.7 | 0.00 | 0.00 | 0.00 | 5 | 1016.0 |
| 20260902142306 | 30 | 70 | 6.4 | 17.7 | 0.00 | 0.00 | 0.00 | 5 | 1016.1 |
| 20260902142203 | 30 | 72 | 6.4 | 17.7 | 0.00 | 0.00 | 0.00 | 4 | 1016.1 |
| 20260902142104 | 30 | 74 | 6.4 | 12.9 | 0.00 | 0.00 | 0.00 | 4 | 1016.1 |
| 20260902142004 | 30 | 73 | 6.4 | 12.9 | 0.00 | 0.00 | 0.00 | 4 | 1016.1 |
| 20260902141904 | 30 | 70 | 6.4 | 12.9 | 0.00 | 0.00 | 0.00 | 3 | 1016.1 |
| 20260902141803 | 30 | 69 | 8.0 | 12.9 | 0.00 | 0.00 | 0.00 | 3 | 1016.1 |
| 20260902141703 | 30 | 68 | 6.4 | 12.9 | 0.00 | 0.00 | 0.00 | 1 | 1016.1 |
| 20260902141625 | 29 | 69 | 6.4 | 12.9 | 0.00 | 0.00 | 0.00 | 1 | 1016.1 |
| 20260902141504 | 29 | 66 | 6.4 | 12.9 | 0.00 | 0.00 | 0.00 | 1 | 1016.1 |
| 20260902141403 | 29 | 64 | 6.4 | 12.9 | 0.00 | 0.00 | 0.00 | 1 | 1016.1 |
| 20260902141304 | 29 | 62 | 6.4 | 12.9 | 0.00 | 0.00 | 0.00 | 1 | 1016.1 |
| 20260902141204 | 29 | 62 | 6.4 | 12.9 | 0.00 | 0.00 | 0.00 | 2 | 1016.1 |
| 20260902141104 | 29 | 63 | 6.4 | 12.9 | 0.00 | 0.00 | 0.00 | 1 | 1016.1 |
| 20260902141004 | 29 | 64 | 6.4 | 12.9 | 0.00 | 0.00 | 0.00 | 1 | 1016.1 |
| 20260902140904 | 29 | 68 | 6.4 | 12.9 | 0.00 | 0.00 | 0.00 | 1 | 1016.1 |
| 20260902140804 | 29 | 69 | 6.4 | 12.9 | 0.00 | 0.00 | 0.00 | 1 | 1016.1 |
| 20260902140704 | 29 | 71 | 6.4 | 12.9 | 0.00 | 0.00 | 0.00 | 1 | 1016.0 |
| 20260902140604 | 29 | 72 | 6.4 | 12.9 | 0.00 | 0.00 | 0.00 | 1 | 1016.1 |
| 20260902140506 | 29 | 73 | 6.4 | 12.9 | 0.00 | 0.00 | 0.00 | 1 | 1016.1 |
| 20260902140404 | 29 | 73 | 6.4 | 12.9 | 0.00 | 0.00 | 0.00 | 1 | 1016.1 |
| 20260902140304 | 28 | 73 | 6.4 | 12.9 | 0.00 | 0.00 | 0.00 | 1 | 1016.1 |
| 20260902140204 | 28 | 71 | 6.4 | 11.3 | 0.00 | 0.00 | 0.00 | 1 | 1016.1 |
| 20260902140104 | 28 | 68 | 4.8 | 11.3 | 0.00 | 0.00 | 0.00 | 1 | 1016.0 |
| 20260902140025 | 28 | 68 | 4.8 | 9.7 | 0.00 | 0.00 | 0.00 | 1 | 1016.0 |
| 20260902135903 | 28 | 66 | 4.8 | 9.7 | 0.00 | 0.00 | 0.00 | 1 | 1016.0 |
| 20260902135804 | 28 | 64 | 4.8 | 9.7 | 0.00 | 0.00 | 0.00 | 1 | 1016.0 |
| 20260902135704 | 28 | 61 | 4.8 | 11.3 | 0.00 | 0.00 | 0.00 | 1 | 1016.0 |
| 20260902135603 | 28 | 59 | 4.8 | 11.3 | 0.00 | 0.00 | 0.00 | 1 | 1016.0 |
| 20260902135525 | 28 | 58 | 4.8 | 11.3 | 0.00 | 0.00 | 0.00 | 1 | 1015.9 |
| 20260902135404 | 28 | 58 | 6.4 | 11.3 | 0.00 | 0.00 | 0.00 | 1 | 1016.0 |
| 20260902135306 | 28 | 59 | 6.4 | 12.9 | 0.00 | 0.00 | 0.00 | 1 | 1015.9 |
| 20260902135225 | 28 | 57 | 6.4 | 12.9 | 0.00 | 0.00 | 0.00 | 1 | 1015.9 |
| 20260902135125 | 28 | 57 | 4.8 | 12.9 | 0.00 | 0.00 | 0.00 | 1 | 1015.8 |
| 20260902135004 | 28 | 57 | 4.8 | 12.9 | 0.00 | 0.00 | 0.00 | 1 | 1015.8 |
| 20260902134903 | 28 | 57 | 4.8 | 12.9 | 0.00 | 0.00 | 0.00 | 1 | 1015.8 |
| 20260902134804 | 28 | 58 | 4.8 | 12.9 | 0.00 | 0.00 | 0.00 | 1 | 1015.8 |
| 20260902134704 | 28 | 58 | 4.8 | 12.9 | 0.00 | 0.00 | 0.00 | 1 | 1015.8 |
| 20260902134604 | 28 | 58 | 4.8 | 12.9 | 0.00 | 0.00 | 0.00 | 1 | 1015.8 |
| 20260902134504 | 28 | 61 | 4.8 | 12.9 | 0.00 | 0.00 | 0.00 | 1 | 1015.8 |
| 20260902134404 | 28 | 62 | 4.8 | 12.9 | 0.00 | 0.00 | 0.00 | 1 | 1015.8 |
| 20260902134304 | 28 | 61 | 4.8 | 9.7 | 0.00 | 0.00 | 0.00 | 1 | 1015.8 |
| 20260902134204 | 28 | 63 | 4.8 | 9.7 | 0.00 | 0.00 | 0.00 | 1 | 1015.8 |
| 20260902134104 | 28 | 64 | 4.8 | 9.7 | 0.00 | 0.00 | 0.00 | 1 | 1015.8 |
| 20260902134004 | 28 | 65 | 4.8 | 9.7 | 0.00 | 0.00 | 0.00 | 1 | 1015.8 |
| 20260902133904 | 28 | 67 | 6.4 | 9.7 | 0.00 | 0.00 | 0.00 | 1 | 1015.8 |
| 20260902133803 | 27 | 68 | 6.4 | 9.7 | 0.00 | 0.00 | 0.00 | 1 | 1015.8 |
| 20260902133725 | 27 | 70 | 6.4 | 9.7 | 0.00 | 0.00 | 0.00 | 1 | 1015.8 |
| 20260902133606 | 27 | 71 | 6.4 | 11.3 | 0.00 | 0.00 | 0.00 | 1 | 1015.8 |
| 20260902133504 | 27 | 71 | 6.4 | 11.3 | 0.00 | 0.00 | 0.00 | 1 | 1015.8 |
| 20260902133425 | 27 | 70 | 6.4 | 11.3 | 0.00 | 0.00 | 0.00 | 1 | 1015.8 |
| 20260902133327 | 27 | 68 | 6.4 | 11.3 | 0.00 | 0.00 | 0.00 | 1 | 1015.8 |
| 20260902133204 | 27 | 69 | 6.4 | 11.3 | 0.00 | 0.00 | 0.00 | 1 | 1015.8 |
| 20260902133105 | 27 | 69 | 4.8 | 11.3 | 0.00 | 0.00 | 0.00 | 1 | 1015.8 |
| 20260902133025 | 27 | 69 | 4.8 | 11.3 | 0.00 | 0.00 | 0.00 | 1 | 1015.8 |
| 20260902132904 | 27 | 67 | 4.8 | 11.3 | 0.00 | 0.00 | 0.00 | 1 | 1015.8 |
| 20260902132825 | 27 | 66 | 4.8 | 11.3 | 0.00 | 0.00 | 0.00 | 1 | 1015.8 |
| 20260902132704 | 27 | 65 | 4.8 | 11.3 | 0.00 | 0.00 | 0.00 | 1 | 1015.7 |
| 20260902132604 | 27 | 66 | 3.2 | 9.7 | 0.00 | 0.00 | 0.00 | 1 | 1015.8 |
| 20260902132504 | 27 | 66 | 3.2 | 9.7 | 0.00 | 0.00 | 0.00 | 1 | 1015.7 |
| 20260902132404 | 27 | 67 | 3.2 | 8.0 | 0.00 | 0.00 | 0.00 | 1 | 1015.7 |
| 20260902132325 | 27 | 67 | 3.2 | 6.4 | 0.00 | 0.00 | 0.00 | 1 | 1015.7 |
| 20260902132225 | 27 | 66 | 3.2 | 6.4 | 0.00 | 0.00 | 0.00 | 1 | 1015.7 |
| 20260902132104 | 27 | 66 | 3.2 | 6.4 | 0.00 | 0.00 | 0.00 | 1 | 1015.7 |
| 20260902132004 | 26 | 66 | 3.2 | 6.4 | 0.00 | 0.00 | 0.00 | 1 | 1015.7 |
| 20260902131904 | 26 | 66 | 3.2 | 6.4 | 0.00 | 0.00 | 0.00 | 1 | 1015.7 |
| 20260902131804 | 26 | 66 | 3.2 | 6.4 | 0.00 | 0.00 | 0.00 | 1 | 1015.7 |
| 20260902131704 | 26 | 66 | 3.2 | 6.4 | 0.00 | 0.00 | 0.00 | 1 | 1015.6 |
| 20260902131604 | 26 | 66 | 3.2 | 6.4 | 0.00 | 0.00 | 0.00 | 1 | 1015.7 |
| 20260902131503 | 26 | 65 | 3.2 | 6.4 | 0.00 | 0.00 | 0.00 | 1 | 1015.7 |
| 20260902131404 | 26 | 65 | 3.2 | 6.4 | 0.00 | 0.00 | 0.00 | 1 | 1015.7 |
| 20260902131304 | 26 | 65 | 3.2 | 6.4 | 0.00 | 0.00 | 0.00 | 1 | 1015.7 |
| 20260902131204 | 26 | 65 | 3.2 | 6.4 | 0.00 | 0.00 | 0.00 | 1 | 1015.7 |
| 20260902131104 | 26 | 65 | 3.2 | 6.4 | 0.00 | 0.00 | 0.00 | 1 | 1015.7 |
| 20260902131004 | 26 | 65 | 3.2 | 6.4 | 0.00 | 0.00 | 0.00 | 1 | 1015.7 |
| 20260902130904 | 26 | 65 | 3.2 | 6.4 | 0.00 | 0.00 | 0.00 | 1 | 1015.7 |
| 20260902130804 | 26 | 65 | 3.2 | 6.4 | 0.00 | 0.00 | 0.00 | 1 | 1015.7 |
| 20260902130704 | 26 | 65 | 3.2 | 8.0 | 0.00 | 0.00 | 0.00 | 1 | 1015.7 |
| 20260902130604 | 26 | 65 | 3.2 | 8.0 | 0.00 | 0.00 | 0.00 | 1 | 1015.6 |
| 20260902130503 | 26 | 65 | 3.2 | 8.0 | 0.00 | 0.00 | 0.00 | 1 | 1015.6 |
| 20260902130404 | 25 | 65 | 3.2 | 8.0 | 0.00 | 0.00 | 0.00 | 1 | 1015.6 |
| 20260902130304 | 25 | 65 | 3.2 | 8.0 | 0.00 | 0.00 | 0.00 | 1 | 1015.5 |
| 20260902130204 | 25 | 65 | 3.2 | 8.0 | 0.00 | 0.00 | 0.00 | 1 | 1015.5 |
| 20260902130104 | 25 | 65 | 4.8 | 8.0 | 0.00 | 0.00 | 0.00 | 1 | 1015.5 |
| 20260902130025 | 25 | 65 | 4.8 | 8.0 | 0.00 | 0.00 | 0.00 | 1 | 1015.6 |
| 20260902125904 | 25 | 65 | 4.8 | 8.0 | 0.00 | 0.00 | 0.00 | 1 | 1015.5 |
| 20260902125804 | 25 | 65 | 4.8 | 8.0 | 0.00 | 0.00 | 0.00 | 1 | 1015.5 |
| 20260902125703 | 25 | 65 | 4.8 | 6.4 | 0.00 | 0.00 | 0.00 | 1 | 1015.5 |
| 20260902125604 | 25 | 65 | 4.8 | 6.4 | 0.00 | 0.00 | 0.00 | 1 | 1015.5 |
| 20260902125504 | 25 | 66 | 4.8 | 6.4 | 0.00 | 0.00 | 0.00 | 1 | 1015.5 |
| 20260902125404 | 25 | 66 | 3.2 | 6.4 | 0.00 | 0.00 | 0.00 | 1 | 1015.5 |
| 20260902125305 | 25 | 66 | 3.2 | 6.4 | 0.00 | 0.00 | 0.00 | 1 | 1015.5 |
| 20260902125204 | 25 | 66 | 3.2 | 8.0 | 0.00 | 0.00 | 0.00 | 1 | 1015.4 |
| 20260902125104 | 25 | 66 | 3.2 | 8.0 | 0.00 | 0.00 | 0.00 | 1 | 1015.4 |
| 20260902125004 | 25 | 66 | 3.2 | 8.0 | 0.00 | 0.00 | 0.00 | 1 | 1015.4 |
| 20260902124904 | 25 | 66 | 3.2 | 8.0 | 0.00 | 0.00 | 0.00 | 1 | 1015.4 |
| 20260902124803 | 25 | 66 | 3.2 | 8.0 | 0.00 | 0.00 | 0.00 | 1 | 1015.4 |
| 20260902124725 | 25 | 66 | 3.2 | 8.0 | 0.00 | 0.00 | 0.00 | 1 | 1015.4 |
| 20260902124604 | 25 | 67 | 3.2 | 8.0 | 0.00 | 0.00 | 0.00 | 1 | 1015.4 |
| 20260902124524 | 25 | 67 | 3.2 | 8.0 | 0.00 | 0.00 | 0.00 | 1 | 1015.4 |
| 20260902124403 | 25 | 67 | 3.2 | 8.0 | 0.00 | 0.00 | 0.00 | 1 | 1015.4 |
| 20260902124304 | 25 | 67 | 4.8 | 8.0 | 0.00 | 0.00 | 0.00 | 1 | 1015.4 |
| 20260902124203 | 25 | 67 | 3.2 | 8.0 | 0.00 | 0.00 | 0.00 | 1 | 1015.4 |
| 20260902124104 | 25 | 67 | 3.2 | 8.0 | 0.00 | 0.00 | 0.00 | 1 | 1015.4 |
| 20260902124024 | 25 | 67 | 3.2 | 8.0 | 0.00 | 0.00 | 0.00 | 1 | 1015.4 |
| 20260902123925 | 25 | 67 | 3.2 | 8.0 | 0.00 | 0.00 | 0.00 | 1 | 1015.3 |
| 20260902123804 | 25 | 68 | 3.2 | 8.0 | 0.00 | 0.00 | 0.00 | 1 | 1015.3 |
| 20260902123725 | 25 | 68 | 3.2 | 6.4 | 0.00 | 0.00 | 0.00 | 1 | 1015.3 |
| 20260902123603 | 25 | 68 | 3.2 | 6.4 | 0.00 | 0.00 | 0.00 | 1 | 1015.3 |
| 20260902123504 | 25 | 68 | 3.2 | 6.4 | 0.00 | 0.00 | 0.00 | 1 | 1015.3 |
| 20260902123404 | 25 | 68 | 3.2 | 6.4 | 0.00 | 0.00 | 0.00 | 1 | 1015.3 |
| 20260902123325 | 25 | 68 | 1.6 | 6.4 | 0.00 | 0.00 | 0.00 | 1 | 1015.3 |
| 20260902123204 | 25 | 68 | 1.6 | 4.8 | 0.00 | 0.00 | 0.00 | 1 | 1015.3 |
| 20260902123104 | 25 | 68 | 1.6 | 4.8 | 0.00 | 0.00 | 0.00 | 1 | 1015.3 |
| 20260902123024 | 25 | 68 | 1.6 | 4.8 | 0.00 | 0.00 | 0.00 | 1 | 1015.3 |
| 20260902122904 | 25 | 68 | 1.6 | 4.8 | 0.00 | 0.00 | 0.00 | 1 | 1015.3 |
| 20260902122804 | 25 | 68 | 1.6 | 4.8 | 0.00 | 0.00 | 0.00 | 1 | 1015.3 |
| 20260902122725 | 25 | 68 | 1.6 | 4.8 | 0.00 | 0.00 | 0.00 | 1 | 1015.3 |
| 20260902122625 | 25 | 68 | 1.6 | 4.8 | 0.00 | 0.00 | 0.00 | 1 | 1015.3 |
| 20260902122504 | 25 | 68 | 1.6 | 3.2 | 0.00 | 0.00 | 0.00 | 1 | 1015.3 |
| 20260902122404 | 25 | 68 | 0.0 | 3.2 | 0.00 | 0.00 | 0.00 | 1 | 1015.2 |
| 20260902122325 | 25 | 68 | 0.0 | 3.2 | 0.00 | 0.00 | 0.00 | 1 | 1015.2 |
| 20260902122225 | 25 | 68 | 0.0 | 3.2 | 0.00 | 0.00 | 0.00 | 1 | 1015.2 |
| 20260902122124 | 25 | 68 | 0.0 | 3.2 | 0.00 | 0.00 | 0.00 | 1 | 1015.3 |
| 20260902122003 | 25 | 68 | 1.6 | 3.2 | 0.00 | 0.00 | 0.00 | 1 | 1015.3 |
| 20260902121924 | 25 | 68 | 1.6 | 3.2 | 0.00 | 0.00 | 0.00 | 1 | 1015.3 |
| 20260902121824 | 25 | 68 | 1.6 | 3.2 | 0.00 | 0.00 | 0.00 | 1 | 1015.3 |
| 20260902121704 | 25 | 68 | 1.6 | 3.2 | 0.00 | 0.00 | 0.00 | 1 | 1015.3 |
| 20260902121625 | 25 | 68 | 0.0 | 3.2 | 0.00 | 0.00 | 0.00 | 1 | 1015.2 |
| 20260902121525 | 25 | 68 | 0.0 | 3.2 | 0.00 | 0.00 | 0.00 | 1 | 1015.2 |
| 20260902121404 | 25 | 68 | 1.6 | 3.2 | 0.00 | 0.00 | 0.00 | 1 | 1015.2 |
| 20260902121304 | 25 | 68 | 1.6 | 3.2 | 0.00 | 0.00 | 0.00 | 1 | 1015.2 |
| 20260902121225 | 25 | 68 | 1.6 | 3.2 | 0.00 | 0.00 | 0.00 | 1 | 1015.2 |
| 20260902121104 | 25 | 68 | 1.6 | 3.2 | 0.00 | 0.00 | 0.00 | 1 | 1015.2 |
| 20260902121004 | 25 | 68 | 1.6 | 3.2 | 0.00 | 0.00 | 0.00 | 1 | 1015.2 |
| 20260902120904 | 25 | 68 | 1.6 | 3.2 | 0.00 | 0.00 | 0.00 | 1 | 1015.2 |
| 20260902120804 | 25 | 68 | 1.6 | 1.6 | 0.00 | 0.00 | 0.00 | 1 | 1015.2 |
| 20260902120725 | 25 | 68 | 1.6 | 3.2 | 0.00 | 0.00 | 0.00 | 1 | 1015.2 |
| 20260902120604 | 25 | 68 | 1.6 | 3.2 | 0.00 | 0.00 | 0.00 | 1 | 1015.2 |
| 20260902120503 | 25 | 68 | 1.6 | 3.2 | 0.00 | 0.00 | 0.00 | 1 | 1015.2 |
| 20260902120404 | 25 | 68 | 1.6 | 6.4 | 0.00 | 0.00 | 0.00 | 1 | 1015.2 |
| 20260902120304 | 25 | 68 | 1.6 | 6.4 | 0.00 | 0.00 | 0.00 | 1 | 1015.2 |
| 20260902120204 | 25 | 68 | 1.6 | 6.4 | 0.00 | 0.00 | 0.00 | 1 | 1015.2 |
| 20260902120104 | 25 | 68 | 1.6 | 6.4 | 0.00 | 0.00 | 0.00 | 1 | 1015.2 |
| 20260902120004 | 25 | 68 | 1.6 | 6.4 | 0.00 | 0.00 | 0.00 | 1 | 1015.2 |
| 20260902115903 | 25 | 68 | 1.6 | 6.4 | 0.00 | 0.00 | 0.00 | 1 | 1015.2 |
| 20260902115825 | 25 | 68 | 1.6 | 6.4 | 0.00 | 0.00 | 0.00 | 1 | 1015.2 |
| 20260902115703 | 25 | 68 | 1.6 | 6.4 | 0.00 | 0.00 | 0.00 | 1 | 1015.2 |
| 20260902115604 | 25 | 68 | 1.6 | 6.4 | 0.00 | 0.00 | 0.00 | 1 | 1015.2 |
| 20260902115503 | 25 | 68 | 1.6 | 6.4 | 0.00 | 0.00 | 0.00 | 1 | 1015.2 |
| 20260902115404 | 25 | 68 | 1.6 | 6.4 | 0.00 | 0.00 | 0.00 | 1 | 1015.1 |
| 20260902115324 | 25 | 68 | 1.6 | 3.2 | 0.00 | 0.00 | 0.00 | 1 | 1015.1 |
| 20260902115204 | 25 | 68 | 1.6 | 3.2 | 0.00 | 0.00 | 0.00 | 1 | 1015.1 |
| 20260902115104 | 25 | 68 | 1.6 | 3.2 | 0.00 | 0.00 | 0.00 | 1 | 1015.1 |
| 20260902115004 | 25 | 68 | 1.6 | 3.2 | 0.00 | 0.00 | 0.00 | 1 | 1015.1 |
| 20260902114925 | 25 | 68 | 1.6 | 3.2 | 0.00 | 0.00 | 0.00 | 1 | 1015.1 |
| 20260902114804 | 25 | 68 | 1.6 | 3.2 | 0.00 | 0.00 | 0.00 | 1 | 1015.1 |
| 20260902114703 | 25 | 68 | 1.6 | 3.2 | 0.00 | 0.00 | 0.00 | 1 | 1015.1 |
| 20260902114625 | 25 | 68 | 1.6 | 3.2 | 0.00 | 0.00 | 0.00 | 1 | 1015.1 |
| 20260902114504 | 25 | 68 | 1.6 | 3.2 | 0.00 | 0.00 | 0.00 | 1 | 1015.1 |
| 20260902114403 | 25 | 68 | 1.6 | 3.2 | 0.00 | 0.00 | 0.00 | 1 | 1015.1 |
| 20260902114303 | 26 | 68 | 1.6 | 3.2 | 0.00 | 0.00 | 0.00 | 1 | 1015.0 |
| 20260902114204 | 26 | 68 | 1.6 | 3.2 | 0.00 | 0.00 | 0.00 | 1 | 1015.1 |
| 20260902114104 | 26 | 68 | 1.6 | 3.2 | 0.00 | 0.00 | 0.00 | 1 | 1015.1 |
| 20260902114025 | 26 | 68 | 1.6 | 3.2 | 0.00 | 0.00 | 0.00 | 1 | 1015.1 |
| 20260902113925 | 26 | 68 | 1.6 | 3.2 | 0.00 | 0.00 | 0.00 | 1 | 1015.1 |
| 20260902113804 | 26 | 68 | 1.6 | 3.2 | 0.00 | 0.00 | 0.00 | 1 | 1015.0 |
| 20260902113703 | 26 | 68 | 1.6 | 3.2 | 0.00 | 0.00 | 0.00 | 1 | 1015.1 |
| 20260902113604 | 26 | 68 | 1.6 | 3.2 | 0.00 | 0.00 | 0.00 | 1 | 1015.1 |
| 20260902113504 | 26 | 68 | 0.0 | 3.2 | 0.00 | 0.00 | 0.00 | 1 | 1015.1 |
| 20260902113403 | 26 | 68 | 0.0 | 1.6 | 0.00 | 0.00 | 0.00 | 1 | 1015.1 |
| 20260902113304 | 26 | 68 | 0.0 | 1.6 | 0.00 | 0.00 | 0.00 | 1 | 1015.1 |
| 20260902113204 | 26 | 68 | 0.0 | 1.6 | 0.00 | 0.00 | 0.00 | 1 | 1015.1 |
| 20260902113103 | 26 | 68 | 0.0 | 1.6 | 0.00 | 0.00 | 0.00 | 1 | 1015.0 |
| 20260902113004 | 26 | 68 | 0.0 | 1.6 | 0.00 | 0.00 | 0.00 | 1 | 1015.0 |
| 20260902112904 | 26 | 68 | 0.0 | 1.6 | 0.00 | 0.00 | 0.00 | 1 | 1015.0 |
| 20260902112803 | 26 | 68 | 0.0 | 1.6 | 0.00 | 0.00 | 0.00 | 1 | 1015.0 |
| 20260902112725 | 26 | 68 | 0.0 | 1.6 | 0.00 | 0.00 | 0.00 | 1 | 1015.0 |
| 20260902112604 | 26 | 68 | 0.0 | 1.6 | 0.00 | 0.00 | 0.00 | 1 | 1015.0 |
| 20260902112503 | 26 | 68 | 0.0 | 3.2 | 0.00 | 0.00 | 0.00 | 1 | 1015.0 |
| 20260902112404 | 26 | 68 | 0.0 | 3.2 | 0.00 | 0.00 | 0.00 | 1 | 1015.0 |
| 20260902112305 | 26 | 68 | 1.6 | 3.2 | 0.00 | 0.00 | 0.00 | 1 | 1014.9 |
| 20260902112203 | 26 | 68 | 1.6 | 3.2 | 0.00 | 0.00 | 0.00 | 1 | 1014.9 |
| 20260902112103 | 26 | 68 | 1.6 | 4.8 | 0.00 | 0.00 | 0.00 | 1 | 1014.9 |
| 20260902112003 | 26 | 68 | 1.6 | 4.8 | 0.00 | 0.00 | 0.00 | 1 | 1014.9 |
| 20260902111924 | 26 | 68 | 1.6 | 4.8 | 0.00 | 0.00 | 0.00 | 1 | 1014.9 |
| 20260902111803 | 26 | 68 | 1.6 | 4.8 | 0.00 | 0.00 | 0.00 | 1 | 1014.9 |
| 20260902111704 | 26 | 68 | 1.6 | 4.8 | 0.00 | 0.00 | 0.00 | 1 | 1014.9 |
| 20260902111625 | 26 | 68 | 1.6 | 4.8 | 0.00 | 0.00 | 0.00 | 1 | 1014.9 |
| 20260902111503 | 26 | 68 | 1.6 | 4.8 | 0.00 | 0.00 | 0.00 | 1 | 1014.8 |
| 20260902111404 | 26 | 68 | 1.6 | 4.8 | 0.00 | 0.00 | 0.00 | 1 | 1014.9 |
| 20260902111303 | 26 | 68 | 1.6 | 4.8 | 0.00 | 0.00 | 0.00 | 1 | 1014.8 |
| 20260902111225 | 26 | 68 | 1.6 | 4.8 | 0.00 | 0.00 | 0.00 | 1 | 1014.8 |
| 20260902111104 | 26 | 68 | 1.6 | 4.8 | 0.00 | 0.00 | 0.00 | 1 | 1014.9 |
| 20260902111006 | 26 | 67 | 1.6 | 4.8 | 0.00 | 0.00 | 0.00 | 1 | 1014.8 |
| 20260902110904 | 26 | 67 | 1.6 | 4.8 | 0.00 | 0.00 | 0.00 | 1 | 1014.9 |
| 20260902110804 | 26 | 67 | 1.6 | 4.8 | 0.00 | 0.00 | 0.00 | 1 | 1014.9 |
| 20260902110704 | 26 | 67 | 1.6 | 4.8 | 0.00 | 0.00 | 0.00 | 1 | 1014.8 |
| 20260902110603 | 26 | 67 | 1.6 | 4.8 | 0.00 | 0.00 | 0.00 | 1 | 1014.8 |
| 20260902110504 | 26 | 67 | 1.6 | 4.8 | 0.00 | 0.00 | 0.00 | 1 | 1014.8 |
| 20260902110404 | 26 | 67 | 3.2 | 6.4 | 0.00 | 0.00 | 0.00 | 1 | 1014.8 |
| 20260902110304 | 26 | 67 | 3.2 | 6.4 | 0.00 | 0.00 | 0.00 | 1 | 1014.9 |
| 20260902110225 | 26 | 67 | 1.6 | 6.4 | 0.00 | 0.00 | 0.00 | 1 | 1014.8 |
| 20260902110124 | 26 | 67 | 1.6 | 6.4 | 0.00 | 0.00 | 0.00 | 1 | 1014.9 |
| 20260902110024 | 26 | 67 | 1.6 | 6.4 | 0.00 | 0.00 | 0.00 | 1 | 1014.8 |
| 20260902105903 | 26 | 67 | 3.2 | 6.4 | 0.00 | 0.00 | 0.00 | 1 | 1014.8 |
| 20260902105803 | 26 | 67 | 3.2 | 6.4 | 0.00 | 0.00 | 0.00 | 1 | 1014.8 |
| 20260902105704 | 26 | 67 | 3.2 | 6.4 | 0.00 | 0.00 | 0.00 | 1 | 1014.8 |
| 20260902105604 | 26 | 67 | 3.2 | 6.4 | 0.00 | 0.00 | 0.00 | 1 | 1014.8 |
| 20260902105504 | 26 | 67 | 3.2 | 6.4 | 0.00 | 0.00 | 0.00 | 1 | 1014.8 |
| 20260902105404 | 26 | 67 | 3.2 | 4.8 | 0.00 | 0.00 | 0.00 | 1 | 1014.9 |
| 20260902105306 | 26 | 67 | 3.2 | 4.8 | 0.00 | 0.00 | 0.00 | 1 | 1014.9 |
| 20260902105204 | 26 | 67 | 3.2 | 4.8 | 0.00 | 0.00 | 0.00 | 1 | 1014.9 |
| 20260902105104 | 26 | 67 | 3.2 | 4.8 | 0.00 | 0.00 | 0.00 | 1 | 1014.9 |
| 20260902105004 | 26 | 67 | 3.2 | 4.8 | 0.00 | 0.00 | 0.00 | 1 | 1014.9 |
| 20260902104904 | 26 | 67 | 3.2 | 4.8 | 0.00 | 0.00 | 0.00 | 1 | 1014.9 |
| 20260902104804 | 26 | 67 | 3.2 | 4.8 | 0.00 | 0.00 | 0.00 | 1 | 1014.9 |
| 20260902104704 | 26 | 67 | 3.2 | 4.8 | 0.00 | 0.00 | 0.00 | 1 | 1014.9 |
| 20260902104603 | 26 | 67 | 3.2 | 4.8 | 0.00 | 0.00 | 0.00 | 1 | 1014.9 |
| 20260902104504 | 26 | 66 | 3.2 | 6.4 | 0.00 | 0.00 | 0.00 | 1 | 1014.9 |
| 20260902104425 | 26 | 66 | 3.2 | 6.4 | 0.00 | 0.00 | 0.00 | 1 | 1014.9 |
| 20260902104304 | 26 | 66 | 3.2 | 6.4 | 0.00 | 0.00 | 0.00 | 1 | 1014.9 |
| 20260902104203 | 26 | 66 | 3.2 | 6.4 | 0.00 | 0.00 | 0.00 | 1 | 1014.9 |
| 20260902104125 | 26 | 66 | 3.2 | 6.4 | 0.00 | 0.00 | 0.00 | 1 | 1014.9 |
| 20260902104024 | 26 | 66 | 3.2 | 6.4 | 0.00 | 0.00 | 0.00 | 1 | 1014.9 |
| 20260902103903 | 26 | 65 | 3.2 | 6.4 | 0.00 | 0.00 | 0.00 | 1 | 1014.9 |
| 20260902103803 | 26 | 65 | 3.2 | 6.4 | 0.00 | 0.00 | 0.00 | 1 | 1014.9 |
| 20260902103703 | 26 | 65 | 3.2 | 6.4 | 0.00 | 0.00 | 0.00 | 1 | 1015.0 |
| 20260902103603 | 26 | 65 | 3.2 | 6.4 | 0.00 | 0.00 | 0.00 | 1 | 1014.9 |
| 20260902103525 | 26 | 65 | 3.2 | 4.8 | 0.00 | 0.00 | 0.00 | 1 | 1014.9 |
| 20260902103404 | 26 | 64 | 3.2 | 4.8 | 0.00 | 0.00 | 0.00 | 1 | 1014.9 |
| 20260902103303 | 26 | 64 | 3.2 | 4.8 | 0.00 | 0.00 | 0.00 | 1 | 1015.0 |
| 20260902103204 | 26 | 64 | 3.2 | 4.8 | 0.00 | 0.00 | 0.00 | 1 | 1014.9 |
| 20260902103125 | 26 | 64 | 3.2 | 6.4 | 0.00 | 0.00 | 0.00 | 1 | 1014.9 |
| 20260902103003 | 26 | 64 | 3.2 | 6.4 | 0.00 | 0.00 | 0.00 | 1 | 1014.9 |
| 20260902102903 | 26 | 63 | 3.2 | 6.4 | 0.00 | 0.00 | 0.00 | 1 | 1014.9 |
| 20260902102803 | 26 | 63 | 3.2 | 6.4 | 0.00 | 0.00 | 0.00 | 1 | 1014.9 |
| 20260902102703 | 26 | 63 | 3.2 | 6.4 | 0.00 | 0.00 | 0.00 | 1 | 1014.9 |
| 20260902102604 | 26 | 63 | 3.2 | 6.4 | 0.00 | 0.00 | 0.00 | 1 | 1014.9 |
| 20260902102504 | 26 | 62 | 3.2 | 6.4 | 0.00 | 0.00 | 0.00 | 1 | 1014.8 |
| 20260902102403 | 26 | 62 | 3.2 | 6.4 | 0.00 | 0.00 | 0.00 | 1 | 1014.9 |
| 20260902102307 | 26 | 62 | 3.2 | 6.4 | 0.00 | 0.00 | 0.00 | 1 | 1014.9 |
| 20260902102204 | 26 | 62 | 3.2 | 6.4 | 0.00 | 0.00 | 0.00 | 1 | 1014.9 |
| 20260902102124 | 26 | 62 | 3.2 | 4.8 | 0.00 | 0.00 | 0.00 | 1 | 1014.9 |
| 20260902102024 | 26 | 61 | 3.2 | 4.8 | 0.00 | 0.00 | 0.00 | 1 | 1014.9 |
| 20260902101903 | 26 | 61 | 3.2 | 4.8 | 0.00 | 0.00 | 0.00 | 1 | 1014.9 |
| 20260902101804 | 26 | 61 | 3.2 | 4.8 | 0.00 | 0.00 | 0.00 | 1 | 1014.9 |
| 20260902101725 | 26 | 61 | 3.2 | 4.8 | 0.00 | 0.00 | 0.00 | 1 | 1014.9 |
| 20260902101603 | 26 | 61 | 3.2 | 4.8 | 0.00 | 0.00 | 0.00 | 1 | 1014.9 |
| 20260902101503 | 26 | 61 | 3.2 | 4.8 | 0.00 | 0.00 | 0.00 | 1 | 1014.8 |
| 20260902101403 | 26 | 61 | 3.2 | 4.8 | 0.00 | 0.00 | 0.00 | 1 | 1014.9 |
| 20260902101325 | 26 | 61 | 3.2 | 4.8 | 0.00 | 0.00 | 0.00 | 1 | 1014.9 |
| 20260902101203 | 26 | 61 | 3.2 | 4.8 | 0.00 | 0.00 | 0.00 | 1 | 1014.9 |
| 20260902101104 | 26 | 61 | 3.2 | 4.8 | 0.00 | 0.00 | 0.00 | 1 | 1014.9 |
| 20260902101004 | 26 | 61 | 3.2 | 4.8 | 0.00 | 0.00 | 0.00 | 1 | 1014.9 |
| 20260902100904 | 26 | 61 | 1.6 | 4.8 | 0.00 | 0.00 | 0.00 | 1 | 1014.9 |
| 20260902100804 | 26 | 61 | 1.6 | 4.8 | 0.00 | 0.00 | 0.00 | 1 | 1014.9 |
| 20260902100703 | 26 | 61 | 1.6 | 3.2 | 0.00 | 0.00 | 0.00 | 1 | 1014.9 |
| 20260902100603 | 26 | 61 | 1.6 | 3.2 | 0.00 | 0.00 | 0.00 | 1 | 1014.9 |
| 20260902100503 | 26 | 61 | 1.6 | 3.2 | 0.00 | 0.00 | 0.00 | 1 | 1014.9 |
| 20260902100403 | 26 | 61 | 1.6 | 3.2 | 0.00 | 0.00 | 0.00 | 1 | 1014.9 |
| 20260902100304 | 26 | 61 | 0.0 | 3.2 | 0.00 | 0.00 | 0.00 | 1 | 1014.9 |
| 20260902100203 | 26 | 61 | 0.0 | 3.2 | 0.00 | 0.00 | 0.00 | 1 | 1014.9 |
| 20260902100106 | 26 | 61 | 0.0 | 1.6 | 0.00 | 0.00 | 0.00 | 1 | 1015.0 |
| 20260902100004 | 26 | 61 | 0.0 | 1.6 | 0.00 | 0.00 | 0.00 | 1 | 1014.9 |
| 20260902095904 | 26 | 61 | 0.0 | 1.6 | 0.00 | 0.00 | 0.00 | 1 | 1014.9 |
| 20260902095804 | 26 | 60 | 0.0 | 1.6 | 0.00 | 0.00 | 0.00 | 1 | 1015.0 |
| 20260902095704 | 26 | 60 | 0.0 | 1.6 | 0.00 | 0.00 | 0.00 | 1 | 1014.9 |
| 20260902095604 | 26 | 60 | 0.0 | 1.6 | 0.00 | 0.00 | 0.00 | 1 | 1014.9 |
| 20260902095524 | 26 | 60 | 0.0 | 1.6 | 0.00 | 0.00 | 0.00 | 1 | 1014.9 |
| 20260902095403 | 26 | 60 | 0.0 | 1.6 | 0.00 | 0.00 | 0.00 | 1 | 1015.0 |
| 20260902095306 | 26 | 60 | 0.0 | 1.6 | 0.00 | 0.00 | 0.00 | 1 | 1014.9 |
| 20260902095204 | 26 | 60 | 0.0 | 1.6 | 0.00 | 0.00 | 0.00 | 1 | 1014.9 |
| 20260902095104 | 26 | 61 | 0.0 | 3.2 | 0.00 | 0.00 | 0.00 | 1 | 1014.9 |
| 20260902095003 | 26 | 61 | 0.0 | 3.2 | 0.00 | 0.00 | 0.00 | 1 | 1014.9 |
| 20260902094903 | 26 | 61 | 0.0 | 3.2 | 0.00 | 0.00 | 0.00 | 1 | 1014.9 |
| 20260902094803 | 26 | 61 | 0.0 | 3.2 | 0.00 | 0.00 | 0.00 | 1 | 1014.9 |
| 20260902094704 | 26 | 60 | 1.6 | 3.2 | 0.00 | 0.00 | 0.00 | 1 | 1014.9 |
| 20260902094603 | 26 | 60 | 1.6 | 6.4 | 0.00 | 0.00 | 0.00 | 1 | 1015.0 |
| 20260902094525 | 26 | 60 | 1.6 | 6.4 | 0.00 | 0.00 | 0.00 | 1 | 1014.9 |
| 20260902094403 | 26 | 60 | 1.6 | 6.4 | 0.00 | 0.00 | 0.00 | 1 | 1014.9 |
| 20260902094303 | 26 | 60 | 1.6 | 6.4 | 0.00 | 0.00 | 0.00 | 1 | 1014.9 |
| 20260902094204 | 26 | 60 | 1.6 | 6.4 | 0.00 | 0.00 | 0.00 | 1 | 1014.9 |
| 20260902094104 | 26 | 60 | 1.6 | 6.4 | 0.00 | 0.00 | 0.00 | 1 | 1014.9 |
| 20260902094004 | 26 | 60 | 3.2 | 6.4 | 0.00 | 0.00 | 0.00 | 1 | 1014.9 |
| 20260902093904 | 26 | 59 | 3.2 | 8.0 | 0.00 | 0.00 | 0.00 | 1 | 1014.9 |
| 20260902093803 | 26 | 59 | 3.2 | 8.0 | 0.00 | 0.00 | 0.00 | 1 | 1014.9 |
| 20260902093703 | 26 | 59 | 3.2 | 8.0 | 0.00 | 0.00 | 0.00 | 1 | 1014.8 |
| 20260902093604 | 26 | 58 | 3.2 | 8.0 | 0.00 | 0.00 | 0.00 | 1 | 1014.9 |
| 20260902093503 | 26 | 58 | 3.2 | 8.0 | 0.00 | 0.00 | 0.00 | 1 | 1014.9 |
| 20260902093404 | 26 | 58 | 3.2 | 8.0 | 0.00 | 0.00 | 0.00 | 1 | 1014.9 |
| 20260902093304 | 26 | 57 | 4.8 | 8.0 | 0.00 | 0.00 | 0.00 | 1 | 1014.9 |
| 20260902093203 | 26 | 57 | 4.8 | 8.0 | 0.00 | 0.00 | 0.00 | 1 | 1014.8 |
| 20260902093104 | 26 | 58 | 4.8 | 8.0 | 0.00 | 0.00 | 0.00 | 1 | 1014.9 |
| 20260902093004 | 26 | 54 | 4.8 | 9.7 | 0.00 | 0.00 | 0.00 | 1 | 1014.9 |
| 20260902092904 | 26 | 50 | 4.8 | 9.7 | 0.00 | 0.00 | 0.00 | 1 | 1014.9 |
| 20260902092803 | 26 | 45 | 4.8 | 9.7 | 0.00 | 0.00 | 0.00 | 1 | 1014.9 |
| 20260902092703 | 26 | 35 | 4.8 | 9.7 | 0.00 | 0.00 | 0.00 | 1 | 1014.9 |
| 20260902092625 | 26 | 31 | 4.8 | 9.7 | 0.00 | 0.00 | 0.00 | 1 | 1014.9 |
| 20260902092503 | 26 | 19 | 4.8 | 9.7 | 0.00 | 0.00 | 0.00 | 1 | 1014.9 |
| 20260902092403 | 26 | 6 | 4.8 | 9.7 | 0.00 | 0.00 | 0.00 | 1 | 1014.8 |
| 20260902092305 | 26 | 346 | 3.2 | 9.7 | 0.00 | 0.00 | 0.00 | 1 | 1014.8 |
| 20260902092203 | 27 | 329 | 3.2 | 9.7 | 0.00 | 0.00 | 0.00 | 1 | 1014.9 |
| 20260902092127 | 27 | 319 | 3.2 | 9.7 | 0.00 | 0.00 | 0.00 | 1 | 1014.8 |
| 20260902092004 | 27 | 307 | 3.2 | 6.4 | 0.00 | 0.00 | 0.00 | 1 | 1014.8 |
| 20260902091904 | 27 | 307 | 3.2 | 6.4 | 0.00 | 0.00 | 0.00 | 1 | 1014.8 |
| 20260902091803 | 27 | 306 | 3.2 | 6.4 | 0.00 | 0.00 | 0.00 | 1 | 1014.9 |
| 20260902091703 | 27 | 305 | 3.2 | 6.4 | 0.00 | 0.00 | 0.00 | 1 | 1014.8 |
| 20260902091604 | 27 | 305 | 3.2 | 6.4 | 0.00 | 0.00 | 0.00 | 1 | 1014.9 |
| 20260902091503 | 27 | 304 | 3.2 | 6.4 | 0.00 | 0.00 | 0.00 | 1 | 1014.9 |
| 20260902091403 | 27 | 304 | 3.2 | 6.4 | 0.00 | 0.00 | 0.00 | 1 | 1014.9 |
| 20260902091304 | 27 | 303 | 3.2 | 6.4 | 0.00 | 0.00 | 0.00 | 1 | 1014.9 |
| 20260902091225 | 27 | 303 | 3.2 | 6.4 | 0.00 | 0.00 | 0.00 | 1 | 1014.9 |
| 20260902091104 | 27 | 302 | 3.2 | 6.4 | 0.00 | 0.00 | 0.00 | 1 | 1014.9 |
| 20260902091003 | 27 | 301 | 3.2 | 6.4 | 0.00 | 0.00 | 0.00 | 1 | 1014.9 |
| 20260902090903 | 27 | 300 | 3.2 | 6.4 | 0.00 | 0.00 | 0.00 | 1 | 1014.9 |
| 20260902090804 | 27 | 300 | 3.2 | 6.4 | 0.00 | 0.00 | 0.00 | 1 | 1014.9 |
| 20260902090703 | 27 | 300 | 3.2 | 6.4 | 0.00 | 0.00 | 0.00 | 1 | 1014.9 |
| 20260902090603 | 27 | 300 | 3.2 | 6.4 | 0.00 | 0.00 | 0.00 | 1 | 1014.9 |
| 20260902090525 | 27 | 300 | 3.2 | 6.4 | 0.00 | 0.00 | 0.00 | 1 | 1015.0 |
| 20260902090403 | 26 | 300 | 1.6 | 6.4 | 0.00 | 0.00 | 0.00 | 1 | 1014.9 |
| 20260902090304 | 26 | 300 | 1.6 | 6.4 | 0.00 | 0.00 | 0.00 | 1 | 1015.0 |
| 20260902090203 | 26 | 300 | 1.6 | 4.8 | 0.00 | 0.00 | 0.00 | 1 | 1014.9 |
| 20260902090104 | 26 | 300 | 1.6 | 4.8 | 0.00 | 0.00 | 0.00 | 1 | 1015.0 |
| 20260902090004 | 26 | 300 | 1.6 | 4.8 | 0.00 | 0.00 | 0.00 | 1 | 1015.0 |
| 20260902085904 | 26 | 300 | 1.6 | 4.8 | 0.00 | 0.00 | 0.00 | 1 | 1015.0 |
| 20260902085804 | 26 | 300 | 1.6 | 4.8 | 0.00 | 0.00 | 0.00 | 1 | 1015.0 |
| 20260902085725 | 26 | 300 | 0.0 | 3.2 | 0.00 | 0.00 | 0.00 | 1 | 1015.0 |
| 20260902085603 | 26 | 300 | 0.0 | 3.2 | 0.00 | 0.00 | 0.00 | 1 | 1015.0 |
| 20260902085503 | 26 | 300 | 0.0 | 3.2 | 0.00 | 0.00 | 0.00 | 1 | 1015.0 |
| 20260902085403 | 26 | 300 | 0.0 | 1.6 | 0.00 | 0.00 | 0.00 | 1 | 1015.0 |
| 20260902085306 | 26 | 300 | 0.0 | 1.6 | 0.00 | 0.00 | 0.00 | 1 | 1015.0 |
| 20260902085224 | 26 | 300 | 0.0 | 1.6 | 0.00 | 0.00 | 0.00 | 1 | 1015.0 |
| 20260902085104 | 26 | 300 | 0.0 | 1.6 | 0.00 | 0.00 | 0.00 | 1 | 1015.0 |
| 20260902085003 | 26 | 300 | 0.0 | 1.6 | 0.00 | 0.00 | 0.00 | 1 | 1015.0 |
| 20260902084903 | 26 | 300 | 0.0 | 1.6 | 0.00 | 0.00 | 0.00 | 1 | 1015.1 |
| 20260902084803 | 26 | 300 | 0.0 | 3.2 | 0.00 | 0.00 | 0.00 | 1 | 1015.1 |
| 20260902084703 | 26 | 300 | 0.0 | 3.2 | 0.00 | 0.00 | 0.00 | 1 | 1015.1 |
| 20260902084603 | 26 | 300 | 0.0 | 3.2 | 0.00 | 0.00 | 0.00 | 1 | 1015.1 |
| 20260902084503 | 26 | 300 | 0.0 | 3.2 | 0.00 | 0.00 | 0.00 | 1 | 1015.0 |
| 20260902084403 | 26 | 300 | 0.0 | 3.2 | 0.00 | 0.00 | 0.00 | 1 | 1015.0 |
| 20260902084324 | 26 | 300 | 0.0 | 3.2 | 0.00 | 0.00 | 0.00 | 1 | 1015.0 |
| 20260902084203 | 26 | 300 | 0.0 | 3.2 | 0.00 | 0.00 | 0.00 | 1 | 1015.1 |
| 20260902084104 | 26 | 300 | 0.0 | 3.2 | 0.00 | 0.00 | 0.00 | 1 | 1015.0 |
| 20260902084003 | 26 | 300 | 0.0 | 3.2 | 0.00 | 0.00 | 0.00 | 1 | 1015.1 |
| 20260902083904 | 26 | 300 | 0.0 | 3.2 | 0.00 | 0.00 | 0.00 | 1 | 1015.1 |
| 20260902083825 | 26 | 300 | 1.6 | 3.2 | 0.00 | 0.00 | 0.00 | 1 | 1015.0 |
| 20260902083703 | 26 | 300 | 1.6 | 3.2 | 0.00 | 0.00 | 0.00 | 1 | 1015.0 |
| 20260902083604 | 26 | 300 | 1.6 | 3.2 | 0.00 | 0.00 | 0.00 | 1 | 1015.0 |
| 20260902083503 | 26 | 300 | 0.0 | 3.2 | 0.00 | 0.00 | 0.00 | 1 | 1015.0 |
| 20260902083403 | 26 | 300 | 1.6 | 3.2 | 0.00 | 0.00 | 0.00 | 1 | 1015.0 |
| 20260902083304 | 26 | 300 | 1.6 | 3.2 | 0.00 | 0.00 | 0.00 | 1 | 1015.0 |
| 20260902083203 | 26 | 300 | 1.6 | 3.2 | 0.00 | 0.00 | 0.00 | 1 | 1014.9 |
| 20260902083103 | 26 | 300 | 1.6 | 3.2 | 0.00 | 0.00 | 0.00 | 1 | 1015.0 |
| 20260902083004 | 26 | 300 | 1.6 | 3.2 | 0.00 | 0.00 | 0.00 | 1 | 1014.9 |
| 20260902082904 | 26 | 300 | 1.6 | 3.2 | 0.00 | 0.00 | 0.00 | 1 | 1015.0 |
| 20260902082803 | 26 | 300 | 1.6 | 4.8 | 0.00 | 0.00 | 0.00 | 1 | 1014.9 |
| 20260902082703 | 26 | 300 | 1.6 | 4.8 | 0.00 | 0.00 | 0.00 | 1 | 1015.0 |
| 20260902082603 | 26 | 300 | 1.6 | 4.8 | 0.00 | 0.00 | 0.00 | 1 | 1015.0 |
| 20260902082503 | 26 | 300 | 1.6 | 4.8 | 0.00 | 0.00 | 0.00 | 1 | 1015.0 |
| 20260902082403 | 26 | 300 | 1.6 | 4.8 | 0.00 | 0.00 | 0.00 | 1 | 1015.0 |
| 20260902082309 | 26 | 300 | 1.6 | 4.8 | 0.00 | 0.00 | 0.00 | 1 | 1015.0 |
| 20260902082203 | 26 | 300 | 1.6 | 4.8 | 0.00 | 0.00 | 0.00 | 1 | 1015.0 |
| 20260902082103 | 26 | 300 | 1.6 | 4.8 | 0.00 | 0.00 | 0.00 | 1 | 1015.0 |
| 20260902082004 | 26 | 300 | 1.6 | 4.8 | 0.00 | 0.00 | 0.00 | 1 | 1015.0 |
| 20260902081904 | 26 | 300 | 1.6 | 4.8 | 0.00 | 0.00 | 0.00 | 1 | 1015.0 |
| 20260902081825 | 26 | 300 | 1.6 | 4.8 | 0.00 | 0.00 | 0.00 | 1 | 1015.0 |
| 20260902081725 | 26 | 300 | 1.6 | 4.8 | 0.00 | 0.00 | 0.00 | 1 | 1015.1 |
| 20260902081603 | 26 | 300 | 1.6 | 4.8 | 0.00 | 0.00 | 0.00 | 1 | 1015.1 |
| 20260902081504 | 26 | 300 | 1.6 | 4.8 | 0.00 | 0.00 | 0.00 | 1 | 1015.0 |
| 20260902081404 | 26 | 300 | 1.6 | 3.2 | 0.00 | 0.00 | 0.00 | 1 | 1015.1 |
| 20260902081303 | 26 | 300 | 1.6 | 3.2 | 0.00 | 0.00 | 0.00 | 1 | 1015.1 |
| 20260902081204 | 26 | 300 | 1.6 | 3.2 | 0.00 | 0.00 | 0.00 | 1 | 1015.2 |
| 20260902081104 | 26 | 300 | 1.6 | 4.8 | 0.00 | 0.00 | 0.00 | 1 | 1015.2 |
| 20260902081004 | 26 | 300 | 1.6 | 4.8 | 0.00 | 0.00 | 0.00 | 1 | 1015.2 |
| 20260902080903 | 26 | 299 | 1.6 | 4.8 | 0.00 | 0.00 | 0.00 | 1 | 1015.2 |
| 20260902080804 | 26 | 299 | 1.6 | 4.8 | 0.00 | 0.00 | 0.00 | 1 | 1015.2 |
| 20260902080703 | 26 | 299 | 1.6 | 4.8 | 0.00 | 0.00 | 0.00 | 1 | 1015.2 |
| 20260902080603 | 26 | 299 | 1.6 | 4.8 | 0.00 | 0.00 | 0.00 | 1 | 1015.2 |
| 20260902080503 | 26 | 298 | 1.6 | 4.8 | 0.00 | 0.00 | 0.00 | 1 | 1015.2 |
| 20260902080403 | 26 | 298 | 1.6 | 4.8 | 0.00 | 0.00 | 0.00 | 1 | 1015.2 |
| 20260902080303 | 26 | 298 | 1.6 | 4.8 | 0.00 | 0.00 | 0.00 | 1 | 1015.2 |
| 20260902080204 | 26 | 298 | 1.6 | 4.8 | 0.00 | 0.00 | 0.00 | 1 | 1015.3 |
| 20260902080104 | 26 | 297 | 0.0 | 3.2 | 0.00 | 0.00 | 0.00 | 1 | 1015.3 |
| 20260902080027 | 26 | 297 | 0.0 | 3.2 | 0.00 | 0.00 | 0.00 | 1 | 1015.3 |
| 20260902075903 | 26 | 297 | 0.0 | 3.2 | 0.00 | 0.00 | 0.00 | 1 | 1015.3 |
| 20260902075803 | 26 | 297 | 0.0 | 3.2 | 0.00 | 0.00 | 0.00 | 1 | 1015.3 |
| 20260902075703 | 26 | 298 | 0.0 | 1.6 | 0.00 | 0.00 | 0.00 | 1 | 1015.3 |
| 20260902075603 | 26 | 298 | 0.0 | 1.6 | 0.00 | 0.00 | 0.00 | 1 | 1015.3 |
| 20260902075503 | 26 | 298 | 0.0 | 1.6 | 0.00 | 0.00 | 0.00 | 1 | 1015.3 |
| 20260902075403 | 26 | 298 | 0.0 | 1.6 | 0.00 | 0.00 | 0.00 | 1 | 1015.3 |
| 20260902075306 | 26 | 298 | 0.0 | 1.6 | 0.00 | 0.00 | 0.00 | 1 | 1015.3 |
| 20260902075203 | 26 | 298 | 0.0 | 1.6 | 0.00 | 0.00 | 0.00 | 1 | 1015.3 |
| 20260902075103 | 26 | 298 | 0.0 | 1.6 | 0.00 | 0.00 | 0.00 | 1 | 1015.3 |
| 20260902075003 | 26 | 298 | 0.0 | 1.6 | 0.00 | 0.00 | 0.00 | 1 | 1015.3 |
| 20260902074903 | 26 | 298 | 1.6 | 3.2 | 0.00 | 0.00 | 0.00 | 1 | 1015.3 |
| 20260902074803 | 26 | 298 | 1.6 | 3.2 | 0.00 | 0.00 | 0.00 | 1 | 1015.3 |
| 20260902074724 | 27 | 298 | 0.0 | 3.2 | 0.00 | 0.00 | 0.00 | 1 | 1015.3 |
| 20260902074603 | 27 | 298 | 0.0 | 3.2 | 0.00 | 0.00 | 0.00 | 1 | 1015.4 |
| 20260902074503 | 27 | 298 | 0.0 | 3.2 | 0.00 | 0.00 | 0.00 | 1 | 1015.4 |
| 20260902074403 | 27 | 298 | 1.6 | 3.2 | 0.00 | 0.00 | 0.00 | 1 | 1015.4 |
| 20260902074304 | 27 | 298 | 1.6 | 3.2 | 0.00 | 0.00 | 0.00 | 1 | 1015.4 |
| 20260902074203 | 27 | 298 | 1.6 | 3.2 | 0.00 | 0.00 | 0.00 | 1 | 1015.4 |
| 20260902074104 | 27 | 298 | 1.6 | 3.2 | 0.00 | 0.00 | 0.00 | 1 | 1015.4 |
| 20260902074003 | 27 | 298 | 1.6 | 3.2 | 0.00 | 0.00 | 0.00 | 1 | 1015.4 |
| 20260902073924 | 27 | 298 | 1.6 | 3.2 | 0.00 | 0.00 | 0.00 | 1 | 1015.4 |
| 20260902073804 | 27 | 298 | 1.6 | 3.2 | 0.00 | 0.00 | 0.00 | 1 | 1015.3 |
| 20260902073704 | 27 | 298 | 1.6 | 3.2 | 0.00 | 0.00 | 0.00 | 1 | 1015.4 |
| 20260902073604 | 27 | 298 | 1.6 | 3.2 | 0.00 | 0.00 | 0.00 | 1 | 1015.4 |
| 20260902073503 | 27 | 298 | 1.6 | 3.2 | 0.00 | 0.00 | 0.00 | 1 | 1015.5 |
| 20260902073424 | 27 | 298 | 1.6 | 3.2 | 0.00 | 0.00 | 0.00 | 1 | 1015.4 |
| 20260902073324 | 27 | 298 | 1.6 | 3.2 | 0.00 | 0.00 | 0.00 | 1 | 1015.4 |
| 20260902073203 | 27 | 298 | 1.6 | 3.2 | 0.00 | 0.00 | 0.00 | 1 | 1015.4 |
| 20260902073104 | 27 | 298 | 0.0 | 3.2 | 0.00 | 0.00 | 0.00 | 1 | 1015.4 |
| 20260902073004 | 27 | 298 | 0.0 | 3.2 | 0.00 | 0.00 | 0.00 | 1 | 1015.4 |
| 20260902072903 | 27 | 298 | 0.0 | 3.2 | 0.00 | 0.00 | 0.00 | 1 | 1015.4 |
| 20260902072803 | 27 | 298 | 0.0 | 3.2 | 0.00 | 0.00 | 0.00 | 1 | 1015.4 |
| 20260902072704 | 27 | 298 | 0.0 | 3.2 | 0.00 | 0.00 | 0.00 | 1 | 1015.4 |
| 20260902072625 | 27 | 298 | 1.6 | 3.2 | 0.00 | 0.00 | 0.00 | 1 | 1015.4 |
| 20260902072525 | 27 | 298 | 1.6 | 3.2 | 0.00 | 0.00 | 0.00 | 1 | 1015.4 |
| 20260902072403 | 27 | 298 | 1.6 | 3.2 | 0.00 | 0.00 | 0.00 | 1 | 1015.4 |
| 20260902072309 | 27 | 298 | 1.6 | 3.2 | 0.00 | 0.00 | 0.00 | 1 | 1015.4 |
| 20260902072225 | 27 | 298 | 1.6 | 3.2 | 0.00 | 0.00 | 0.00 | 1 | 1015.4 |
| 20260902072104 | 27 | 298 | 1.6 | 3.2 | 0.00 | 0.00 | 0.00 | 1 | 1015.4 |
| 20260902072003 | 27 | 298 | 1.6 | 3.2 | 0.00 | 0.00 | 0.00 | 1 | 1015.4 |
| 20260902071903 | 27 | 298 | 1.6 | 3.2 | 0.00 | 0.00 | 0.00 | 1 | 1015.5 |
| 20260902071803 | 27 | 298 | 1.6 | 3.2 | 0.00 | 0.00 | 0.00 | 1 | 1015.5 |
| 20260902071725 | 27 | 298 | 1.6 | 3.2 | 0.00 | 0.00 | 0.00 | 1 | 1015.5 |
| 20260902071603 | 27 | 298 | 1.6 | 3.2 | 0.00 | 0.00 | 0.00 | 1 | 1015.5 |
| 20260902071504 | 27 | 298 | 1.6 | 3.2 | 0.00 | 0.00 | 0.00 | 1 | 1015.5 |
| 20260902071403 | 27 | 298 | 1.6 | 3.2 | 0.00 | 0.00 | 0.00 | 1 | 1015.5 |
| 20260902071303 | 27 | 298 | 0.0 | 3.2 | 0.00 | 0.00 | 0.00 | 1 | 1015.6 |
| 20260902071224 | 27 | 298 | 0.0 | 3.2 | 0.00 | 0.00 | 0.00 | 1 | 1015.6 |
| 20260902071124 | 27 | 298 | 0.0 | 3.2 | 0.00 | 0.00 | 0.00 | 1 | 1015.5 |
| 20260902071024 | 27 | 298 | 0.0 | 3.2 | 0.00 | 0.00 | 0.00 | 1 | 1015.5 |
| 20260902070903 | 27 | 297 | 0.0 | 3.2 | 0.00 | 0.00 | 0.00 | 1 | 1015.6 |
| 20260902070803 | 27 | 297 | 0.0 | 3.2 | 0.00 | 0.00 | 0.00 | 1 | 1015.5 |
| 20260902070703 | 27 | 297 | 0.0 | 3.2 | 0.00 | 0.00 | 0.00 | 1 | 1015.5 |
| 20260902070604 | 27 | 297 | 0.0 | 3.2 | 0.00 | 0.00 | 0.00 | 1 | 1015.5 |
| 20260902070504 | 27 | 297 | 0.0 | 3.2 | 0.00 | 0.00 | 0.00 | 1 | 1015.5 |
| 20260902070403 | 27 | 297 | 0.0 | 3.2 | 0.00 | 0.00 | 0.00 | 1 | 1015.5 |
| 20260902070303 | 27 | 297 | 0.0 | 3.2 | 0.00 | 0.00 | 0.00 | 1 | 1015.5 |
| 20260902070203 | 27 | 298 | 0.0 | 3.2 | 0.00 | 0.00 | 0.00 | 1 | 1015.5 |
| 20260902070103 | 27 | 298 | 0.0 | 3.2 | 0.00 | 0.00 | 0.00 | 1 | 1015.5 |
| 20260902070005 | 27 | 298 | 0.0 | 3.2 | 0.00 | 0.00 | 0.00 | 1 | 1015.5 |
| 20260902065903 | 27 | 298 | 0.0 | 3.2 | 0.00 | 0.00 | 0.00 | 1 | 1015.5 |
| 20260902065804 | 27 | 298 | 0.0 | 3.2 | 0.00 | 0.00 | 0.00 | 1 | 1015.5 |
| 20260902065703 | 27 | 298 | 1.6 | 3.2 | 0.00 | 0.00 | 0.00 | 1 | 1015.5 |
| 20260902065604 | 27 | 298 | 1.6 | 3.2 | 0.00 | 0.00 | 0.00 | 1 | 1015.5 |
| 20260902065503 | 27 | 298 | 1.6 | 3.2 | 0.00 | 0.00 | 0.00 | 1 | 1015.6 |
| 20260902065403 | 27 | 298 | 1.6 | 3.2 | 0.00 | 0.00 | 0.00 | 1 | 1015.5 |
| 20260902065307 | 27 | 298 | 1.6 | 3.2 | 0.00 | 0.00 | 0.00 | 1 | 1015.5 |
| 20260902065224 | 27 | 298 | 1.6 | 3.2 | 0.00 | 0.00 | 0.00 | 1 | 1015.5 |
| 20260902065103 | 27 | 298 | 1.6 | 3.2 | 0.00 | 0.00 | 0.00 | 1 | 1015.5 |
| 20260902065003 | 27 | 298 | 0.0 | 3.2 | 0.00 | 0.00 | 0.00 | 1 | 1015.5 |
| 20260902064904 | 27 | 298 | 1.6 | 3.2 | 0.00 | 0.00 | 0.00 | 1 | 1015.5 |
| 20260902064803 | 27 | 298 | 0.0 | 3.2 | 0.00 | 0.00 | 0.00 | 1 | 1015.5 |
| 20260902064704 | 27 | 298 | 0.0 | 3.2 | 0.00 | 0.00 | 0.00 | 1 | 1015.5 |
| 20260902064603 | 27 | 298 | 0.0 | 3.2 | 0.00 | 0.00 | 0.00 | 1 | 1015.5 |
| 20260902064525 | 27 | 298 | 0.0 | 3.2 | 0.00 | 0.00 | 0.00 | 1 | 1015.6 |
| 20260902064403 | 27 | 298 | 0.0 | 3.2 | 0.00 | 0.00 | 0.00 | 1 | 1015.5 |
| 20260902064303 | 27 | 298 | 0.0 | 3.2 | 0.00 | 0.00 | 0.00 | 1 | 1015.5 |
| 20260902064203 | 27 | 298 | 0.0 | 3.2 | 0.00 | 0.00 | 0.00 | 1 | 1015.5 |
| 20260902064124 | 27 | 298 | 0.0 | 3.2 | 0.00 | 0.00 | 0.00 | 1 | 1015.5 |
| 20260902064004 | 27 | 298 | 0.0 | 3.2 | 0.00 | 0.00 | 0.00 | 1 | 1015.5 |
| 20260902063903 | 27 | 298 | 0.0 | 3.2 | 0.00 | 0.00 | 0.00 | 1 | 1015.5 |
| 20260902063803 | 27 | 298 | 1.6 | 3.2 | 0.00 | 0.00 | 0.00 | 1 | 1015.5 |
| 20260902063703 | 27 | 298 | 1.6 | 3.2 | 0.00 | 0.00 | 0.00 | 1 | 1015.5 |
| 20260902063603 | 27 | 298 | 1.6 | 4.8 | 0.00 | 0.00 | 0.00 | 1 | 1015.5 |
| 20260902063503 | 27 | 298 | 1.6 | 4.8 | 0.00 | 0.00 | 0.00 | 1 | 1015.5 |
| 20260902063403 | 27 | 298 | 1.6 | 4.8 | 0.00 | 0.00 | 0.00 | 1 | 1015.5 |
| 20260902063303 | 27 | 298 | 1.6 | 4.8 | 0.00 | 0.00 | 0.00 | 1 | 1015.5 |
| 20260902063203 | 27 | 298 | 1.6 | 4.8 | 0.00 | 0.00 | 0.00 | 1 | 1015.5 |
| 20260902063104 | 27 | 298 | 1.6 | 4.8 | 0.00 | 0.00 | 0.00 | 1 | 1015.5 |
| 20260902063004 | 27 | 298 | 1.6 | 4.8 | 0.00 | 0.00 | 0.00 | 1 | 1015.6 |
| 20260902062903 | 27 | 298 | 1.6 | 4.8 | 0.00 | 0.00 | 0.00 | 1 | 1015.7 |
| 20260902062803 | 27 | 298 | 1.6 | 4.8 | 0.00 | 0.00 | 0.00 | 1 | 1015.6 |
| 20260902062704 | 27 | 298 | 1.6 | 4.8 | 0.00 | 0.00 | 0.00 | 1 | 1015.7 |
| 20260902062603 | 27 | 298 | 1.6 | 4.8 | 0.00 | 0.00 | 0.00 | 1 | 1015.6 |
| 20260902062503 | 27 | 298 | 1.6 | 4.8 | 0.00 | 0.00 | 0.00 | 1 | 1015.7 |
| 20260902062404 | 27 | 298 | 1.6 | 4.8 | 0.00 | 0.00 | 0.00 | 1 | 1015.7 |
| 20260902062306 | 27 | 298 | 1.6 | 4.8 | 0.00 | 0.00 | 0.00 | 1 | 1015.6 |
| 20260902062203 | 27 | 298 | 1.6 | 4.8 | 0.00 | 0.00 | 0.00 | 1 | 1015.6 |
| 20260902062104 | 27 | 299 | 1.6 | 4.8 | 0.00 | 0.00 | 0.00 | 1 | 1015.5 |
| 20260902062003 | 27 | 299 | 1.6 | 4.8 | 0.00 | 0.00 | 0.00 | 1 | 1015.6 |
| 20260902061904 | 27 | 299 | 1.6 | 4.8 | 0.00 | 0.00 | 0.00 | 1 | 1015.5 |
| 20260902061824 | 27 | 299 | 1.6 | 4.8 | 0.00 | 0.00 | 0.00 | 1 | 1015.6 |
| 20260902061703 | 27 | 299 | 1.6 | 4.8 | 0.00 | 0.00 | 0.00 | 1 | 1015.6 |
| 20260902061603 | 27 | 299 | 1.6 | 4.8 | 0.00 | 0.00 | 0.00 | 1 | 1015.6 |
| 20260902061503 | 27 | 299 | 1.6 | 4.8 | 0.00 | 0.00 | 0.00 | 1 | 1015.6 |
| 20260902061403 | 27 | 299 | 1.6 | 4.8 | 0.00 | 0.00 | 0.00 | 1 | 1015.6 |
| 20260902061324 | 27 | 299 | 1.6 | 4.8 | 0.00 | 0.00 | 0.00 | 1 | 1015.6 |
| 20260902061203 | 27 | 300 | 1.6 | 4.8 | 0.00 | 0.00 | 0.00 | 1 | 1015.6 |
| 20260902061103 | 27 | 300 | 1.6 | 4.8 | 0.00 | 0.00 | 0.00 | 1 | 1015.6 |
| 20260902061046 | 27 | 300 | 1.6 | 4.8 | 0.00 | 0.00 | 0.00 | 1 | 1015.7 |
| 20260902060904 | 27 | 300 | 1.6 | 4.8 | 0.00 | 0.00 | 0.00 | 1 | 1015.6 |
| 20260902060803 | 28 | 300 | 1.6 | 3.2 | 0.00 | 0.00 | 0.00 | 1 | 1015.7 |
| 20260902060703 | 28 | 300 | 0.0 | 3.2 | 0.00 | 0.00 | 0.00 | 1 | 1015.6 |
| 20260902060625 | 28 | 300 | 0.0 | 3.2 | 0.00 | 0.00 | 0.00 | 1 | 1015.7 |
| 20260902060503 | 28 | 300 | 0.0 | 3.2 | 0.00 | 0.00 | 0.00 | 1 | 1015.7 |
| 20260902060403 | 27 | 300 | 0.0 | 3.2 | 0.00 | 0.00 | 0.00 | 1 | 1015.7 |
| 20260902060303 | 27 | 300 | 0.0 | 1.6 | 0.00 | 0.00 | 0.00 | 1 | 1015.7 |
| 20260902060203 | 27 | 300 | 0.0 | 1.6 | 0.00 | 0.00 | 0.00 | 1 | 1015.7 |
| 20260902060104 | 27 | 300 | 0.0 | 1.6 | 0.00 | 0.00 | 0.00 | 1 | 1015.7 |
| 20260902060004 | 27 | 300 | 0.0 | 3.2 | 0.00 | 0.00 | 0.00 | 1 | 1015.6 |
| 20260902055924 | 28 | 300 | 0.0 | 3.2 | 0.00 | 0.00 | 0.00 | 1 | 1015.6 |
| 20260902055803 | 28 | 300 | 1.6 | 3.2 | 0.00 | 0.00 | 0.00 | 1 | 1015.6 |
| 20260902055703 | 28 | 300 | 1.6 | 3.2 | 0.00 | 0.00 | 0.00 | 1 | 1015.7 |
| 20260902055603 | 28 | 300 | 1.6 | 3.2 | 0.00 | 0.00 | 0.00 | 1 | 1015.6 |
| 20260902055504 | 28 | 299 | 1.6 | 3.2 | 0.00 | 0.00 | 0.00 | 1 | 1015.7 |
| 20260902055403 | 28 | 299 | 1.6 | 3.2 | 0.00 | 0.00 | 0.00 | 2 | 1015.6 |
| 20260902055306 | 28 | 300 | 1.6 | 3.2 | 0.00 | 0.00 | 0.00 | 2 | 1015.6 |
| 20260902055224 | 28 | 300 | 1.6 | 3.2 | 0.00 | 0.00 | 0.00 | 2 | 1015.6 |
| 20260902055124 | 28 | 300 | 1.6 | 3.2 | 0.00 | 0.00 | 0.00 | 4 | 1015.6 |
| 20260902055003 | 28 | 300 | 1.6 | 3.2 | 0.00 | 0.00 | 0.00 | 5 | 1015.6 |
| 20260902054903 | 28 | 300 | 1.6 | 3.2 | 0.00 | 0.00 | 0.00 | 6 | 1015.6 |
| 20260902054803 | 28 | 300 | 1.6 | 3.2 | 0.00 | 0.00 | 0.00 | 8 | 1015.5 |
| 20260902054725 | 28 | 300 | 1.6 | 3.2 | 0.00 | 0.00 | 0.00 | 8 | 1015.5 |
| 20260902054603 | 28 | 300 | 1.6 | 4.8 | 0.00 | 0.00 | 0.00 | 9 | 1015.6 |
| 20260902054503 | 28 | 300 | 1.6 | 4.8 | 0.00 | 0.00 | 0.00 | 10 | 1015.5 |
| 20260902054425 | 28 | 300 | 1.6 | 4.8 | 0.00 | 0.00 | 0.00 | 11 | 1015.5 |
| 20260902054304 | 28 | 300 | 1.6 | 4.8 | 0.00 | 0.00 | 0.00 | 11 | 1015.5 |
| 20260902054203 | 28 | 300 | 1.6 | 4.8 | 0.00 | 0.00 | 0.00 | 11 | 1015.5 |
| 20260902054103 | 28 | 300 | 1.6 | 4.8 | 0.00 | 0.00 | 0.00 | 12 | 1015.4 |
| 20260902054003 | 28 | 300 | 1.6 | 4.8 | 0.00 | 0.00 | 0.00 | 12 | 1015.4 |
| 20260902053903 | 28 | 300 | 1.6 | 4.8 | 0.00 | 0.00 | 0.00 | 12 | 1015.4 |
| 20260902053804 | 28 | 300 | 1.6 | 4.8 | 0.00 | 0.00 | 0.00 | 12 | 1015.4 |
| 20260902053703 | 28 | 300 | 1.6 | 4.8 | 0.00 | 0.00 | 0.00 | 13 | 1015.4 |
| 20260902053603 | 28 | 300 | 1.6 | 4.8 | 0.00 | 0.00 | 0.00 | 12 | 1015.4 |
| 20260902053503 | 28 | 300 | 1.6 | 4.8 | 0.00 | 0.00 | 0.00 | 13 | 1015.4 |
| 20260902053403 | 28 | 300 | 1.6 | 4.8 | 0.00 | 0.00 | 0.00 | 13 | 1015.3 |
| 20260902053304 | 28 | 300 | 1.6 | 4.8 | 0.00 | 0.00 | 0.00 | 13 | 1015.3 |
| 20260902053203 | 28 | 300 | 1.6 | 4.8 | 0.00 | 0.00 | 0.00 | 14 | 1015.3 |
| 20260902053103 | 28 | 300 | 1.6 | 4.8 | 0.00 | 0.00 | 0.00 | 14 | 1015.2 |
| 20260902053003 | 28 | 300 | 1.6 | 4.8 | 0.00 | 0.00 | 0.00 | 15 | 1015.3 |
| 20260902052903 | 28 | 300 | 1.6 | 4.8 | 0.00 | 0.00 | 0.00 | 16 | 1015.2 |
| 20260902052803 | 28 | 300 | 1.6 | 4.8 | 0.00 | 0.00 | 0.00 | 16 | 1015.3 |
| 20260902052703 | 28 | 300 | 1.6 | 4.8 | 0.00 | 0.00 | 0.00 | 16 | 1015.2 |
| 20260902052603 | 28 | 300 | 1.6 | 4.8 | 0.00 | 0.00 | 0.00 | 16 | 1015.2 |
| 20260902052503 | 28 | 300 | 1.6 | 4.8 | 0.00 | 0.00 | 0.00 | 17 | 1015.3 |
| 20260902052404 | 28 | 300 | 1.6 | 4.8 | 0.00 | 0.00 | 0.00 | 17 | 1015.2 |
| 20260902052306 | 28 | 300 | 3.2 | 4.8 | 0.00 | 0.00 | 0.00 | 17 | 1015.2 |
| 20260902052203 | 28 | 300 | 1.6 | 4.8 | 0.00 | 0.00 | 0.00 | 17 | 1015.3 |
| 20260902052103 | 28 | 300 | 1.6 | 4.8 | 0.00 | 0.00 | 0.00 | 17 | 1015.3 |
| 20260902052004 | 28 | 300 | 1.6 | 6.4 | 0.00 | 0.00 | 0.00 | 18 | 1015.3 |
| 20260902051903 | 28 | 300 | 1.6 | 6.4 | 0.00 | 0.00 | 0.00 | 17 | 1015.3 |
| 20260902051803 | 28 | 300 | 1.6 | 6.4 | 0.00 | 0.00 | 0.00 | 18 | 1015.2 |
| 20260902051703 | 28 | 300 | 1.6 | 6.4 | 0.00 | 0.00 | 0.00 | 18 | 1015.3 |
| 20260902051603 | 28 | 300 | 1.6 | 6.4 | 0.00 | 0.00 | 0.00 | 19 | 1015.3 |
| 20260902051504 | 28 | 300 | 1.6 | 6.4 | 0.00 | 0.00 | 0.00 | 19 | 1015.3 |
| 20260902051403 | 28 | 300 | 1.6 | 6.4 | 0.00 | 0.00 | 0.00 | 19 | 1015.3 |
| 20260902051303 | 28 | 300 | 1.6 | 6.4 | 0.00 | 0.00 | 0.00 | 20 | 1015.3 |
| 20260902051204 | 28 | 300 | 1.6 | 6.4 | 0.00 | 0.00 | 0.00 | 20 | 1015.3 |
| 20260902051103 | 28 | 299 | 1.6 | 6.4 | 0.00 | 0.00 | 0.00 | 20 | 1015.4 |
| 20260902051024 | 28 | 299 | 3.2 | 8.0 | 0.00 | 0.00 | 0.00 | 20 | 1015.3 |
| 20260902050925 | 28 | 299 | 3.2 | 8.0 | 0.00 | 0.00 | 0.00 | 20 | 1015.4 |
| 20260902050803 | 28 | 298 | 3.2 | 8.0 | 0.00 | 0.00 | 0.00 | 21 | 1015.4 |
| 20260902050704 | 28 | 298 | 3.2 | 8.0 | 0.00 | 0.00 | 0.00 | 21 | 1015.4 |
| 20260902050603 | 29 | 299 | 3.2 | 11.3 | 0.00 | 0.00 | 0.00 | 21 | 1015.4 |
| 20260902050504 | 29 | 299 | 3.2 | 11.3 | 0.00 | 0.00 | 0.00 | 22 | 1015.4 |
| 20260902050424 | 29 | 299 | 3.2 | 11.3 | 0.00 | 0.00 | 0.00 | 22 | 1015.4 |
| 20260902050325 | 29 | 299 | 3.2 | 11.3 | 0.00 | 0.00 | 0.00 | 22 | 1015.3 |
| 20260902050203 | 29 | 299 | 3.2 | 11.3 | 0.00 | 0.00 | 0.00 | 22 | 1015.4 |
| 20260902050103 | 29 | 299 | 3.2 | 11.3 | 0.00 | 0.00 | 0.00 | 23 | 1015.4 |
| 20260902050025 | 29 | 299 | 1.6 | 11.3 | 0.00 | 0.00 | 0.00 | 23 | 1015.4 |
| 20260902045904 | 29 | 299 | 3.2 | 11.3 | 0.00 | 0.00 | 0.00 | 23 | 1015.4 |
| 20260902045803 | 29 | 299 | 3.2 | 11.3 | 0.00 | 0.00 | 0.00 | 23 | 1015.3 |
| 20260902045703 | 29 | 299 | 3.2 | 11.3 | 0.00 | 0.00 | 0.00 | 23 | 1015.3 |
| 20260902045624 | 29 | 299 | 1.6 | 9.7 | 0.00 | 0.00 | 0.00 | 23 | 1015.3 |
| 20260902045503 | 29 | 298 | 1.6 | 6.4 | 0.00 | 0.00 | 0.00 | 23 | 1015.3 |
| 20260902045404 | 29 | 298 | 1.6 | 6.4 | 0.00 | 0.00 | 0.00 | 23 | 1015.4 |
| 20260902045306 | 29 | 298 | 1.6 | 6.4 | 0.00 | 0.00 | 0.00 | 23 | 1015.4 |
| 20260902045203 | 29 | 298 | 3.2 | 6.4 | 0.00 | 0.00 | 0.00 | 24 | 1015.4 |
| 20260902045103 | 29 | 298 | 3.2 | 6.4 | 0.00 | 0.00 | 0.00 | 24 | 1015.4 |
| 20260902045003 | 29 | 298 | 3.2 | 6.4 | 0.00 | 0.00 | 0.00 | 24 | 1015.4 |
| 20260902044924 | 29 | 298 | 3.2 | 6.4 | 0.00 | 0.00 | 0.00 | 24 | 1015.4 |
| 20260902044803 | 29 | 298 | 3.2 | 6.4 | 0.00 | 0.00 | 0.00 | 24 | 1015.4 |
| 20260902044703 | 29 | 297 | 3.2 | 6.4 | 0.00 | 0.00 | 0.00 | 24 | 1015.4 |
| 20260902044603 | 29 | 297 | 3.2 | 6.4 | 0.00 | 0.00 | 0.00 | 24 | 1015.4 |
| 20260902044524 | 29 | 297 | 1.6 | 6.4 | 0.00 | 0.00 | 0.00 | 25 | 1015.4 |
| 20260902044404 | 29 | 297 | 1.6 | 6.4 | 0.00 | 0.00 | 0.00 | 25 | 1015.4 |
| 20260902044304 | 29 | 297 | 1.6 | 6.4 | 0.00 | 0.00 | 0.00 | 25 | 1015.4 |
| 20260902044203 | 29 | 297 | 1.6 | 6.4 | 0.00 | 0.00 | 0.00 | 25 | 1015.4 |
| 20260902044103 | 29 | 297 | 1.6 | 6.4 | 0.00 | 0.00 | 0.00 | 26 | 1015.4 |
| 20260902044003 | 29 | 297 | 1.6 | 6.4 | 0.00 | 0.00 | 0.00 | 26 | 1015.4 |
| 20260902043903 | 29 | 296 | 1.6 | 6.4 | 0.00 | 0.00 | 0.00 | 26 | 1015.4 |
| 20260902043803 | 29 | 296 | 1.6 | 6.4 | 0.00 | 0.00 | 0.00 | 26 | 1015.4 |
| 20260902043703 | 29 | 296 | 1.6 | 6.4 | 0.00 | 0.00 | 0.00 | 27 | 1015.4 |
| 20260902043603 | 29 | 296 | 1.6 | 6.4 | 0.00 | 0.00 | 0.00 | 27 | 1015.4 |
| 20260902043503 | 30 | 296 | 1.6 | 6.4 | 0.00 | 0.00 | 0.00 | 27 | 1015.5 |
| 20260902043424 | 30 | 296 | 1.6 | 6.4 | 0.00 | 0.00 | 0.00 | 27 | 1015.5 |
| 20260902043325 | 30 | 296 | 1.6 | 6.4 | 0.00 | 0.00 | 0.00 | 27 | 1015.5 |
| 20260902043203 | 30 | 296 | 1.6 | 6.4 | 0.00 | 0.00 | 0.00 | 28 | 1015.5 |
| 20260902043104 | 30 | 296 | 1.6 | 6.4 | 0.00 | 0.00 | 0.00 | 28 | 1015.5 |
| 20260902043003 | 30 | 296 | 1.6 | 8.0 | 0.00 | 0.00 | 0.00 | 28 | 1015.5 |
| 20260902042903 | 30 | 296 | 1.6 | 8.0 | 0.00 | 0.00 | 0.00 | 29 | 1015.5 |
| 20260902042803 | 30 | 296 | 1.6 | 8.0 | 0.00 | 0.00 | 0.00 | 29 | 1015.5 |
| 20260902042703 | 30 | 296 | 1.6 | 8.0 | 0.00 | 0.00 | 0.00 | 29 | 1015.5 |
| 20260902042603 | 30 | 296 | 1.6 | 8.0 | 0.00 | 0.00 | 0.00 | 30 | 1015.5 |
| 20260902042503 | 30 | 296 | 1.6 | 8.0 | 0.00 | 0.00 | 0.00 | 30 | 1015.5 |
| 20260902042403 | 30 | 295 | 1.6 | 8.0 | 0.00 | 0.00 | 0.00 | 30 | 1015.5 |
| 20260902042308 | 30 | 295 | 1.6 | 8.0 | 0.00 | 0.00 | 0.00 | 31 | 1015.4 |
| 20260902042203 | 30 | 295 | 1.6 | 8.0 | 0.00 | 0.00 | 0.00 | 31 | 1015.4 |
| 20260902042125 | 30 | 295 | 1.6 | 8.0 | 0.00 | 0.00 | 0.00 | 31 | 1015.4 |
| 20260902042003 | 30 | 294 | 1.6 | 4.8 | 0.00 | 0.00 | 0.00 | 31 | 1015.5 |
| 20260902041903 | 30 | 294 | 1.6 | 4.8 | 0.00 | 0.00 | 0.00 | 32 | 1015.5 |
| 20260902041803 | 30 | 295 | 1.6 | 4.8 | 0.00 | 0.00 | 0.00 | 32 | 1015.4 |
| 20260902041703 | 30 | 295 | 1.6 | 4.8 | 0.00 | 0.00 | 0.00 | 32 | 1015.5 |
| 20260902041603 | 30 | 295 | 1.6 | 4.8 | 0.00 | 0.00 | 0.00 | 32 | 1015.4 |
| 20260902041504 | 30 | 295 | 1.6 | 4.8 | 0.00 | 0.00 | 0.00 | 32 | 1015.4 |